<?xml version="1.0" encoding="UTF-8" standalone="no" ?>
<gpx xmlns="http://www.topografix.com/GPX/1/1" xmlns:xsi="http://www.w3.org/2001/XMLSchema-instance" xsi:schemaLocation="http://www.topografix.com/GPX/1/1 http://www.topografix.com/GPX/1/1/gpx.xsd" version="1.1" creator="VisuGPX - https://www.visugpx.com">
  <metadata>
    <name>2019-05-26 15:41:50</name>
    <desc><![CDATA[

]]></desc>
  </metadata>
  <trk>
    <name><![CDATA[2019-05-26 15:41:50]]></name>
    <trkseg>
      <trkpt lat="40.89485" lon="-8.49386">
        <ele>244.31</ele>
        <time>2019-05-26T06:25:16Z</time>
      </trkpt>
      <trkpt lat="40.89486" lon="-8.49387">
        <ele>244.31</ele>
        <time>2019-05-26T06:25:25Z</time>
      </trkpt>
      <trkpt lat="40.89489" lon="-8.49384">
        <ele>244.31</ele>
        <time>2019-05-26T06:25:29Z</time>
      </trkpt>
      <trkpt lat="40.89492" lon="-8.49374">
        <ele>243.83</ele>
        <time>2019-05-26T06:25:41Z</time>
      </trkpt>
      <trkpt lat="40.89492" lon="-8.49372">
        <ele>244.31</ele>
        <time>2019-05-26T06:25:43Z</time>
      </trkpt>
      <trkpt lat="40.895" lon="-8.49364">
        <ele>244.31</ele>
        <time>2019-05-26T06:25:56Z</time>
      </trkpt>
      <trkpt lat="40.89511" lon="-8.49359">
        <ele>244.31</ele>
        <time>2019-05-26T06:26:06Z</time>
      </trkpt>
      <trkpt lat="40.89517" lon="-8.49355">
        <ele>244.79</ele>
        <time>2019-05-26T06:26:17Z</time>
      </trkpt>
      <trkpt lat="40.89523" lon="-8.49353">
        <ele>244.31</ele>
        <time>2019-05-26T06:26:28Z</time>
      </trkpt>
      <trkpt lat="40.89532" lon="-8.49349">
        <ele>244.31</ele>
        <time>2019-05-26T06:26:40Z</time>
      </trkpt>
      <trkpt lat="40.89537" lon="-8.49349">
        <ele>244.31</ele>
        <time>2019-05-26T06:26:45Z</time>
      </trkpt>
      <trkpt lat="40.89542" lon="-8.49347">
        <ele>245.27</ele>
        <time>2019-05-26T06:26:50Z</time>
      </trkpt>
      <trkpt lat="40.89546" lon="-8.49346">
        <ele>244.79</ele>
        <time>2019-05-26T06:26:55Z</time>
      </trkpt>
      <trkpt lat="40.89549" lon="-8.49346">
        <ele>244.79</ele>
        <time>2019-05-26T06:27:00Z</time>
      </trkpt>
      <trkpt lat="40.89554" lon="-8.49345">
        <ele>245.27</ele>
        <time>2019-05-26T06:27:10Z</time>
      </trkpt>
      <trkpt lat="40.89562" lon="-8.49339">
        <ele>244.79</ele>
        <time>2019-05-26T06:27:20Z</time>
      </trkpt>
      <trkpt lat="40.89573" lon="-8.49334">
        <ele>244.79</ele>
        <time>2019-05-26T06:27:34Z</time>
      </trkpt>
      <trkpt lat="40.89582" lon="-8.49333">
        <ele>244.79</ele>
        <time>2019-05-26T06:27:50Z</time>
      </trkpt>
      <trkpt lat="40.89592" lon="-8.49333">
        <ele>244.31</ele>
        <time>2019-05-26T06:28:04Z</time>
      </trkpt>
      <trkpt lat="40.89601" lon="-8.49331">
        <ele>244.31</ele>
        <time>2019-05-26T06:28:18Z</time>
      </trkpt>
      <trkpt lat="40.89616" lon="-8.49331">
        <ele>244.79</ele>
        <time>2019-05-26T06:28:30Z</time>
      </trkpt>
      <trkpt lat="40.89626" lon="-8.49324">
        <ele>244.31</ele>
        <time>2019-05-26T06:28:39Z</time>
      </trkpt>
      <trkpt lat="40.89629" lon="-8.49322">
        <ele>244.31</ele>
        <time>2019-05-26T06:28:42Z</time>
      </trkpt>
      <trkpt lat="40.89633" lon="-8.49321">
        <ele>244.79</ele>
        <time>2019-05-26T06:28:46Z</time>
      </trkpt>
      <trkpt lat="40.8965" lon="-8.49317">
        <ele>244.79</ele>
        <time>2019-05-26T06:29:00Z</time>
      </trkpt>
      <trkpt lat="40.89663" lon="-8.49313">
        <ele>245.27</ele>
        <time>2019-05-26T06:29:12Z</time>
      </trkpt>
      <trkpt lat="40.89668" lon="-8.49304">
        <ele>245.27</ele>
        <time>2019-05-26T06:29:19Z</time>
      </trkpt>
      <trkpt lat="40.8969" lon="-8.49276">
        <ele>245.75</ele>
        <time>2019-05-26T06:29:24Z</time>
      </trkpt>
      <trkpt lat="40.89692" lon="-8.49276">
        <ele>246.23</ele>
        <time>2019-05-26T06:29:26Z</time>
      </trkpt>
      <trkpt lat="40.89699" lon="-8.49277">
        <ele>245.75</ele>
        <time>2019-05-26T06:29:33Z</time>
      </trkpt>
      <trkpt lat="40.89702" lon="-8.49277">
        <ele>245.75</ele>
        <time>2019-05-26T06:29:36Z</time>
      </trkpt>
      <trkpt lat="40.89717" lon="-8.49274">
        <ele>245.75</ele>
        <time>2019-05-26T06:29:50Z</time>
      </trkpt>
      <trkpt lat="40.89724" lon="-8.49272">
        <ele>245.75</ele>
        <time>2019-05-26T06:30:02Z</time>
      </trkpt>
      <trkpt lat="40.89726" lon="-8.49277">
        <ele>245.27</ele>
        <time>2019-05-26T06:30:13Z</time>
      </trkpt>
      <trkpt lat="40.89727" lon="-8.49285">
        <ele>244.79</ele>
        <time>2019-05-26T06:30:25Z</time>
      </trkpt>
      <trkpt lat="40.89739" lon="-8.49284">
        <ele>244.31</ele>
        <time>2019-05-26T06:30:39Z</time>
      </trkpt>
      <trkpt lat="40.89746" lon="-8.49283">
        <ele>244.31</ele>
        <time>2019-05-26T06:30:53Z</time>
      </trkpt>
      <trkpt lat="40.89768" lon="-8.49274">
        <ele>243.83</ele>
        <time>2019-05-26T06:31:09Z</time>
      </trkpt>
      <trkpt lat="40.89782" lon="-8.49259">
        <ele>243.83</ele>
        <time>2019-05-26T06:31:19Z</time>
      </trkpt>
      <trkpt lat="40.89809" lon="-8.4924">
        <ele>243.83</ele>
        <time>2019-05-26T06:31:31Z</time>
      </trkpt>
      <trkpt lat="40.89822" lon="-8.49237">
        <ele>243.35</ele>
        <time>2019-05-26T06:31:45Z</time>
      </trkpt>
      <trkpt lat="40.8983" lon="-8.49237">
        <ele>243.35</ele>
        <time>2019-05-26T06:31:51Z</time>
      </trkpt>
      <trkpt lat="40.89853" lon="-8.4925">
        <ele>243.83</ele>
        <time>2019-05-26T06:32:06Z</time>
      </trkpt>
      <trkpt lat="40.89874" lon="-8.49247">
        <ele>243.35</ele>
        <time>2019-05-26T06:32:20Z</time>
      </trkpt>
      <trkpt lat="40.89875" lon="-8.49248">
        <ele>243.35</ele>
        <time>2019-05-26T06:32:21Z</time>
      </trkpt>
      <trkpt lat="40.89887" lon="-8.49248">
        <ele>243.35</ele>
        <time>2019-05-26T06:32:34Z</time>
      </trkpt>
      <trkpt lat="40.8989" lon="-8.49252">
        <ele>243.83</ele>
        <time>2019-05-26T06:32:47Z</time>
      </trkpt>
      <trkpt lat="40.89886" lon="-8.4926">
        <ele>243.83</ele>
        <time>2019-05-26T06:32:55Z</time>
      </trkpt>
      <trkpt lat="40.89878" lon="-8.49283">
        <ele>243.35</ele>
        <time>2019-05-26T06:33:05Z</time>
      </trkpt>
      <trkpt lat="40.89891" lon="-8.49314">
        <ele>243.83</ele>
        <time>2019-05-26T06:33:17Z</time>
      </trkpt>
      <trkpt lat="40.89898" lon="-8.49321">
        <ele>242.39</ele>
        <time>2019-05-26T06:33:31Z</time>
      </trkpt>
      <trkpt lat="40.89912" lon="-8.49328">
        <ele>242.87</ele>
        <time>2019-05-26T06:33:46Z</time>
      </trkpt>
      <trkpt lat="40.89919" lon="-8.49335">
        <ele>242.87</ele>
        <time>2019-05-26T06:33:58Z</time>
      </trkpt>
      <trkpt lat="40.89923" lon="-8.49334">
        <ele>242.39</ele>
        <time>2019-05-26T06:34:01Z</time>
      </trkpt>
      <trkpt lat="40.89929" lon="-8.49337">
        <ele>242.87</ele>
        <time>2019-05-26T06:34:05Z</time>
      </trkpt>
      <trkpt lat="40.89937" lon="-8.49348">
        <ele>242.39</ele>
        <time>2019-05-26T06:34:16Z</time>
      </trkpt>
      <trkpt lat="40.8995" lon="-8.49355">
        <ele>242.87</ele>
        <time>2019-05-26T06:34:27Z</time>
      </trkpt>
      <trkpt lat="40.89968" lon="-8.49371">
        <ele>241.43</ele>
        <time>2019-05-26T06:34:43Z</time>
      </trkpt>
      <trkpt lat="40.89972" lon="-8.49375">
        <ele>241.43</ele>
        <time>2019-05-26T06:34:48Z</time>
      </trkpt>
      <trkpt lat="40.89989" lon="-8.49379">
        <ele>240.47</ele>
        <time>2019-05-26T06:35:01Z</time>
      </trkpt>
      <trkpt lat="40.9" lon="-8.49384">
        <ele>239.99</ele>
        <time>2019-05-26T06:35:12Z</time>
      </trkpt>
      <trkpt lat="40.9002" lon="-8.49392">
        <ele>239.51</ele>
        <time>2019-05-26T06:35:27Z</time>
      </trkpt>
      <trkpt lat="40.90043" lon="-8.49378">
        <ele>239.02</ele>
        <time>2019-05-26T06:35:31Z</time>
      </trkpt>
      <trkpt lat="40.90066" lon="-8.49371">
        <ele>238.54</ele>
        <time>2019-05-26T06:35:38Z</time>
      </trkpt>
      <trkpt lat="40.90078" lon="-8.49374">
        <ele>238.54</ele>
        <time>2019-05-26T06:35:45Z</time>
      </trkpt>
      <trkpt lat="40.90096" lon="-8.4938">
        <ele>238.06</ele>
        <time>2019-05-26T06:35:57Z</time>
      </trkpt>
      <trkpt lat="40.90114" lon="-8.49392">
        <ele>237.58</ele>
        <time>2019-05-26T06:36:07Z</time>
      </trkpt>
      <trkpt lat="40.90118" lon="-8.49396">
        <ele>238.06</ele>
        <time>2019-05-26T06:36:11Z</time>
      </trkpt>
      <trkpt lat="40.90123" lon="-8.49402">
        <ele>237.58</ele>
        <time>2019-05-26T06:36:17Z</time>
      </trkpt>
      <trkpt lat="40.90129" lon="-8.49429">
        <ele>237.58</ele>
        <time>2019-05-26T06:36:26Z</time>
      </trkpt>
      <trkpt lat="40.90131" lon="-8.49437">
        <ele>237.1</ele>
        <time>2019-05-26T06:36:29Z</time>
      </trkpt>
      <trkpt lat="40.90144" lon="-8.49445">
        <ele>237.1</ele>
        <time>2019-05-26T06:36:38Z</time>
      </trkpt>
      <trkpt lat="40.90157" lon="-8.49455">
        <ele>236.62</ele>
        <time>2019-05-26T06:36:50Z</time>
      </trkpt>
      <trkpt lat="40.90159" lon="-8.49455">
        <ele>236.62</ele>
        <time>2019-05-26T06:36:52Z</time>
      </trkpt>
      <trkpt lat="40.90161" lon="-8.49459">
        <ele>236.62</ele>
        <time>2019-05-26T06:36:55Z</time>
      </trkpt>
      <trkpt lat="40.90163" lon="-8.49459">
        <ele>236.62</ele>
        <time>2019-05-26T06:36:56Z</time>
      </trkpt>
      <trkpt lat="40.90164" lon="-8.4946">
        <ele>236.62</ele>
        <time>2019-05-26T06:36:57Z</time>
      </trkpt>
      <trkpt lat="40.90171" lon="-8.4947">
        <ele>236.14</ele>
        <time>2019-05-26T06:37:06Z</time>
      </trkpt>
      <trkpt lat="40.90172" lon="-8.49472">
        <ele>235.66</ele>
        <time>2019-05-26T06:37:08Z</time>
      </trkpt>
      <trkpt lat="40.90176" lon="-8.49476">
        <ele>235.66</ele>
        <time>2019-05-26T06:37:12Z</time>
      </trkpt>
      <trkpt lat="40.90185" lon="-8.49483">
        <ele>235.66</ele>
        <time>2019-05-26T06:37:21Z</time>
      </trkpt>
      <trkpt lat="40.902" lon="-8.49493">
        <ele>235.18</ele>
        <time>2019-05-26T06:37:33Z</time>
      </trkpt>
      <trkpt lat="40.90202" lon="-8.49494">
        <ele>234.7</ele>
        <time>2019-05-26T06:37:35Z</time>
      </trkpt>
      <trkpt lat="40.90206" lon="-8.49496">
        <ele>235.18</ele>
        <time>2019-05-26T06:37:38Z</time>
      </trkpt>
      <trkpt lat="40.9021" lon="-8.49501">
        <ele>234.7</ele>
        <time>2019-05-26T06:37:42Z</time>
      </trkpt>
      <trkpt lat="40.90218" lon="-8.4951">
        <ele>234.22</ele>
        <time>2019-05-26T06:37:50Z</time>
      </trkpt>
      <trkpt lat="40.90229" lon="-8.49522">
        <ele>233.74</ele>
        <time>2019-05-26T06:38:02Z</time>
      </trkpt>
      <trkpt lat="40.90234" lon="-8.49529">
        <ele>233.74</ele>
        <time>2019-05-26T06:38:09Z</time>
      </trkpt>
      <trkpt lat="40.90245" lon="-8.49538">
        <ele>233.26</ele>
        <time>2019-05-26T06:38:22Z</time>
      </trkpt>
      <trkpt lat="40.90257" lon="-8.49544">
        <ele>232.78</ele>
        <time>2019-05-26T06:38:34Z</time>
      </trkpt>
      <trkpt lat="40.90264" lon="-8.49546">
        <ele>233.26</ele>
        <time>2019-05-26T06:38:39Z</time>
      </trkpt>
      <trkpt lat="40.90272" lon="-8.49548">
        <ele>233.26</ele>
        <time>2019-05-26T06:38:50Z</time>
      </trkpt>
      <trkpt lat="40.90274" lon="-8.49548">
        <ele>233.26</ele>
        <time>2019-05-26T06:38:52Z</time>
      </trkpt>
      <trkpt lat="40.90291" lon="-8.49549">
        <ele>232.78</ele>
        <time>2019-05-26T06:39:04Z</time>
      </trkpt>
      <trkpt lat="40.90303" lon="-8.49551">
        <ele>232.78</ele>
        <time>2019-05-26T06:39:16Z</time>
      </trkpt>
      <trkpt lat="40.90314" lon="-8.49549">
        <ele>232.78</ele>
        <time>2019-05-26T06:39:29Z</time>
      </trkpt>
      <trkpt lat="40.90316" lon="-8.49549">
        <ele>233.26</ele>
        <time>2019-05-26T06:39:31Z</time>
      </trkpt>
      <trkpt lat="40.90334" lon="-8.49549">
        <ele>233.26</ele>
        <time>2019-05-26T06:39:44Z</time>
      </trkpt>
      <trkpt lat="40.90347" lon="-8.49552">
        <ele>233.26</ele>
        <time>2019-05-26T06:39:55Z</time>
      </trkpt>
      <trkpt lat="40.90352" lon="-8.49552">
        <ele>233.26</ele>
        <time>2019-05-26T06:39:59Z</time>
      </trkpt>
      <trkpt lat="40.90367" lon="-8.4955">
        <ele>233.26</ele>
        <time>2019-05-26T06:40:11Z</time>
      </trkpt>
      <trkpt lat="40.9038" lon="-8.49548">
        <ele>232.78</ele>
        <time>2019-05-26T06:40:22Z</time>
      </trkpt>
      <trkpt lat="40.90382" lon="-8.49548">
        <ele>232.78</ele>
        <time>2019-05-26T06:40:24Z</time>
      </trkpt>
      <trkpt lat="40.90395" lon="-8.49548">
        <ele>233.26</ele>
        <time>2019-05-26T06:40:38Z</time>
      </trkpt>
      <trkpt lat="40.90397" lon="-8.49544">
        <ele>233.26</ele>
        <time>2019-05-26T06:40:50Z</time>
      </trkpt>
      <trkpt lat="40.90402" lon="-8.49544">
        <ele>232.3</ele>
        <time>2019-05-26T06:41:00Z</time>
      </trkpt>
      <trkpt lat="40.90403" lon="-8.49545">
        <ele>232.3</ele>
        <time>2019-05-26T06:41:02Z</time>
      </trkpt>
      <trkpt lat="40.90405" lon="-8.49549">
        <ele>233.26</ele>
        <time>2019-05-26T06:41:07Z</time>
      </trkpt>
      <trkpt lat="40.90424" lon="-8.49568">
        <ele>231.81</ele>
        <time>2019-05-26T06:41:21Z</time>
      </trkpt>
      <trkpt lat="40.90441" lon="-8.49579">
        <ele>230.85</ele>
        <time>2019-05-26T06:41:32Z</time>
      </trkpt>
      <trkpt lat="40.90456" lon="-8.49594">
        <ele>230.37</ele>
        <time>2019-05-26T06:41:46Z</time>
      </trkpt>
      <trkpt lat="40.90473" lon="-8.49606">
        <ele>230.37</ele>
        <time>2019-05-26T06:42:01Z</time>
      </trkpt>
      <trkpt lat="40.90494" lon="-8.49622">
        <ele>229.41</ele>
        <time>2019-05-26T06:42:15Z</time>
      </trkpt>
      <trkpt lat="40.90503" lon="-8.49636">
        <ele>229.89</ele>
        <time>2019-05-26T06:42:30Z</time>
      </trkpt>
      <trkpt lat="40.90504" lon="-8.49645">
        <ele>229.89</ele>
        <time>2019-05-26T06:42:42Z</time>
      </trkpt>
      <trkpt lat="40.9051" lon="-8.49628">
        <ele>229.89</ele>
        <time>2019-05-26T06:42:54Z</time>
      </trkpt>
      <trkpt lat="40.90517" lon="-8.49642">
        <ele>229.41</ele>
        <time>2019-05-26T06:43:03Z</time>
      </trkpt>
      <trkpt lat="40.90529" lon="-8.49664">
        <ele>229.89</ele>
        <time>2019-05-26T06:43:18Z</time>
      </trkpt>
      <trkpt lat="40.9054" lon="-8.49675">
        <ele>230.37</ele>
        <time>2019-05-26T06:43:31Z</time>
      </trkpt>
      <trkpt lat="40.90549" lon="-8.49686">
        <ele>230.37</ele>
        <time>2019-05-26T06:43:43Z</time>
      </trkpt>
      <trkpt lat="40.90567" lon="-8.49711">
        <ele>230.37</ele>
        <time>2019-05-26T06:43:57Z</time>
      </trkpt>
      <trkpt lat="40.90573" lon="-8.4973">
        <ele>229.89</ele>
        <time>2019-05-26T06:44:11Z</time>
      </trkpt>
      <trkpt lat="40.90579" lon="-8.49748">
        <ele>229.89</ele>
        <time>2019-05-26T06:44:24Z</time>
      </trkpt>
      <trkpt lat="40.90584" lon="-8.4976">
        <ele>230.85</ele>
        <time>2019-05-26T06:44:40Z</time>
      </trkpt>
      <trkpt lat="40.90585" lon="-8.49763">
        <ele>230.85</ele>
        <time>2019-05-26T06:44:42Z</time>
      </trkpt>
      <trkpt lat="40.90596" lon="-8.49776">
        <ele>231.81</ele>
        <time>2019-05-26T06:44:57Z</time>
      </trkpt>
      <trkpt lat="40.90608" lon="-8.49781">
        <ele>231.33</ele>
        <time>2019-05-26T06:45:09Z</time>
      </trkpt>
      <trkpt lat="40.90612" lon="-8.49783">
        <ele>232.78</ele>
        <time>2019-05-26T06:45:13Z</time>
      </trkpt>
      <trkpt lat="40.90626" lon="-8.49789">
        <ele>234.22</ele>
        <time>2019-05-26T06:45:27Z</time>
      </trkpt>
      <trkpt lat="40.90636" lon="-8.49794">
        <ele>234.7</ele>
        <time>2019-05-26T06:45:38Z</time>
      </trkpt>
      <trkpt lat="40.90648" lon="-8.498">
        <ele>235.66</ele>
        <time>2019-05-26T06:45:50Z</time>
      </trkpt>
      <trkpt lat="40.90662" lon="-8.49809">
        <ele>236.62</ele>
        <time>2019-05-26T06:46:04Z</time>
      </trkpt>
      <trkpt lat="40.90677" lon="-8.49816">
        <ele>237.58</ele>
        <time>2019-05-26T06:46:18Z</time>
      </trkpt>
      <trkpt lat="40.90681" lon="-8.49819">
        <ele>237.58</ele>
        <time>2019-05-26T06:46:22Z</time>
      </trkpt>
      <trkpt lat="40.90695" lon="-8.49829">
        <ele>239.02</ele>
        <time>2019-05-26T06:46:35Z</time>
      </trkpt>
      <trkpt lat="40.90696" lon="-8.4983">
        <ele>238.54</ele>
        <time>2019-05-26T06:46:37Z</time>
      </trkpt>
      <trkpt lat="40.907" lon="-8.49833">
        <ele>239.02</ele>
        <time>2019-05-26T06:46:41Z</time>
      </trkpt>
      <trkpt lat="40.90708" lon="-8.49837">
        <ele>239.51</ele>
        <time>2019-05-26T06:46:49Z</time>
      </trkpt>
      <trkpt lat="40.90715" lon="-8.49837">
        <ele>240.95</ele>
        <time>2019-05-26T06:46:56Z</time>
      </trkpt>
      <trkpt lat="40.90719" lon="-8.49839">
        <ele>240.47</ele>
        <time>2019-05-26T06:47:00Z</time>
      </trkpt>
      <trkpt lat="40.90736" lon="-8.49839">
        <ele>242.39</ele>
        <time>2019-05-26T06:47:16Z</time>
      </trkpt>
      <trkpt lat="40.90751" lon="-8.49836">
        <ele>242.87</ele>
        <time>2019-05-26T06:47:29Z</time>
      </trkpt>
      <trkpt lat="40.90758" lon="-8.4983">
        <ele>242.87</ele>
        <time>2019-05-26T06:47:38Z</time>
      </trkpt>
      <trkpt lat="40.90771" lon="-8.49828">
        <ele>241.43</ele>
        <time>2019-05-26T06:47:48Z</time>
      </trkpt>
      <trkpt lat="40.90786" lon="-8.49843">
        <ele>243.35</ele>
        <time>2019-05-26T06:48:03Z</time>
      </trkpt>
      <trkpt lat="40.90789" lon="-8.49844">
        <ele>243.35</ele>
        <time>2019-05-26T06:48:08Z</time>
      </trkpt>
      <trkpt lat="40.90806" lon="-8.49845">
        <ele>243.83</ele>
        <time>2019-05-26T06:48:22Z</time>
      </trkpt>
      <trkpt lat="40.90812" lon="-8.49845">
        <ele>244.31</ele>
        <time>2019-05-26T06:48:28Z</time>
      </trkpt>
      <trkpt lat="40.90819" lon="-8.49849">
        <ele>243.83</ele>
        <time>2019-05-26T06:48:35Z</time>
      </trkpt>
      <trkpt lat="40.90826" lon="-8.49852">
        <ele>243.35</ele>
        <time>2019-05-26T06:48:41Z</time>
      </trkpt>
      <trkpt lat="40.90833" lon="-8.49855">
        <ele>244.31</ele>
        <time>2019-05-26T06:48:54Z</time>
      </trkpt>
      <trkpt lat="40.90835" lon="-8.49864">
        <ele>242.87</ele>
        <time>2019-05-26T06:49:10Z</time>
      </trkpt>
      <trkpt lat="40.9084" lon="-8.49864">
        <ele>243.35</ele>
        <time>2019-05-26T06:49:30Z</time>
      </trkpt>
      <trkpt lat="40.90849" lon="-8.4986">
        <ele>242.87</ele>
        <time>2019-05-26T06:49:41Z</time>
      </trkpt>
      <trkpt lat="40.90858" lon="-8.49858">
        <ele>242.87</ele>
        <time>2019-05-26T06:49:49Z</time>
      </trkpt>
      <trkpt lat="40.90875" lon="-8.49853">
        <ele>242.87</ele>
        <time>2019-05-26T06:50:04Z</time>
      </trkpt>
      <trkpt lat="40.90889" lon="-8.49849">
        <ele>243.35</ele>
        <time>2019-05-26T06:50:16Z</time>
      </trkpt>
      <trkpt lat="40.90903" lon="-8.49846">
        <ele>242.87</ele>
        <time>2019-05-26T06:50:28Z</time>
      </trkpt>
      <trkpt lat="40.90912" lon="-8.49844">
        <ele>243.35</ele>
        <time>2019-05-26T06:50:35Z</time>
      </trkpt>
      <trkpt lat="40.9093" lon="-8.49843">
        <ele>244.31</ele>
        <time>2019-05-26T06:50:50Z</time>
      </trkpt>
      <trkpt lat="40.90932" lon="-8.49842">
        <ele>243.83</ele>
        <time>2019-05-26T06:50:52Z</time>
      </trkpt>
      <trkpt lat="40.90934" lon="-8.49842">
        <ele>244.31</ele>
        <time>2019-05-26T06:50:54Z</time>
      </trkpt>
      <trkpt lat="40.90947" lon="-8.4984">
        <ele>244.79</ele>
        <time>2019-05-26T06:51:06Z</time>
      </trkpt>
      <trkpt lat="40.9096" lon="-8.49839">
        <ele>244.31</ele>
        <time>2019-05-26T06:51:19Z</time>
      </trkpt>
      <trkpt lat="40.90968" lon="-8.4984">
        <ele>244.79</ele>
        <time>2019-05-26T06:51:25Z</time>
      </trkpt>
      <trkpt lat="40.90982" lon="-8.49836">
        <ele>244.79</ele>
        <time>2019-05-26T06:51:38Z</time>
      </trkpt>
      <trkpt lat="40.9099" lon="-8.49834">
        <ele>245.75</ele>
        <time>2019-05-26T06:51:51Z</time>
      </trkpt>
      <trkpt lat="40.90997" lon="-8.4983">
        <ele>246.23</ele>
        <time>2019-05-26T06:51:56Z</time>
      </trkpt>
      <trkpt lat="40.91003" lon="-8.49827">
        <ele>246.23</ele>
        <time>2019-05-26T06:52:01Z</time>
      </trkpt>
      <trkpt lat="40.91016" lon="-8.49818">
        <ele>246.72</ele>
        <time>2019-05-26T06:52:16Z</time>
      </trkpt>
      <trkpt lat="40.91022" lon="-8.49819">
        <ele>246.23</ele>
        <time>2019-05-26T06:52:29Z</time>
      </trkpt>
      <trkpt lat="40.91036" lon="-8.49817">
        <ele>247.2</ele>
        <time>2019-05-26T06:52:43Z</time>
      </trkpt>
      <trkpt lat="40.91056" lon="-8.49814">
        <ele>248.16</ele>
        <time>2019-05-26T06:52:59Z</time>
      </trkpt>
      <trkpt lat="40.91071" lon="-8.4981">
        <ele>249.12</ele>
        <time>2019-05-26T06:53:12Z</time>
      </trkpt>
      <trkpt lat="40.9108" lon="-8.49807">
        <ele>248.16</ele>
        <time>2019-05-26T06:53:19Z</time>
      </trkpt>
      <trkpt lat="40.91085" lon="-8.49804">
        <ele>249.12</ele>
        <time>2019-05-26T06:53:25Z</time>
      </trkpt>
      <trkpt lat="40.91097" lon="-8.49799">
        <ele>250.08</ele>
        <time>2019-05-26T06:53:35Z</time>
      </trkpt>
      <trkpt lat="40.91101" lon="-8.49795">
        <ele>250.56</ele>
        <time>2019-05-26T06:53:39Z</time>
      </trkpt>
      <trkpt lat="40.91111" lon="-8.49784">
        <ele>250.08</ele>
        <time>2019-05-26T06:53:50Z</time>
      </trkpt>
      <trkpt lat="40.91123" lon="-8.49771">
        <ele>252</ele>
        <time>2019-05-26T06:54:05Z</time>
      </trkpt>
      <trkpt lat="40.91131" lon="-8.49772">
        <ele>251.52</ele>
        <time>2019-05-26T06:54:13Z</time>
      </trkpt>
      <trkpt lat="40.91141" lon="-8.49771">
        <ele>252</ele>
        <time>2019-05-26T06:54:27Z</time>
      </trkpt>
      <trkpt lat="40.91151" lon="-8.49766">
        <ele>252.48</ele>
        <time>2019-05-26T06:54:41Z</time>
      </trkpt>
      <trkpt lat="40.91161" lon="-8.49753">
        <ele>254.41</ele>
        <time>2019-05-26T06:54:56Z</time>
      </trkpt>
      <trkpt lat="40.91162" lon="-8.49751">
        <ele>254.41</ele>
        <time>2019-05-26T06:55:10Z</time>
      </trkpt>
      <trkpt lat="40.91162" lon="-8.49749">
        <ele>254.41</ele>
        <time>2019-05-26T06:55:27Z</time>
      </trkpt>
      <trkpt lat="40.91159" lon="-8.49747">
        <ele>253.93</ele>
        <time>2019-05-26T06:55:46Z</time>
      </trkpt>
      <trkpt lat="40.91165" lon="-8.49746">
        <ele>255.37</ele>
        <time>2019-05-26T06:55:56Z</time>
      </trkpt>
      <trkpt lat="40.91173" lon="-8.49744">
        <ele>256.81</ele>
        <time>2019-05-26T06:56:07Z</time>
      </trkpt>
      <trkpt lat="40.91186" lon="-8.4975">
        <ele>257.77</ele>
        <time>2019-05-26T06:56:19Z</time>
      </trkpt>
      <trkpt lat="40.91195" lon="-8.49755">
        <ele>260.65</ele>
        <time>2019-05-26T06:56:31Z</time>
      </trkpt>
      <trkpt lat="40.91202" lon="-8.49756">
        <ele>260.65</ele>
        <time>2019-05-26T06:56:43Z</time>
      </trkpt>
      <trkpt lat="40.91213" lon="-8.49766">
        <ele>261.14</ele>
        <time>2019-05-26T06:56:56Z</time>
      </trkpt>
      <trkpt lat="40.91232" lon="-8.49776">
        <ele>261.62</ele>
        <time>2019-05-26T06:57:10Z</time>
      </trkpt>
      <trkpt lat="40.9125" lon="-8.49785">
        <ele>261.62</ele>
        <time>2019-05-26T06:57:23Z</time>
      </trkpt>
      <trkpt lat="40.91252" lon="-8.49785">
        <ele>262.1</ele>
        <time>2019-05-26T06:57:26Z</time>
      </trkpt>
      <trkpt lat="40.91256" lon="-8.49785">
        <ele>262.1</ele>
        <time>2019-05-26T06:57:30Z</time>
      </trkpt>
      <trkpt lat="40.91258" lon="-8.49785">
        <ele>262.1</ele>
        <time>2019-05-26T06:57:32Z</time>
      </trkpt>
      <trkpt lat="40.91271" lon="-8.49789">
        <ele>263.54</ele>
        <time>2019-05-26T06:57:47Z</time>
      </trkpt>
      <trkpt lat="40.91287" lon="-8.49795">
        <ele>264.02</ele>
        <time>2019-05-26T06:58:00Z</time>
      </trkpt>
      <trkpt lat="40.91291" lon="-8.49796">
        <ele>264.02</ele>
        <time>2019-05-26T06:58:03Z</time>
      </trkpt>
      <trkpt lat="40.91303" lon="-8.49796">
        <ele>264.02</ele>
        <time>2019-05-26T06:58:15Z</time>
      </trkpt>
      <trkpt lat="40.91306" lon="-8.49797">
        <ele>264.98</ele>
        <time>2019-05-26T06:58:18Z</time>
      </trkpt>
      <trkpt lat="40.91319" lon="-8.49812">
        <ele>265.46</ele>
        <time>2019-05-26T06:58:32Z</time>
      </trkpt>
      <trkpt lat="40.91335" lon="-8.49814">
        <ele>266.42</ele>
        <time>2019-05-26T06:58:45Z</time>
      </trkpt>
      <trkpt lat="40.91348" lon="-8.49815">
        <ele>265.94</ele>
        <time>2019-05-26T06:58:59Z</time>
      </trkpt>
      <trkpt lat="40.91364" lon="-8.49828">
        <ele>267.86</ele>
        <time>2019-05-26T06:59:15Z</time>
      </trkpt>
      <trkpt lat="40.91377" lon="-8.4983">
        <ele>269.31</ele>
        <time>2019-05-26T06:59:25Z</time>
      </trkpt>
      <trkpt lat="40.91382" lon="-8.49832">
        <ele>269.31</ele>
        <time>2019-05-26T06:59:30Z</time>
      </trkpt>
      <trkpt lat="40.914" lon="-8.49835">
        <ele>270.27</ele>
        <time>2019-05-26T06:59:44Z</time>
      </trkpt>
      <trkpt lat="40.91416" lon="-8.49839">
        <ele>270.75</ele>
        <time>2019-05-26T06:59:59Z</time>
      </trkpt>
      <trkpt lat="40.91422" lon="-8.49845">
        <ele>271.23</ele>
        <time>2019-05-26T07:00:09Z</time>
      </trkpt>
      <trkpt lat="40.91427" lon="-8.4985">
        <ele>271.23</ele>
        <time>2019-05-26T07:00:16Z</time>
      </trkpt>
      <trkpt lat="40.91436" lon="-8.49858">
        <ele>272.67</ele>
        <time>2019-05-26T07:00:27Z</time>
      </trkpt>
      <trkpt lat="40.91441" lon="-8.49859">
        <ele>272.19</ele>
        <time>2019-05-26T07:00:32Z</time>
      </trkpt>
      <trkpt lat="40.91455" lon="-8.49864">
        <ele>272.67</ele>
        <time>2019-05-26T07:00:47Z</time>
      </trkpt>
      <trkpt lat="40.91469" lon="-8.49872">
        <ele>274.59</ele>
        <time>2019-05-26T07:01:01Z</time>
      </trkpt>
      <trkpt lat="40.91482" lon="-8.49879">
        <ele>274.59</ele>
        <time>2019-05-26T07:01:13Z</time>
      </trkpt>
      <trkpt lat="40.91495" lon="-8.49884">
        <ele>275.56</ele>
        <time>2019-05-26T07:01:26Z</time>
      </trkpt>
      <trkpt lat="40.91505" lon="-8.49889">
        <ele>276.04</ele>
        <time>2019-05-26T07:01:40Z</time>
      </trkpt>
      <trkpt lat="40.91508" lon="-8.4989">
        <ele>277.48</ele>
        <time>2019-05-26T07:01:42Z</time>
      </trkpt>
      <trkpt lat="40.91516" lon="-8.49892">
        <ele>277.96</ele>
        <time>2019-05-26T07:01:51Z</time>
      </trkpt>
      <trkpt lat="40.91531" lon="-8.49895">
        <ele>278.92</ele>
        <time>2019-05-26T07:02:05Z</time>
      </trkpt>
      <trkpt lat="40.91543" lon="-8.49897">
        <ele>279.88</ele>
        <time>2019-05-26T07:02:19Z</time>
      </trkpt>
      <trkpt lat="40.91554" lon="-8.49898">
        <ele>280.36</ele>
        <time>2019-05-26T07:02:32Z</time>
      </trkpt>
      <trkpt lat="40.91563" lon="-8.499">
        <ele>280.84</ele>
        <time>2019-05-26T07:02:38Z</time>
      </trkpt>
      <trkpt lat="40.91583" lon="-8.49901">
        <ele>280.84</ele>
        <time>2019-05-26T07:02:55Z</time>
      </trkpt>
      <trkpt lat="40.91607" lon="-8.499">
        <ele>281.8</ele>
        <time>2019-05-26T07:03:09Z</time>
      </trkpt>
      <trkpt lat="40.9161" lon="-8.49901">
        <ele>281.8</ele>
        <time>2019-05-26T07:03:12Z</time>
      </trkpt>
      <trkpt lat="40.91616" lon="-8.49899">
        <ele>281.32</ele>
        <time>2019-05-26T07:03:17Z</time>
      </trkpt>
      <trkpt lat="40.91619" lon="-8.49899">
        <ele>281.32</ele>
        <time>2019-05-26T07:03:19Z</time>
      </trkpt>
      <trkpt lat="40.91636" lon="-8.49905">
        <ele>280.84</ele>
        <time>2019-05-26T07:03:34Z</time>
      </trkpt>
      <trkpt lat="40.91656" lon="-8.4991">
        <ele>280.36</ele>
        <time>2019-05-26T07:03:51Z</time>
      </trkpt>
      <trkpt lat="40.91668" lon="-8.49919">
        <ele>279.88</ele>
        <time>2019-05-26T07:04:04Z</time>
      </trkpt>
      <trkpt lat="40.91683" lon="-8.49932">
        <ele>279.4</ele>
        <time>2019-05-26T07:04:18Z</time>
      </trkpt>
      <trkpt lat="40.91687" lon="-8.49936">
        <ele>278.92</ele>
        <time>2019-05-26T07:04:22Z</time>
      </trkpt>
      <trkpt lat="40.91699" lon="-8.49946">
        <ele>278.92</ele>
        <time>2019-05-26T07:04:34Z</time>
      </trkpt>
      <trkpt lat="40.91703" lon="-8.49952">
        <ele>278.44</ele>
        <time>2019-05-26T07:04:39Z</time>
      </trkpt>
      <trkpt lat="40.91709" lon="-8.49969">
        <ele>277.96</ele>
        <time>2019-05-26T07:04:54Z</time>
      </trkpt>
      <trkpt lat="40.91713" lon="-8.49978">
        <ele>277.96</ele>
        <time>2019-05-26T07:05:12Z</time>
      </trkpt>
      <trkpt lat="40.91723" lon="-8.49994">
        <ele>277.96</ele>
        <time>2019-05-26T07:05:27Z</time>
      </trkpt>
      <trkpt lat="40.91744" lon="-8.50007">
        <ele>277</ele>
        <time>2019-05-26T07:05:43Z</time>
      </trkpt>
      <trkpt lat="40.91747" lon="-8.50011">
        <ele>276.52</ele>
        <time>2019-05-26T07:05:46Z</time>
      </trkpt>
      <trkpt lat="40.91753" lon="-8.50018">
        <ele>277.48</ele>
        <time>2019-05-26T07:05:52Z</time>
      </trkpt>
      <trkpt lat="40.91759" lon="-8.50021">
        <ele>277</ele>
        <time>2019-05-26T07:06:07Z</time>
      </trkpt>
      <trkpt lat="40.91764" lon="-8.50024">
        <ele>276.52</ele>
        <time>2019-05-26T07:06:14Z</time>
      </trkpt>
      <trkpt lat="40.91769" lon="-8.50026">
        <ele>276.52</ele>
        <time>2019-05-26T07:06:28Z</time>
      </trkpt>
      <trkpt lat="40.9177" lon="-8.5003">
        <ele>276.52</ele>
        <time>2019-05-26T07:06:44Z</time>
      </trkpt>
      <trkpt lat="40.91779" lon="-8.50041">
        <ele>276.04</ele>
        <time>2019-05-26T07:06:57Z</time>
      </trkpt>
      <trkpt lat="40.91798" lon="-8.50053">
        <ele>275.56</ele>
        <time>2019-05-26T07:07:14Z</time>
      </trkpt>
      <trkpt lat="40.91813" lon="-8.50061">
        <ele>274.59</ele>
        <time>2019-05-26T07:07:28Z</time>
      </trkpt>
      <trkpt lat="40.91832" lon="-8.50064">
        <ele>273.63</ele>
        <time>2019-05-26T07:07:44Z</time>
      </trkpt>
      <trkpt lat="40.91845" lon="-8.50069">
        <ele>273.15</ele>
        <time>2019-05-26T07:07:56Z</time>
      </trkpt>
      <trkpt lat="40.91853" lon="-8.50076">
        <ele>272.67</ele>
        <time>2019-05-26T07:08:04Z</time>
      </trkpt>
      <trkpt lat="40.91855" lon="-8.50078">
        <ele>272.19</ele>
        <time>2019-05-26T07:08:06Z</time>
      </trkpt>
      <trkpt lat="40.91862" lon="-8.50087">
        <ele>271.23</ele>
        <time>2019-05-26T07:08:14Z</time>
      </trkpt>
      <trkpt lat="40.91868" lon="-8.50099">
        <ele>270.75</ele>
        <time>2019-05-26T07:08:23Z</time>
      </trkpt>
      <trkpt lat="40.91876" lon="-8.50118">
        <ele>269.31</ele>
        <time>2019-05-26T07:08:38Z</time>
      </trkpt>
      <trkpt lat="40.91879" lon="-8.50123">
        <ele>269.31</ele>
        <time>2019-05-26T07:08:42Z</time>
      </trkpt>
      <trkpt lat="40.91884" lon="-8.50141">
        <ele>268.35</ele>
        <time>2019-05-26T07:08:56Z</time>
      </trkpt>
      <trkpt lat="40.91891" lon="-8.50161">
        <ele>267.38</ele>
        <time>2019-05-26T07:09:10Z</time>
      </trkpt>
      <trkpt lat="40.91891" lon="-8.50178">
        <ele>266.9</ele>
        <time>2019-05-26T07:09:19Z</time>
      </trkpt>
      <trkpt lat="40.91893" lon="-8.50181">
        <ele>266.42</ele>
        <time>2019-05-26T07:09:21Z</time>
      </trkpt>
      <trkpt lat="40.91899" lon="-8.50206">
        <ele>264.98</ele>
        <time>2019-05-26T07:09:36Z</time>
      </trkpt>
      <trkpt lat="40.91901" lon="-8.50216">
        <ele>264.98</ele>
        <time>2019-05-26T07:09:42Z</time>
      </trkpt>
      <trkpt lat="40.91908" lon="-8.50241">
        <ele>263.54</ele>
        <time>2019-05-26T07:09:57Z</time>
      </trkpt>
      <trkpt lat="40.9191" lon="-8.50256">
        <ele>262.58</ele>
        <time>2019-05-26T07:10:07Z</time>
      </trkpt>
      <trkpt lat="40.9191" lon="-8.5026">
        <ele>262.58</ele>
        <time>2019-05-26T07:10:09Z</time>
      </trkpt>
      <trkpt lat="40.9191" lon="-8.50265">
        <ele>262.1</ele>
        <time>2019-05-26T07:10:13Z</time>
      </trkpt>
      <trkpt lat="40.9191" lon="-8.50271">
        <ele>262.58</ele>
        <time>2019-05-26T07:10:16Z</time>
      </trkpt>
      <trkpt lat="40.91913" lon="-8.50278">
        <ele>262.1</ele>
        <time>2019-05-26T07:10:21Z</time>
      </trkpt>
      <trkpt lat="40.91924" lon="-8.50305">
        <ele>261.14</ele>
        <time>2019-05-26T07:10:39Z</time>
      </trkpt>
      <trkpt lat="40.91938" lon="-8.50326">
        <ele>259.69</ele>
        <time>2019-05-26T07:10:56Z</time>
      </trkpt>
      <trkpt lat="40.91948" lon="-8.50346">
        <ele>258.73</ele>
        <time>2019-05-26T07:11:10Z</time>
      </trkpt>
      <trkpt lat="40.91954" lon="-8.50358">
        <ele>258.25</ele>
        <time>2019-05-26T07:11:19Z</time>
      </trkpt>
      <trkpt lat="40.91965" lon="-8.5038">
        <ele>257.29</ele>
        <time>2019-05-26T07:11:36Z</time>
      </trkpt>
      <trkpt lat="40.91975" lon="-8.50399">
        <ele>256.81</ele>
        <time>2019-05-26T07:11:50Z</time>
      </trkpt>
      <trkpt lat="40.91983" lon="-8.50415">
        <ele>256.81</ele>
        <time>2019-05-26T07:12:02Z</time>
      </trkpt>
      <trkpt lat="40.91989" lon="-8.50422">
        <ele>255.85</ele>
        <time>2019-05-26T07:12:08Z</time>
      </trkpt>
      <trkpt lat="40.91992" lon="-8.50427">
        <ele>255.85</ele>
        <time>2019-05-26T07:12:12Z</time>
      </trkpt>
      <trkpt lat="40.92004" lon="-8.5044">
        <ele>254.89</ele>
        <time>2019-05-26T07:12:28Z</time>
      </trkpt>
      <trkpt lat="40.92017" lon="-8.50452">
        <ele>254.41</ele>
        <time>2019-05-26T07:12:41Z</time>
      </trkpt>
      <trkpt lat="40.92035" lon="-8.50468">
        <ele>253.44</ele>
        <time>2019-05-26T07:12:59Z</time>
      </trkpt>
      <trkpt lat="40.92052" lon="-8.50483">
        <ele>252.48</ele>
        <time>2019-05-26T07:13:15Z</time>
      </trkpt>
      <trkpt lat="40.92066" lon="-8.50501">
        <ele>252.48</ele>
        <time>2019-05-26T07:13:32Z</time>
      </trkpt>
      <trkpt lat="40.92081" lon="-8.50521">
        <ele>251.04</ele>
        <time>2019-05-26T07:13:49Z</time>
      </trkpt>
      <trkpt lat="40.92096" lon="-8.50544">
        <ele>250.08</ele>
        <time>2019-05-26T07:14:07Z</time>
      </trkpt>
      <trkpt lat="40.92116" lon="-8.50563">
        <ele>249.6</ele>
        <time>2019-05-26T07:14:26Z</time>
      </trkpt>
      <trkpt lat="40.92128" lon="-8.50571">
        <ele>249.12</ele>
        <time>2019-05-26T07:14:38Z</time>
      </trkpt>
      <trkpt lat="40.92145" lon="-8.50592">
        <ele>247.68</ele>
        <time>2019-05-26T07:14:55Z</time>
      </trkpt>
      <trkpt lat="40.92151" lon="-8.50597">
        <ele>247.2</ele>
        <time>2019-05-26T07:15:01Z</time>
      </trkpt>
      <trkpt lat="40.92167" lon="-8.50608">
        <ele>246.72</ele>
        <time>2019-05-26T07:15:16Z</time>
      </trkpt>
      <trkpt lat="40.92186" lon="-8.5062">
        <ele>245.75</ele>
        <time>2019-05-26T07:15:33Z</time>
      </trkpt>
      <trkpt lat="40.92199" lon="-8.50631">
        <ele>244.79</ele>
        <time>2019-05-26T07:15:46Z</time>
      </trkpt>
      <trkpt lat="40.92216" lon="-8.5064">
        <ele>244.31</ele>
        <time>2019-05-26T07:16:01Z</time>
      </trkpt>
      <trkpt lat="40.92217" lon="-8.5064">
        <ele>244.79</ele>
        <time>2019-05-26T07:16:02Z</time>
      </trkpt>
      <trkpt lat="40.92221" lon="-8.50641">
        <ele>243.83</ele>
        <time>2019-05-26T07:16:05Z</time>
      </trkpt>
      <trkpt lat="40.92237" lon="-8.50656">
        <ele>242.87</ele>
        <time>2019-05-26T07:16:21Z</time>
      </trkpt>
      <trkpt lat="40.92246" lon="-8.5067">
        <ele>241.91</ele>
        <time>2019-05-26T07:16:32Z</time>
      </trkpt>
      <trkpt lat="40.92249" lon="-8.50676">
        <ele>241.91</ele>
        <time>2019-05-26T07:16:47Z</time>
      </trkpt>
      <trkpt lat="40.92248" lon="-8.50679">
        <ele>241.91</ele>
        <time>2019-05-26T07:17:08Z</time>
      </trkpt>
      <trkpt lat="40.9226" lon="-8.50696">
        <ele>240.47</ele>
        <time>2019-05-26T07:17:24Z</time>
      </trkpt>
      <trkpt lat="40.92273" lon="-8.50713">
        <ele>239.51</ele>
        <time>2019-05-26T07:17:41Z</time>
      </trkpt>
      <trkpt lat="40.92284" lon="-8.50731">
        <ele>238.06</ele>
        <time>2019-05-26T07:17:56Z</time>
      </trkpt>
      <trkpt lat="40.92293" lon="-8.50751">
        <ele>236.14</ele>
        <time>2019-05-26T07:18:12Z</time>
      </trkpt>
      <trkpt lat="40.92309" lon="-8.50776">
        <ele>234.7</ele>
        <time>2019-05-26T07:18:27Z</time>
      </trkpt>
      <trkpt lat="40.92323" lon="-8.50793">
        <ele>233.26</ele>
        <time>2019-05-26T07:18:42Z</time>
      </trkpt>
      <trkpt lat="40.92336" lon="-8.50809">
        <ele>232.3</ele>
        <time>2019-05-26T07:18:56Z</time>
      </trkpt>
      <trkpt lat="40.92336" lon="-8.5082">
        <ele>232.78</ele>
        <time>2019-05-26T07:19:09Z</time>
      </trkpt>
      <trkpt lat="40.92339" lon="-8.50823">
        <ele>231.81</ele>
        <time>2019-05-26T07:19:32Z</time>
      </trkpt>
      <trkpt lat="40.92347" lon="-8.50826">
        <ele>230.85</ele>
        <time>2019-05-26T07:19:46Z</time>
      </trkpt>
      <trkpt lat="40.92348" lon="-8.50826">
        <ele>231.33</ele>
        <time>2019-05-26T07:19:47Z</time>
      </trkpt>
      <trkpt lat="40.92363" lon="-8.50826">
        <ele>230.37</ele>
        <time>2019-05-26T07:20:00Z</time>
      </trkpt>
      <trkpt lat="40.92373" lon="-8.50831">
        <ele>229.89</ele>
        <time>2019-05-26T07:20:13Z</time>
      </trkpt>
      <trkpt lat="40.92389" lon="-8.50836">
        <ele>228.93</ele>
        <time>2019-05-26T07:20:28Z</time>
      </trkpt>
      <trkpt lat="40.92412" lon="-8.50848">
        <ele>227.01</ele>
        <time>2019-05-26T07:20:45Z</time>
      </trkpt>
      <trkpt lat="40.92435" lon="-8.50862">
        <ele>226.05</ele>
        <time>2019-05-26T07:21:03Z</time>
      </trkpt>
      <trkpt lat="40.92445" lon="-8.50869">
        <ele>224.61</ele>
        <time>2019-05-26T07:21:17Z</time>
      </trkpt>
      <trkpt lat="40.92459" lon="-8.5088">
        <ele>224.12</ele>
        <time>2019-05-26T07:21:30Z</time>
      </trkpt>
      <trkpt lat="40.92476" lon="-8.50891">
        <ele>222.68</ele>
        <time>2019-05-26T07:21:45Z</time>
      </trkpt>
      <trkpt lat="40.92489" lon="-8.50904">
        <ele>222.2</ele>
        <time>2019-05-26T07:21:58Z</time>
      </trkpt>
      <trkpt lat="40.92494" lon="-8.50907">
        <ele>221.72</ele>
        <time>2019-05-26T07:22:02Z</time>
      </trkpt>
      <trkpt lat="40.9251" lon="-8.50918">
        <ele>220.28</ele>
        <time>2019-05-26T07:22:17Z</time>
      </trkpt>
      <trkpt lat="40.92518" lon="-8.50935">
        <ele>219.8</ele>
        <time>2019-05-26T07:22:29Z</time>
      </trkpt>
      <trkpt lat="40.92519" lon="-8.50941">
        <ele>219.32</ele>
        <time>2019-05-26T07:22:33Z</time>
      </trkpt>
      <trkpt lat="40.9252" lon="-8.50959">
        <ele>218.84</ele>
        <time>2019-05-26T07:22:47Z</time>
      </trkpt>
      <trkpt lat="40.92516" lon="-8.50975">
        <ele>218.84</ele>
        <time>2019-05-26T07:22:56Z</time>
      </trkpt>
      <trkpt lat="40.92504" lon="-8.50999">
        <ele>217.88</ele>
        <time>2019-05-26T07:23:12Z</time>
      </trkpt>
      <trkpt lat="40.92496" lon="-8.51022">
        <ele>217.88</ele>
        <time>2019-05-26T07:23:27Z</time>
      </trkpt>
      <trkpt lat="40.92492" lon="-8.51032">
        <ele>217.88</ele>
        <time>2019-05-26T07:23:38Z</time>
      </trkpt>
      <trkpt lat="40.92485" lon="-8.51051">
        <ele>217.88</ele>
        <time>2019-05-26T07:23:52Z</time>
      </trkpt>
      <trkpt lat="40.92475" lon="-8.51072">
        <ele>217.4</ele>
        <time>2019-05-26T07:24:07Z</time>
      </trkpt>
      <trkpt lat="40.92468" lon="-8.51095">
        <ele>216.91</ele>
        <time>2019-05-26T07:24:22Z</time>
      </trkpt>
      <trkpt lat="40.92474" lon="-8.51108">
        <ele>217.4</ele>
        <time>2019-05-26T07:24:33Z</time>
      </trkpt>
      <trkpt lat="40.92481" lon="-8.51117">
        <ele>218.84</ele>
        <time>2019-05-26T07:24:49Z</time>
      </trkpt>
      <trkpt lat="40.92479" lon="-8.51116">
        <ele>218.84</ele>
        <time>2019-05-26T07:25:06Z</time>
      </trkpt>
      <trkpt lat="40.92488" lon="-8.51131">
        <ele>219.32</ele>
        <time>2019-05-26T07:25:21Z</time>
      </trkpt>
      <trkpt lat="40.92498" lon="-8.51149">
        <ele>220.76</ele>
        <time>2019-05-26T07:25:36Z</time>
      </trkpt>
      <trkpt lat="40.92515" lon="-8.51169">
        <ele>220.76</ele>
        <time>2019-05-26T07:25:53Z</time>
      </trkpt>
      <trkpt lat="40.92523" lon="-8.51182">
        <ele>222.68</ele>
        <time>2019-05-26T07:26:04Z</time>
      </trkpt>
      <trkpt lat="40.92534" lon="-8.51201">
        <ele>222.68</ele>
        <time>2019-05-26T07:26:19Z</time>
      </trkpt>
      <trkpt lat="40.92544" lon="-8.51216">
        <ele>225.09</ele>
        <time>2019-05-26T07:26:34Z</time>
      </trkpt>
      <trkpt lat="40.92555" lon="-8.51222">
        <ele>225.57</ele>
        <time>2019-05-26T07:26:48Z</time>
      </trkpt>
      <trkpt lat="40.92569" lon="-8.51216">
        <ele>226.53</ele>
        <time>2019-05-26T07:27:01Z</time>
      </trkpt>
      <trkpt lat="40.92578" lon="-8.51211">
        <ele>227.49</ele>
        <time>2019-05-26T07:27:12Z</time>
      </trkpt>
      <trkpt lat="40.92589" lon="-8.51204">
        <ele>228.45</ele>
        <time>2019-05-26T07:27:27Z</time>
      </trkpt>
      <trkpt lat="40.92601" lon="-8.51196">
        <ele>228.93</ele>
        <time>2019-05-26T07:27:40Z</time>
      </trkpt>
      <trkpt lat="40.92614" lon="-8.51194">
        <ele>231.33</ele>
        <time>2019-05-26T07:27:55Z</time>
      </trkpt>
      <trkpt lat="40.92626" lon="-8.51187">
        <ele>232.78</ele>
        <time>2019-05-26T07:28:09Z</time>
      </trkpt>
      <trkpt lat="40.92633" lon="-8.51182">
        <ele>233.26</ele>
        <time>2019-05-26T07:28:25Z</time>
      </trkpt>
      <trkpt lat="40.9264" lon="-8.51176">
        <ele>234.7</ele>
        <time>2019-05-26T07:28:35Z</time>
      </trkpt>
      <trkpt lat="40.92654" lon="-8.51169">
        <ele>236.14</ele>
        <time>2019-05-26T07:28:48Z</time>
      </trkpt>
      <trkpt lat="40.92659" lon="-8.51165">
        <ele>235.18</ele>
        <time>2019-05-26T07:28:53Z</time>
      </trkpt>
      <trkpt lat="40.9267" lon="-8.51148">
        <ele>237.58</ele>
        <time>2019-05-26T07:29:08Z</time>
      </trkpt>
      <trkpt lat="40.92678" lon="-8.51133">
        <ele>238.54</ele>
        <time>2019-05-26T07:29:22Z</time>
      </trkpt>
      <trkpt lat="40.92679" lon="-8.51132">
        <ele>238.54</ele>
        <time>2019-05-26T07:29:23Z</time>
      </trkpt>
      <trkpt lat="40.92689" lon="-8.51118">
        <ele>239.99</ele>
        <time>2019-05-26T07:29:37Z</time>
      </trkpt>
      <trkpt lat="40.92692" lon="-8.51114">
        <ele>240.47</ele>
        <time>2019-05-26T07:29:41Z</time>
      </trkpt>
      <trkpt lat="40.92703" lon="-8.51097">
        <ele>241.91</ele>
        <time>2019-05-26T07:29:58Z</time>
      </trkpt>
      <trkpt lat="40.92705" lon="-8.5108">
        <ele>243.35</ele>
        <time>2019-05-26T07:30:11Z</time>
      </trkpt>
      <trkpt lat="40.9271" lon="-8.51076">
        <ele>243.83</ele>
        <time>2019-05-26T07:30:15Z</time>
      </trkpt>
      <trkpt lat="40.92716" lon="-8.51071">
        <ele>243.83</ele>
        <time>2019-05-26T07:30:21Z</time>
      </trkpt>
      <trkpt lat="40.9272" lon="-8.51063">
        <ele>244.79</ele>
        <time>2019-05-26T07:30:29Z</time>
      </trkpt>
      <trkpt lat="40.92725" lon="-8.51049">
        <ele>245.75</ele>
        <time>2019-05-26T07:30:42Z</time>
      </trkpt>
      <trkpt lat="40.92738" lon="-8.51032">
        <ele>247.2</ele>
        <time>2019-05-26T07:30:56Z</time>
      </trkpt>
      <trkpt lat="40.92747" lon="-8.51019">
        <ele>247.68</ele>
        <time>2019-05-26T07:31:09Z</time>
      </trkpt>
      <trkpt lat="40.92755" lon="-8.51">
        <ele>248.16</ele>
        <time>2019-05-26T07:31:23Z</time>
      </trkpt>
      <trkpt lat="40.92756" lon="-8.50997">
        <ele>249.12</ele>
        <time>2019-05-26T07:31:25Z</time>
      </trkpt>
      <trkpt lat="40.92766" lon="-8.50979">
        <ele>249.12</ele>
        <time>2019-05-26T07:31:39Z</time>
      </trkpt>
      <trkpt lat="40.92779" lon="-8.50961">
        <ele>249.6</ele>
        <time>2019-05-26T07:31:54Z</time>
      </trkpt>
      <trkpt lat="40.9278" lon="-8.50959">
        <ele>250.08</ele>
        <time>2019-05-26T07:31:55Z</time>
      </trkpt>
      <trkpt lat="40.92791" lon="-8.5094">
        <ele>251.04</ele>
        <time>2019-05-26T07:32:10Z</time>
      </trkpt>
      <trkpt lat="40.92797" lon="-8.5093">
        <ele>251.52</ele>
        <time>2019-05-26T07:32:18Z</time>
      </trkpt>
      <trkpt lat="40.92809" lon="-8.50911">
        <ele>252</ele>
        <time>2019-05-26T07:32:34Z</time>
      </trkpt>
      <trkpt lat="40.92815" lon="-8.509">
        <ele>252.48</ele>
        <time>2019-05-26T07:32:44Z</time>
      </trkpt>
      <trkpt lat="40.92823" lon="-8.50887">
        <ele>254.89</ele>
        <time>2019-05-26T07:32:56Z</time>
      </trkpt>
      <trkpt lat="40.92833" lon="-8.50871">
        <ele>256.81</ele>
        <time>2019-05-26T07:33:11Z</time>
      </trkpt>
      <trkpt lat="40.92838" lon="-8.50863">
        <ele>258.25</ele>
        <time>2019-05-26T07:33:20Z</time>
      </trkpt>
      <trkpt lat="40.92847" lon="-8.50851">
        <ele>258.73</ele>
        <time>2019-05-26T07:33:33Z</time>
      </trkpt>
      <trkpt lat="40.92856" lon="-8.50834">
        <ele>260.17</ele>
        <time>2019-05-26T07:33:49Z</time>
      </trkpt>
      <trkpt lat="40.92864" lon="-8.50822">
        <ele>263.54</ele>
        <time>2019-05-26T07:34:04Z</time>
      </trkpt>
      <trkpt lat="40.92865" lon="-8.50821">
        <ele>263.06</ele>
        <time>2019-05-26T07:34:05Z</time>
      </trkpt>
      <trkpt lat="40.92874" lon="-8.5081">
        <ele>264.02</ele>
        <time>2019-05-26T07:34:18Z</time>
      </trkpt>
      <trkpt lat="40.92885" lon="-8.50789">
        <ele>265.94</ele>
        <time>2019-05-26T07:34:35Z</time>
      </trkpt>
      <trkpt lat="40.92895" lon="-8.50772">
        <ele>266.9</ele>
        <time>2019-05-26T07:34:50Z</time>
      </trkpt>
      <trkpt lat="40.92904" lon="-8.5076">
        <ele>270.27</ele>
        <time>2019-05-26T07:35:03Z</time>
      </trkpt>
      <trkpt lat="40.92905" lon="-8.50755">
        <ele>269.79</ele>
        <time>2019-05-26T07:35:06Z</time>
      </trkpt>
      <trkpt lat="40.92908" lon="-8.50751">
        <ele>270.27</ele>
        <time>2019-05-26T07:35:10Z</time>
      </trkpt>
      <trkpt lat="40.92918" lon="-8.50732">
        <ele>271.71</ele>
        <time>2019-05-26T07:35:27Z</time>
      </trkpt>
      <trkpt lat="40.92927" lon="-8.50718">
        <ele>273.15</ele>
        <time>2019-05-26T07:35:41Z</time>
      </trkpt>
      <trkpt lat="40.92937" lon="-8.50704">
        <ele>275.07</ele>
        <time>2019-05-26T07:35:56Z</time>
      </trkpt>
      <trkpt lat="40.92945" lon="-8.50684">
        <ele>277</ele>
        <time>2019-05-26T07:36:12Z</time>
      </trkpt>
      <trkpt lat="40.92954" lon="-8.50666">
        <ele>277.48</ele>
        <time>2019-05-26T07:36:26Z</time>
      </trkpt>
      <trkpt lat="40.92956" lon="-8.50663">
        <ele>278.92</ele>
        <time>2019-05-26T07:36:29Z</time>
      </trkpt>
      <trkpt lat="40.92958" lon="-8.50658">
        <ele>278.92</ele>
        <time>2019-05-26T07:36:34Z</time>
      </trkpt>
      <trkpt lat="40.9296" lon="-8.50648">
        <ele>280.84</ele>
        <time>2019-05-26T07:36:41Z</time>
      </trkpt>
      <trkpt lat="40.92963" lon="-8.50639">
        <ele>281.32</ele>
        <time>2019-05-26T07:36:49Z</time>
      </trkpt>
      <trkpt lat="40.92966" lon="-8.50631">
        <ele>281.8</ele>
        <time>2019-05-26T07:36:55Z</time>
      </trkpt>
      <trkpt lat="40.92971" lon="-8.50614">
        <ele>281.8</ele>
        <time>2019-05-26T07:37:09Z</time>
      </trkpt>
      <trkpt lat="40.92972" lon="-8.5061">
        <ele>283.73</ele>
        <time>2019-05-26T07:37:12Z</time>
      </trkpt>
      <trkpt lat="40.92977" lon="-8.50592">
        <ele>284.69</ele>
        <time>2019-05-26T07:37:25Z</time>
      </trkpt>
      <trkpt lat="40.92982" lon="-8.50573">
        <ele>286.13</ele>
        <time>2019-05-26T07:37:40Z</time>
      </trkpt>
      <trkpt lat="40.92987" lon="-8.50556">
        <ele>287.57</ele>
        <time>2019-05-26T07:37:53Z</time>
      </trkpt>
      <trkpt lat="40.92993" lon="-8.50536">
        <ele>289.49</ele>
        <time>2019-05-26T07:38:08Z</time>
      </trkpt>
      <trkpt lat="40.92998" lon="-8.50516">
        <ele>290.94</ele>
        <time>2019-05-26T07:38:22Z</time>
      </trkpt>
      <trkpt lat="40.93009" lon="-8.50496">
        <ele>291.9</ele>
        <time>2019-05-26T07:38:37Z</time>
      </trkpt>
      <trkpt lat="40.93013" lon="-8.50484">
        <ele>293.34</ele>
        <time>2019-05-26T07:38:47Z</time>
      </trkpt>
      <trkpt lat="40.9302" lon="-8.50469">
        <ele>295.26</ele>
        <time>2019-05-26T07:39:01Z</time>
      </trkpt>
      <trkpt lat="40.93023" lon="-8.50464">
        <ele>294.78</ele>
        <time>2019-05-26T07:39:07Z</time>
      </trkpt>
      <trkpt lat="40.93027" lon="-8.50448">
        <ele>296.7</ele>
        <time>2019-05-26T07:39:19Z</time>
      </trkpt>
      <trkpt lat="40.93027" lon="-8.50447">
        <ele>296.22</ele>
        <time>2019-05-26T07:39:20Z</time>
      </trkpt>
      <trkpt lat="40.93028" lon="-8.50444">
        <ele>297.18</ele>
        <time>2019-05-26T07:39:22Z</time>
      </trkpt>
      <trkpt lat="40.9303" lon="-8.50435">
        <ele>298.15</ele>
        <time>2019-05-26T07:39:28Z</time>
      </trkpt>
      <trkpt lat="40.93043" lon="-8.5042">
        <ele>298.15</ele>
        <time>2019-05-26T07:39:43Z</time>
      </trkpt>
      <trkpt lat="40.9305" lon="-8.50415">
        <ele>298.15</ele>
        <time>2019-05-26T07:39:51Z</time>
      </trkpt>
      <trkpt lat="40.93055" lon="-8.50414">
        <ele>299.11</ele>
        <time>2019-05-26T07:40:04Z</time>
      </trkpt>
      <trkpt lat="40.93062" lon="-8.50409">
        <ele>299.59</ele>
        <time>2019-05-26T07:40:17Z</time>
      </trkpt>
      <trkpt lat="40.93061" lon="-8.50411">
        <ele>300.07</ele>
        <time>2019-05-26T07:40:42Z</time>
      </trkpt>
      <trkpt lat="40.9306" lon="-8.50411">
        <ele>299.59</ele>
        <time>2019-05-26T07:41:07Z</time>
      </trkpt>
      <trkpt lat="40.93072" lon="-8.50411">
        <ele>300.55</ele>
        <time>2019-05-26T07:41:21Z</time>
      </trkpt>
      <trkpt lat="40.93089" lon="-8.50413">
        <ele>300.07</ele>
        <time>2019-05-26T07:41:37Z</time>
      </trkpt>
      <trkpt lat="40.93104" lon="-8.50416">
        <ele>300.55</ele>
        <time>2019-05-26T07:41:50Z</time>
      </trkpt>
      <trkpt lat="40.93107" lon="-8.50418">
        <ele>300.55</ele>
        <time>2019-05-26T07:41:53Z</time>
      </trkpt>
      <trkpt lat="40.93128" lon="-8.50422">
        <ele>301.51</ele>
        <time>2019-05-26T07:42:09Z</time>
      </trkpt>
      <trkpt lat="40.9313" lon="-8.50423">
        <ele>301.99</ele>
        <time>2019-05-26T07:42:11Z</time>
      </trkpt>
      <trkpt lat="40.93132" lon="-8.50423">
        <ele>301.99</ele>
        <time>2019-05-26T07:42:13Z</time>
      </trkpt>
      <trkpt lat="40.93156" lon="-8.5043">
        <ele>301.51</ele>
        <time>2019-05-26T07:42:30Z</time>
      </trkpt>
      <trkpt lat="40.93173" lon="-8.50432">
        <ele>301.51</ele>
        <time>2019-05-26T07:42:45Z</time>
      </trkpt>
      <trkpt lat="40.93185" lon="-8.50435">
        <ele>301.99</ele>
        <time>2019-05-26T07:42:58Z</time>
      </trkpt>
      <trkpt lat="40.93186" lon="-8.50436">
        <ele>302.47</ele>
        <time>2019-05-26T07:43:11Z</time>
      </trkpt>
      <trkpt lat="40.9319" lon="-8.50436">
        <ele>302.47</ele>
        <time>2019-05-26T07:43:25Z</time>
      </trkpt>
      <trkpt lat="40.93196" lon="-8.50438">
        <ele>301.99</ele>
        <time>2019-05-26T07:43:38Z</time>
      </trkpt>
      <trkpt lat="40.93208" lon="-8.5044">
        <ele>301.03</ele>
        <time>2019-05-26T07:43:51Z</time>
      </trkpt>
      <trkpt lat="40.93223" lon="-8.50444">
        <ele>300.55</ele>
        <time>2019-05-26T07:44:03Z</time>
      </trkpt>
      <trkpt lat="40.93244" lon="-8.50449">
        <ele>300.07</ele>
        <time>2019-05-26T07:44:19Z</time>
      </trkpt>
      <trkpt lat="40.93265" lon="-8.50456">
        <ele>299.11</ele>
        <time>2019-05-26T07:44:37Z</time>
      </trkpt>
      <trkpt lat="40.9328" lon="-8.5046">
        <ele>298.63</ele>
        <time>2019-05-26T07:44:52Z</time>
      </trkpt>
      <trkpt lat="40.93294" lon="-8.50463">
        <ele>297.67</ele>
        <time>2019-05-26T07:45:04Z</time>
      </trkpt>
      <trkpt lat="40.93314" lon="-8.50468">
        <ele>295.74</ele>
        <time>2019-05-26T07:45:19Z</time>
      </trkpt>
      <trkpt lat="40.93331" lon="-8.50471">
        <ele>296.7</ele>
        <time>2019-05-26T07:45:33Z</time>
      </trkpt>
      <trkpt lat="40.9335" lon="-8.50475">
        <ele>295.74</ele>
        <time>2019-05-26T07:45:48Z</time>
      </trkpt>
      <trkpt lat="40.93367" lon="-8.5048">
        <ele>295.26</ele>
        <time>2019-05-26T07:46:03Z</time>
      </trkpt>
      <trkpt lat="40.93384" lon="-8.50484">
        <ele>295.74</ele>
        <time>2019-05-26T07:46:18Z</time>
      </trkpt>
      <trkpt lat="40.93389" lon="-8.50485">
        <ele>295.26</ele>
        <time>2019-05-26T07:46:22Z</time>
      </trkpt>
      <trkpt lat="40.93407" lon="-8.5049">
        <ele>294.3</ele>
        <time>2019-05-26T07:46:36Z</time>
      </trkpt>
      <trkpt lat="40.93426" lon="-8.50496">
        <ele>294.78</ele>
        <time>2019-05-26T07:46:49Z</time>
      </trkpt>
      <trkpt lat="40.93434" lon="-8.50499">
        <ele>295.26</ele>
        <time>2019-05-26T07:47:01Z</time>
      </trkpt>
      <trkpt lat="40.93449" lon="-8.50504">
        <ele>295.26</ele>
        <time>2019-05-26T07:47:14Z</time>
      </trkpt>
      <trkpt lat="40.93467" lon="-8.50514">
        <ele>295.74</ele>
        <time>2019-05-26T07:47:29Z</time>
      </trkpt>
      <trkpt lat="40.93481" lon="-8.50524">
        <ele>295.74</ele>
        <time>2019-05-26T07:47:43Z</time>
      </trkpt>
      <trkpt lat="40.93497" lon="-8.50537">
        <ele>295.74</ele>
        <time>2019-05-26T07:47:59Z</time>
      </trkpt>
      <trkpt lat="40.93512" lon="-8.50551">
        <ele>296.7</ele>
        <time>2019-05-26T07:48:14Z</time>
      </trkpt>
      <trkpt lat="40.93525" lon="-8.50564">
        <ele>297.18</ele>
        <time>2019-05-26T07:48:29Z</time>
      </trkpt>
      <trkpt lat="40.93535" lon="-8.50574">
        <ele>297.18</ele>
        <time>2019-05-26T07:48:41Z</time>
      </trkpt>
      <trkpt lat="40.93547" lon="-8.50585">
        <ele>297.18</ele>
        <time>2019-05-26T07:48:53Z</time>
      </trkpt>
      <trkpt lat="40.93548" lon="-8.50587">
        <ele>297.67</ele>
        <time>2019-05-26T07:48:55Z</time>
      </trkpt>
      <trkpt lat="40.93565" lon="-8.50604">
        <ele>297.18</ele>
        <time>2019-05-26T07:49:13Z</time>
      </trkpt>
      <trkpt lat="40.93582" lon="-8.50618">
        <ele>298.15</ele>
        <time>2019-05-26T07:49:29Z</time>
      </trkpt>
      <trkpt lat="40.93596" lon="-8.50633">
        <ele>299.11</ele>
        <time>2019-05-26T07:49:45Z</time>
      </trkpt>
      <trkpt lat="40.93604" lon="-8.50639">
        <ele>299.59</ele>
        <time>2019-05-26T07:49:57Z</time>
      </trkpt>
      <trkpt lat="40.93616" lon="-8.50649">
        <ele>299.59</ele>
        <time>2019-05-26T07:50:11Z</time>
      </trkpt>
      <trkpt lat="40.93632" lon="-8.50661">
        <ele>299.59</ele>
        <time>2019-05-26T07:50:26Z</time>
      </trkpt>
      <trkpt lat="40.93648" lon="-8.50673">
        <ele>299.11</ele>
        <time>2019-05-26T07:50:41Z</time>
      </trkpt>
      <trkpt lat="40.93664" lon="-8.50684">
        <ele>299.11</ele>
        <time>2019-05-26T07:50:55Z</time>
      </trkpt>
      <trkpt lat="40.9368" lon="-8.50694">
        <ele>298.63</ele>
        <time>2019-05-26T07:51:09Z</time>
      </trkpt>
      <trkpt lat="40.93695" lon="-8.50704">
        <ele>297.67</ele>
        <time>2019-05-26T07:51:23Z</time>
      </trkpt>
      <trkpt lat="40.93716" lon="-8.50714">
        <ele>297.18</ele>
        <time>2019-05-26T07:51:40Z</time>
      </trkpt>
      <trkpt lat="40.93736" lon="-8.50726">
        <ele>296.7</ele>
        <time>2019-05-26T07:51:58Z</time>
      </trkpt>
      <trkpt lat="40.93754" lon="-8.50735">
        <ele>296.22</ele>
        <time>2019-05-26T07:52:13Z</time>
      </trkpt>
      <trkpt lat="40.93774" lon="-8.50746">
        <ele>296.7</ele>
        <time>2019-05-26T07:52:30Z</time>
      </trkpt>
      <trkpt lat="40.93789" lon="-8.50754">
        <ele>296.22</ele>
        <time>2019-05-26T07:52:43Z</time>
      </trkpt>
      <trkpt lat="40.93807" lon="-8.50762">
        <ele>295.74</ele>
        <time>2019-05-26T07:52:59Z</time>
      </trkpt>
      <trkpt lat="40.93825" lon="-8.50768">
        <ele>295.26</ele>
        <time>2019-05-26T07:53:14Z</time>
      </trkpt>
      <trkpt lat="40.93841" lon="-8.50773">
        <ele>294.3</ele>
        <time>2019-05-26T07:53:28Z</time>
      </trkpt>
      <trkpt lat="40.93844" lon="-8.50774">
        <ele>294.78</ele>
        <time>2019-05-26T07:53:31Z</time>
      </trkpt>
      <trkpt lat="40.93849" lon="-8.50776">
        <ele>294.3</ele>
        <time>2019-05-26T07:53:41Z</time>
      </trkpt>
      <trkpt lat="40.9387" lon="-8.50782">
        <ele>293.34</ele>
        <time>2019-05-26T07:53:58Z</time>
      </trkpt>
      <trkpt lat="40.93876" lon="-8.50785">
        <ele>293.82</ele>
        <time>2019-05-26T07:54:05Z</time>
      </trkpt>
      <trkpt lat="40.93892" lon="-8.50785">
        <ele>293.34</ele>
        <time>2019-05-26T07:54:20Z</time>
      </trkpt>
      <trkpt lat="40.93914" lon="-8.50787">
        <ele>292.86</ele>
        <time>2019-05-26T07:54:37Z</time>
      </trkpt>
      <trkpt lat="40.93931" lon="-8.5079">
        <ele>293.82</ele>
        <time>2019-05-26T07:54:53Z</time>
      </trkpt>
      <trkpt lat="40.93946" lon="-8.50795">
        <ele>292.86</ele>
        <time>2019-05-26T07:55:04Z</time>
      </trkpt>
      <trkpt lat="40.93966" lon="-8.50802">
        <ele>293.82</ele>
        <time>2019-05-26T07:55:20Z</time>
      </trkpt>
      <trkpt lat="40.93989" lon="-8.50807">
        <ele>294.3</ele>
        <time>2019-05-26T07:55:39Z</time>
      </trkpt>
      <trkpt lat="40.94005" lon="-8.50812">
        <ele>295.26</ele>
        <time>2019-05-26T07:55:53Z</time>
      </trkpt>
      <trkpt lat="40.94021" lon="-8.50816">
        <ele>295.74</ele>
        <time>2019-05-26T07:56:08Z</time>
      </trkpt>
      <trkpt lat="40.94035" lon="-8.50817">
        <ele>295.26</ele>
        <time>2019-05-26T07:56:20Z</time>
      </trkpt>
      <trkpt lat="40.94052" lon="-8.50821">
        <ele>295.74</ele>
        <time>2019-05-26T07:56:34Z</time>
      </trkpt>
      <trkpt lat="40.94066" lon="-8.50825">
        <ele>295.74</ele>
        <time>2019-05-26T07:56:48Z</time>
      </trkpt>
      <trkpt lat="40.94087" lon="-8.5083">
        <ele>296.7</ele>
        <time>2019-05-26T07:57:04Z</time>
      </trkpt>
      <trkpt lat="40.94111" lon="-8.50835">
        <ele>297.18</ele>
        <time>2019-05-26T07:57:24Z</time>
      </trkpt>
      <trkpt lat="40.94128" lon="-8.5084">
        <ele>297.67</ele>
        <time>2019-05-26T07:57:39Z</time>
      </trkpt>
      <trkpt lat="40.9415" lon="-8.50845">
        <ele>299.11</ele>
        <time>2019-05-26T07:57:58Z</time>
      </trkpt>
      <trkpt lat="40.94172" lon="-8.5085">
        <ele>299.59</ele>
        <time>2019-05-26T07:58:16Z</time>
      </trkpt>
      <trkpt lat="40.94192" lon="-8.50855">
        <ele>300.07</ele>
        <time>2019-05-26T07:58:33Z</time>
      </trkpt>
      <trkpt lat="40.94212" lon="-8.5086">
        <ele>300.55</ele>
        <time>2019-05-26T07:58:49Z</time>
      </trkpt>
      <trkpt lat="40.94228" lon="-8.50866">
        <ele>301.51</ele>
        <time>2019-05-26T07:59:04Z</time>
      </trkpt>
      <trkpt lat="40.94244" lon="-8.50869">
        <ele>301.99</ele>
        <time>2019-05-26T07:59:20Z</time>
      </trkpt>
      <trkpt lat="40.94264" lon="-8.50872">
        <ele>301.99</ele>
        <time>2019-05-26T07:59:38Z</time>
      </trkpt>
      <trkpt lat="40.94283" lon="-8.50875">
        <ele>302.47</ele>
        <time>2019-05-26T07:59:54Z</time>
      </trkpt>
      <trkpt lat="40.94293" lon="-8.50878">
        <ele>301.99</ele>
        <time>2019-05-26T08:00:07Z</time>
      </trkpt>
      <trkpt lat="40.9431" lon="-8.50882">
        <ele>303.91</ele>
        <time>2019-05-26T08:00:22Z</time>
      </trkpt>
      <trkpt lat="40.94333" lon="-8.50888">
        <ele>302.47</ele>
        <time>2019-05-26T08:00:40Z</time>
      </trkpt>
      <trkpt lat="40.94351" lon="-8.50893">
        <ele>302.95</ele>
        <time>2019-05-26T08:00:57Z</time>
      </trkpt>
      <trkpt lat="40.94366" lon="-8.50899">
        <ele>302.47</ele>
        <time>2019-05-26T08:01:13Z</time>
      </trkpt>
      <trkpt lat="40.94374" lon="-8.50901">
        <ele>301.99</ele>
        <time>2019-05-26T08:01:28Z</time>
      </trkpt>
      <trkpt lat="40.94399" lon="-8.50913">
        <ele>301.99</ele>
        <time>2019-05-26T08:01:43Z</time>
      </trkpt>
      <trkpt lat="40.94419" lon="-8.50927">
        <ele>301.51</ele>
        <time>2019-05-26T08:01:59Z</time>
      </trkpt>
      <trkpt lat="40.94439" lon="-8.50943">
        <ele>301.99</ele>
        <time>2019-05-26T08:02:16Z</time>
      </trkpt>
      <trkpt lat="40.9445" lon="-8.50949">
        <ele>302.47</ele>
        <time>2019-05-26T08:02:28Z</time>
      </trkpt>
      <trkpt lat="40.94466" lon="-8.5096">
        <ele>301.99</ele>
        <time>2019-05-26T08:02:44Z</time>
      </trkpt>
      <trkpt lat="40.94477" lon="-8.50968">
        <ele>301.99</ele>
        <time>2019-05-26T08:02:55Z</time>
      </trkpt>
      <trkpt lat="40.94492" lon="-8.50978">
        <ele>302.95</ele>
        <time>2019-05-26T08:03:11Z</time>
      </trkpt>
      <trkpt lat="40.94504" lon="-8.50986">
        <ele>303.43</ele>
        <time>2019-05-26T08:03:24Z</time>
      </trkpt>
      <trkpt lat="40.94521" lon="-8.50997">
        <ele>302.95</ele>
        <time>2019-05-26T08:03:39Z</time>
      </trkpt>
      <trkpt lat="40.94544" lon="-8.51013">
        <ele>303.91</ele>
        <time>2019-05-26T08:03:57Z</time>
      </trkpt>
      <trkpt lat="40.94548" lon="-8.51016">
        <ele>304.39</ele>
        <time>2019-05-26T08:04:11Z</time>
      </trkpt>
      <trkpt lat="40.9456" lon="-8.51024">
        <ele>304.39</ele>
        <time>2019-05-26T08:04:24Z</time>
      </trkpt>
      <trkpt lat="40.94576" lon="-8.51032">
        <ele>304.88</ele>
        <time>2019-05-26T08:04:38Z</time>
      </trkpt>
      <trkpt lat="40.94592" lon="-8.51042">
        <ele>306.32</ele>
        <time>2019-05-26T08:04:53Z</time>
      </trkpt>
      <trkpt lat="40.94607" lon="-8.51052">
        <ele>306.8</ele>
        <time>2019-05-26T08:05:07Z</time>
      </trkpt>
      <trkpt lat="40.94621" lon="-8.51063">
        <ele>305.84</ele>
        <time>2019-05-26T08:05:21Z</time>
      </trkpt>
      <trkpt lat="40.94638" lon="-8.51073">
        <ele>306.32</ele>
        <time>2019-05-26T08:05:36Z</time>
      </trkpt>
      <trkpt lat="40.94657" lon="-8.51088">
        <ele>306.8</ele>
        <time>2019-05-26T08:05:54Z</time>
      </trkpt>
      <trkpt lat="40.94669" lon="-8.51096">
        <ele>306.8</ele>
        <time>2019-05-26T08:06:07Z</time>
      </trkpt>
      <trkpt lat="40.94685" lon="-8.51105">
        <ele>305.84</ele>
        <time>2019-05-26T08:06:21Z</time>
      </trkpt>
      <trkpt lat="40.94699" lon="-8.51116">
        <ele>305.84</ele>
        <time>2019-05-26T08:06:34Z</time>
      </trkpt>
      <trkpt lat="40.94719" lon="-8.51128">
        <ele>304.88</ele>
        <time>2019-05-26T08:06:50Z</time>
      </trkpt>
      <trkpt lat="40.94735" lon="-8.5114">
        <ele>304.88</ele>
        <time>2019-05-26T08:07:04Z</time>
      </trkpt>
      <trkpt lat="40.9475" lon="-8.51152">
        <ele>304.39</ele>
        <time>2019-05-26T08:07:18Z</time>
      </trkpt>
      <trkpt lat="40.94754" lon="-8.51155">
        <ele>303.43</ele>
        <time>2019-05-26T08:07:21Z</time>
      </trkpt>
      <trkpt lat="40.94769" lon="-8.51169">
        <ele>303.91</ele>
        <time>2019-05-26T08:07:36Z</time>
      </trkpt>
      <trkpt lat="40.94782" lon="-8.51183">
        <ele>302.95</ele>
        <time>2019-05-26T08:07:49Z</time>
      </trkpt>
      <trkpt lat="40.94798" lon="-8.51198">
        <ele>303.43</ele>
        <time>2019-05-26T08:08:04Z</time>
      </trkpt>
      <trkpt lat="40.94812" lon="-8.51213">
        <ele>304.39</ele>
        <time>2019-05-26T08:08:19Z</time>
      </trkpt>
      <trkpt lat="40.94813" lon="-8.51215">
        <ele>303.91</ele>
        <time>2019-05-26T08:08:20Z</time>
      </trkpt>
      <trkpt lat="40.94828" lon="-8.51227">
        <ele>304.39</ele>
        <time>2019-05-26T08:08:35Z</time>
      </trkpt>
      <trkpt lat="40.94843" lon="-8.5124">
        <ele>304.88</ele>
        <time>2019-05-26T08:08:50Z</time>
      </trkpt>
      <trkpt lat="40.94858" lon="-8.51256">
        <ele>305.36</ele>
        <time>2019-05-26T08:09:06Z</time>
      </trkpt>
      <trkpt lat="40.94872" lon="-8.51269">
        <ele>305.84</ele>
        <time>2019-05-26T08:09:21Z</time>
      </trkpt>
      <trkpt lat="40.94888" lon="-8.51285">
        <ele>306.32</ele>
        <time>2019-05-26T08:09:37Z</time>
      </trkpt>
      <trkpt lat="40.949" lon="-8.51299">
        <ele>305.36</ele>
        <time>2019-05-26T08:09:51Z</time>
      </trkpt>
      <trkpt lat="40.94914" lon="-8.51312">
        <ele>305.84</ele>
        <time>2019-05-26T08:10:05Z</time>
      </trkpt>
      <trkpt lat="40.94926" lon="-8.51325">
        <ele>306.8</ele>
        <time>2019-05-26T08:10:18Z</time>
      </trkpt>
      <trkpt lat="40.94934" lon="-8.51331">
        <ele>306.8</ele>
        <time>2019-05-26T08:10:25Z</time>
      </trkpt>
      <trkpt lat="40.9495" lon="-8.51346">
        <ele>306.32</ele>
        <time>2019-05-26T08:10:41Z</time>
      </trkpt>
      <trkpt lat="40.94964" lon="-8.51359">
        <ele>306.8</ele>
        <time>2019-05-26T08:10:55Z</time>
      </trkpt>
      <trkpt lat="40.94968" lon="-8.51365">
        <ele>307.28</ele>
        <time>2019-05-26T08:11:10Z</time>
      </trkpt>
      <trkpt lat="40.94969" lon="-8.51366">
        <ele>306.8</ele>
        <time>2019-05-26T08:11:12Z</time>
      </trkpt>
      <trkpt lat="40.94974" lon="-8.51369">
        <ele>306.32</ele>
        <time>2019-05-26T08:11:16Z</time>
      </trkpt>
      <trkpt lat="40.94992" lon="-8.51387">
        <ele>306.8</ele>
        <time>2019-05-26T08:11:34Z</time>
      </trkpt>
      <trkpt lat="40.95005" lon="-8.51399">
        <ele>306.8</ele>
        <time>2019-05-26T08:11:48Z</time>
      </trkpt>
      <trkpt lat="40.95017" lon="-8.51413">
        <ele>307.76</ele>
        <time>2019-05-26T08:12:02Z</time>
      </trkpt>
      <trkpt lat="40.95031" lon="-8.51426">
        <ele>307.28</ele>
        <time>2019-05-26T08:12:16Z</time>
      </trkpt>
      <trkpt lat="40.95046" lon="-8.51442">
        <ele>307.76</ele>
        <time>2019-05-26T08:12:33Z</time>
      </trkpt>
      <trkpt lat="40.95061" lon="-8.5146">
        <ele>307.28</ele>
        <time>2019-05-26T08:12:50Z</time>
      </trkpt>
      <trkpt lat="40.95074" lon="-8.51476">
        <ele>307.76</ele>
        <time>2019-05-26T08:13:05Z</time>
      </trkpt>
      <trkpt lat="40.95088" lon="-8.51495">
        <ele>307.76</ele>
        <time>2019-05-26T08:13:21Z</time>
      </trkpt>
      <trkpt lat="40.95092" lon="-8.51498">
        <ele>308.24</ele>
        <time>2019-05-26T08:13:32Z</time>
      </trkpt>
      <trkpt lat="40.95092" lon="-8.51497">
        <ele>308.24</ele>
        <time>2019-05-26T08:13:34Z</time>
      </trkpt>
      <trkpt lat="40.95094" lon="-8.51496">
        <ele>307.76</ele>
        <time>2019-05-26T08:13:36Z</time>
      </trkpt>
      <trkpt lat="40.95095" lon="-8.51495">
        <ele>307.76</ele>
        <time>2019-05-26T08:13:38Z</time>
      </trkpt>
      <trkpt lat="40.95117" lon="-8.51503">
        <ele>308.24</ele>
        <time>2019-05-26T08:13:55Z</time>
      </trkpt>
      <trkpt lat="40.95131" lon="-8.51516">
        <ele>306.8</ele>
        <time>2019-05-26T08:14:09Z</time>
      </trkpt>
      <trkpt lat="40.95139" lon="-8.51525">
        <ele>307.28</ele>
        <time>2019-05-26T08:14:22Z</time>
      </trkpt>
      <trkpt lat="40.95157" lon="-8.51543">
        <ele>307.76</ele>
        <time>2019-05-26T08:14:39Z</time>
      </trkpt>
      <trkpt lat="40.95173" lon="-8.51557">
        <ele>307.28</ele>
        <time>2019-05-26T08:14:54Z</time>
      </trkpt>
      <trkpt lat="40.95189" lon="-8.51572">
        <ele>307.28</ele>
        <time>2019-05-26T08:15:10Z</time>
      </trkpt>
      <trkpt lat="40.95204" lon="-8.51587">
        <ele>307.76</ele>
        <time>2019-05-26T08:15:25Z</time>
      </trkpt>
      <trkpt lat="40.95217" lon="-8.51599">
        <ele>307.76</ele>
        <time>2019-05-26T08:15:38Z</time>
      </trkpt>
      <trkpt lat="40.95225" lon="-8.51607">
        <ele>307.28</ele>
        <time>2019-05-26T08:15:50Z</time>
      </trkpt>
      <trkpt lat="40.95229" lon="-8.51611">
        <ele>307.76</ele>
        <time>2019-05-26T08:15:57Z</time>
      </trkpt>
      <trkpt lat="40.95232" lon="-8.51609">
        <ele>307.28</ele>
        <time>2019-05-26T08:16:00Z</time>
      </trkpt>
      <trkpt lat="40.95247" lon="-8.51623">
        <ele>306.8</ele>
        <time>2019-05-26T08:16:14Z</time>
      </trkpt>
      <trkpt lat="40.95265" lon="-8.51635">
        <ele>305.84</ele>
        <time>2019-05-26T08:16:29Z</time>
      </trkpt>
      <trkpt lat="40.95281" lon="-8.51645">
        <ele>304.88</ele>
        <time>2019-05-26T08:16:43Z</time>
      </trkpt>
      <trkpt lat="40.95283" lon="-8.51648">
        <ele>304.88</ele>
        <time>2019-05-26T08:16:49Z</time>
      </trkpt>
      <trkpt lat="40.95285" lon="-8.51648">
        <ele>305.36</ele>
        <time>2019-05-26T08:16:51Z</time>
      </trkpt>
      <trkpt lat="40.95303" lon="-8.5166">
        <ele>303.91</ele>
        <time>2019-05-26T08:17:08Z</time>
      </trkpt>
      <trkpt lat="40.95323" lon="-8.51671">
        <ele>302.47</ele>
        <time>2019-05-26T08:17:26Z</time>
      </trkpt>
      <trkpt lat="40.95333" lon="-8.51675">
        <ele>301.51</ele>
        <time>2019-05-26T08:17:35Z</time>
      </trkpt>
      <trkpt lat="40.9534" lon="-8.51678">
        <ele>300.55</ele>
        <time>2019-05-26T08:17:41Z</time>
      </trkpt>
      <trkpt lat="40.95345" lon="-8.51681">
        <ele>300.55</ele>
        <time>2019-05-26T08:17:46Z</time>
      </trkpt>
      <trkpt lat="40.95363" lon="-8.51691">
        <ele>299.11</ele>
        <time>2019-05-26T08:18:02Z</time>
      </trkpt>
      <trkpt lat="40.95384" lon="-8.51702">
        <ele>298.15</ele>
        <time>2019-05-26T08:18:20Z</time>
      </trkpt>
      <trkpt lat="40.95402" lon="-8.51715">
        <ele>297.18</ele>
        <time>2019-05-26T08:18:36Z</time>
      </trkpt>
      <trkpt lat="40.95404" lon="-8.51717">
        <ele>296.7</ele>
        <time>2019-05-26T08:18:39Z</time>
      </trkpt>
      <trkpt lat="40.9541" lon="-8.5172">
        <ele>296.22</ele>
        <time>2019-05-26T08:18:44Z</time>
      </trkpt>
      <trkpt lat="40.95426" lon="-8.51727">
        <ele>295.74</ele>
        <time>2019-05-26T08:19:00Z</time>
      </trkpt>
      <trkpt lat="40.95446" lon="-8.51737">
        <ele>294.78</ele>
        <time>2019-05-26T08:19:16Z</time>
      </trkpt>
      <trkpt lat="40.95454" lon="-8.51742">
        <ele>294.78</ele>
        <time>2019-05-26T08:19:23Z</time>
      </trkpt>
      <trkpt lat="40.95472" lon="-8.51751">
        <ele>295.74</ele>
        <time>2019-05-26T08:19:38Z</time>
      </trkpt>
      <trkpt lat="40.95492" lon="-8.51761">
        <ele>295.74</ele>
        <time>2019-05-26T08:19:55Z</time>
      </trkpt>
      <trkpt lat="40.95507" lon="-8.51767">
        <ele>295.74</ele>
        <time>2019-05-26T08:20:09Z</time>
      </trkpt>
      <trkpt lat="40.95525" lon="-8.51781">
        <ele>295.74</ele>
        <time>2019-05-26T08:20:25Z</time>
      </trkpt>
      <trkpt lat="40.95544" lon="-8.51794">
        <ele>296.7</ele>
        <time>2019-05-26T08:20:42Z</time>
      </trkpt>
      <trkpt lat="40.9556" lon="-8.51804">
        <ele>296.7</ele>
        <time>2019-05-26T08:20:55Z</time>
      </trkpt>
      <trkpt lat="40.95569" lon="-8.51808">
        <ele>298.15</ele>
        <time>2019-05-26T08:21:04Z</time>
      </trkpt>
      <trkpt lat="40.95579" lon="-8.51811">
        <ele>297.67</ele>
        <time>2019-05-26T08:21:16Z</time>
      </trkpt>
      <trkpt lat="40.95584" lon="-8.51816">
        <ele>298.15</ele>
        <time>2019-05-26T08:21:22Z</time>
      </trkpt>
      <trkpt lat="40.95598" lon="-8.51827">
        <ele>299.59</ele>
        <time>2019-05-26T08:21:37Z</time>
      </trkpt>
      <trkpt lat="40.95614" lon="-8.51837">
        <ele>300.55</ele>
        <time>2019-05-26T08:21:52Z</time>
      </trkpt>
      <trkpt lat="40.95621" lon="-8.51842">
        <ele>301.03</ele>
        <time>2019-05-26T08:22:05Z</time>
      </trkpt>
      <trkpt lat="40.95626" lon="-8.51846">
        <ele>301.51</ele>
        <time>2019-05-26T08:22:21Z</time>
      </trkpt>
      <trkpt lat="40.95638" lon="-8.51854">
        <ele>301.99</ele>
        <time>2019-05-26T08:22:35Z</time>
      </trkpt>
      <trkpt lat="40.95646" lon="-8.51858">
        <ele>301.51</ele>
        <time>2019-05-26T08:22:50Z</time>
      </trkpt>
      <trkpt lat="40.9566" lon="-8.51868">
        <ele>301.99</ele>
        <time>2019-05-26T08:23:03Z</time>
      </trkpt>
      <trkpt lat="40.95675" lon="-8.5188">
        <ele>301.99</ele>
        <time>2019-05-26T08:23:18Z</time>
      </trkpt>
      <trkpt lat="40.95683" lon="-8.51886">
        <ele>302.47</ele>
        <time>2019-05-26T08:23:30Z</time>
      </trkpt>
      <trkpt lat="40.95701" lon="-8.51901">
        <ele>301.99</ele>
        <time>2019-05-26T08:23:48Z</time>
      </trkpt>
      <trkpt lat="40.95709" lon="-8.51905">
        <ele>301.03</ele>
        <time>2019-05-26T08:23:54Z</time>
      </trkpt>
      <trkpt lat="40.95723" lon="-8.51919">
        <ele>301.03</ele>
        <time>2019-05-26T08:24:08Z</time>
      </trkpt>
      <trkpt lat="40.95739" lon="-8.5193">
        <ele>301.03</ele>
        <time>2019-05-26T08:24:23Z</time>
      </trkpt>
      <trkpt lat="40.95756" lon="-8.51945">
        <ele>300.55</ele>
        <time>2019-05-26T08:24:39Z</time>
      </trkpt>
      <trkpt lat="40.95764" lon="-8.51949">
        <ele>300.07</ele>
        <time>2019-05-26T08:24:49Z</time>
      </trkpt>
      <trkpt lat="40.95784" lon="-8.51962">
        <ele>299.11</ele>
        <time>2019-05-26T08:25:06Z</time>
      </trkpt>
      <trkpt lat="40.95799" lon="-8.51972">
        <ele>298.15</ele>
        <time>2019-05-26T08:25:20Z</time>
      </trkpt>
      <trkpt lat="40.95812" lon="-8.51981">
        <ele>297.67</ele>
        <time>2019-05-26T08:25:33Z</time>
      </trkpt>
      <trkpt lat="40.95815" lon="-8.51982">
        <ele>297.18</ele>
        <time>2019-05-26T08:25:36Z</time>
      </trkpt>
      <trkpt lat="40.95835" lon="-8.51993">
        <ele>296.22</ele>
        <time>2019-05-26T08:25:53Z</time>
      </trkpt>
      <trkpt lat="40.95852" lon="-8.52005">
        <ele>295.26</ele>
        <time>2019-05-26T08:26:08Z</time>
      </trkpt>
      <trkpt lat="40.95867" lon="-8.52014">
        <ele>294.78</ele>
        <time>2019-05-26T08:26:21Z</time>
      </trkpt>
      <trkpt lat="40.95882" lon="-8.52022">
        <ele>294.3</ele>
        <time>2019-05-26T08:26:35Z</time>
      </trkpt>
      <trkpt lat="40.959" lon="-8.52033">
        <ele>293.34</ele>
        <time>2019-05-26T08:26:50Z</time>
      </trkpt>
      <trkpt lat="40.95918" lon="-8.52044">
        <ele>292.38</ele>
        <time>2019-05-26T08:27:06Z</time>
      </trkpt>
      <trkpt lat="40.95921" lon="-8.5205">
        <ele>291.9</ele>
        <time>2019-05-26T08:27:22Z</time>
      </trkpt>
      <trkpt lat="40.95938" lon="-8.52059">
        <ele>290.94</ele>
        <time>2019-05-26T08:27:37Z</time>
      </trkpt>
      <trkpt lat="40.9595" lon="-8.52069">
        <ele>289.97</ele>
        <time>2019-05-26T08:27:50Z</time>
      </trkpt>
      <trkpt lat="40.95962" lon="-8.52077">
        <ele>289.01</ele>
        <time>2019-05-26T08:28:03Z</time>
      </trkpt>
      <trkpt lat="40.95972" lon="-8.5208">
        <ele>288.53</ele>
        <time>2019-05-26T08:28:17Z</time>
      </trkpt>
      <trkpt lat="40.95987" lon="-8.52089">
        <ele>286.61</ele>
        <time>2019-05-26T08:28:33Z</time>
      </trkpt>
      <trkpt lat="40.96004" lon="-8.52098">
        <ele>286.13</ele>
        <time>2019-05-26T08:28:49Z</time>
      </trkpt>
      <trkpt lat="40.96023" lon="-8.52109">
        <ele>285.17</ele>
        <time>2019-05-26T08:29:04Z</time>
      </trkpt>
      <trkpt lat="40.96039" lon="-8.52116">
        <ele>285.17</ele>
        <time>2019-05-26T08:29:19Z</time>
      </trkpt>
      <trkpt lat="40.96055" lon="-8.52124">
        <ele>284.69</ele>
        <time>2019-05-26T08:29:32Z</time>
      </trkpt>
      <trkpt lat="40.96064" lon="-8.52126">
        <ele>284.21</ele>
        <time>2019-05-26T08:29:38Z</time>
      </trkpt>
      <trkpt lat="40.96072" lon="-8.52128">
        <ele>284.21</ele>
        <time>2019-05-26T08:29:44Z</time>
      </trkpt>
      <trkpt lat="40.96086" lon="-8.52131">
        <ele>283.73</ele>
        <time>2019-05-26T08:29:57Z</time>
      </trkpt>
      <trkpt lat="40.96107" lon="-8.52139">
        <ele>283.25</ele>
        <time>2019-05-26T08:30:14Z</time>
      </trkpt>
      <trkpt lat="40.96128" lon="-8.52145">
        <ele>282.28</ele>
        <time>2019-05-26T08:30:29Z</time>
      </trkpt>
      <trkpt lat="40.96144" lon="-8.52148">
        <ele>280.84</ele>
        <time>2019-05-26T08:30:42Z</time>
      </trkpt>
      <trkpt lat="40.96157" lon="-8.5215">
        <ele>279.88</ele>
        <time>2019-05-26T08:30:53Z</time>
      </trkpt>
      <trkpt lat="40.96177" lon="-8.52158">
        <ele>277.48</ele>
        <time>2019-05-26T08:31:09Z</time>
      </trkpt>
      <trkpt lat="40.96196" lon="-8.52168">
        <ele>276.52</ele>
        <time>2019-05-26T08:31:24Z</time>
      </trkpt>
      <trkpt lat="40.96213" lon="-8.52177">
        <ele>275.07</ele>
        <time>2019-05-26T08:31:39Z</time>
      </trkpt>
      <trkpt lat="40.96218" lon="-8.52179">
        <ele>275.07</ele>
        <time>2019-05-26T08:31:43Z</time>
      </trkpt>
      <trkpt lat="40.96233" lon="-8.52188">
        <ele>273.63</ele>
        <time>2019-05-26T08:31:57Z</time>
      </trkpt>
      <trkpt lat="40.96251" lon="-8.52199">
        <ele>272.67</ele>
        <time>2019-05-26T08:32:13Z</time>
      </trkpt>
      <trkpt lat="40.96266" lon="-8.52209">
        <ele>271.23</ele>
        <time>2019-05-26T08:32:27Z</time>
      </trkpt>
      <trkpt lat="40.96271" lon="-8.5221">
        <ele>271.23</ele>
        <time>2019-05-26T08:32:42Z</time>
      </trkpt>
      <trkpt lat="40.96276" lon="-8.52211">
        <ele>271.23</ele>
        <time>2019-05-26T08:32:54Z</time>
      </trkpt>
      <trkpt lat="40.96277" lon="-8.52211">
        <ele>270.75</ele>
        <time>2019-05-26T08:32:56Z</time>
      </trkpt>
      <trkpt lat="40.96283" lon="-8.52222">
        <ele>269.31</ele>
        <time>2019-05-26T08:33:06Z</time>
      </trkpt>
      <trkpt lat="40.96286" lon="-8.52224">
        <ele>269.31</ele>
        <time>2019-05-26T08:33:12Z</time>
      </trkpt>
      <trkpt lat="40.96296" lon="-8.52237">
        <ele>267.38</ele>
        <time>2019-05-26T08:33:25Z</time>
      </trkpt>
      <trkpt lat="40.96311" lon="-8.52255">
        <ele>265.46</ele>
        <time>2019-05-26T08:33:40Z</time>
      </trkpt>
      <trkpt lat="40.96316" lon="-8.52263">
        <ele>265.46</ele>
        <time>2019-05-26T08:33:55Z</time>
      </trkpt>
      <trkpt lat="40.96325" lon="-8.52272">
        <ele>264.02</ele>
        <time>2019-05-26T08:34:10Z</time>
      </trkpt>
      <trkpt lat="40.96331" lon="-8.52277">
        <ele>263.54</ele>
        <time>2019-05-26T08:34:20Z</time>
      </trkpt>
      <trkpt lat="40.96332" lon="-8.52279">
        <ele>263.06</ele>
        <time>2019-05-26T08:34:22Z</time>
      </trkpt>
      <trkpt lat="40.96348" lon="-8.52293">
        <ele>261.14</ele>
        <time>2019-05-26T08:34:37Z</time>
      </trkpt>
      <trkpt lat="40.96363" lon="-8.52308">
        <ele>259.21</ele>
        <time>2019-05-26T08:34:53Z</time>
      </trkpt>
      <trkpt lat="40.96378" lon="-8.52315">
        <ele>257.29</ele>
        <time>2019-05-26T08:35:06Z</time>
      </trkpt>
      <trkpt lat="40.9639" lon="-8.52315">
        <ele>256.81</ele>
        <time>2019-05-26T08:35:19Z</time>
      </trkpt>
      <trkpt lat="40.96402" lon="-8.52312">
        <ele>256.33</ele>
        <time>2019-05-26T08:35:33Z</time>
      </trkpt>
      <trkpt lat="40.96404" lon="-8.5231">
        <ele>256.33</ele>
        <time>2019-05-26T08:35:44Z</time>
      </trkpt>
      <trkpt lat="40.96407" lon="-8.52311">
        <ele>255.85</ele>
        <time>2019-05-26T08:36:06Z</time>
      </trkpt>
      <trkpt lat="40.96415" lon="-8.52306">
        <ele>255.85</ele>
        <time>2019-05-26T08:36:17Z</time>
      </trkpt>
      <trkpt lat="40.96428" lon="-8.52296">
        <ele>255.85</ele>
        <time>2019-05-26T08:36:31Z</time>
      </trkpt>
      <trkpt lat="40.96429" lon="-8.52295">
        <ele>255.37</ele>
        <time>2019-05-26T08:36:33Z</time>
      </trkpt>
      <trkpt lat="40.96435" lon="-8.5229">
        <ele>255.37</ele>
        <time>2019-05-26T08:36:38Z</time>
      </trkpt>
      <trkpt lat="40.96445" lon="-8.52283">
        <ele>254.41</ele>
        <time>2019-05-26T08:36:46Z</time>
      </trkpt>
      <trkpt lat="40.96454" lon="-8.52265">
        <ele>253.44</ele>
        <time>2019-05-26T08:37:00Z</time>
      </trkpt>
      <trkpt lat="40.96459" lon="-8.52254">
        <ele>252.48</ele>
        <time>2019-05-26T08:37:11Z</time>
      </trkpt>
      <trkpt lat="40.96469" lon="-8.52235">
        <ele>252</ele>
        <time>2019-05-26T08:37:26Z</time>
      </trkpt>
      <trkpt lat="40.9648" lon="-8.52226">
        <ele>252</ele>
        <time>2019-05-26T08:37:38Z</time>
      </trkpt>
      <trkpt lat="40.96499" lon="-8.52225">
        <ele>250.56</ele>
        <time>2019-05-26T08:37:52Z</time>
      </trkpt>
      <trkpt lat="40.96507" lon="-8.52225">
        <ele>250.08</ele>
        <time>2019-05-26T08:38:04Z</time>
      </trkpt>
      <trkpt lat="40.9651" lon="-8.52226">
        <ele>251.04</ele>
        <time>2019-05-26T08:38:07Z</time>
      </trkpt>
      <trkpt lat="40.96533" lon="-8.52233">
        <ele>250.56</ele>
        <time>2019-05-26T08:38:26Z</time>
      </trkpt>
      <trkpt lat="40.96544" lon="-8.52237">
        <ele>250.08</ele>
        <time>2019-05-26T08:38:39Z</time>
      </trkpt>
      <trkpt lat="40.96556" lon="-8.52242">
        <ele>249.6</ele>
        <time>2019-05-26T08:38:50Z</time>
      </trkpt>
      <trkpt lat="40.96557" lon="-8.52242">
        <ele>249.6</ele>
        <time>2019-05-26T08:38:51Z</time>
      </trkpt>
      <trkpt lat="40.96578" lon="-8.5225">
        <ele>249.12</ele>
        <time>2019-05-26T08:39:08Z</time>
      </trkpt>
      <trkpt lat="40.96599" lon="-8.52257">
        <ele>248.64</ele>
        <time>2019-05-26T08:39:25Z</time>
      </trkpt>
      <trkpt lat="40.96615" lon="-8.52267">
        <ele>248.64</ele>
        <time>2019-05-26T08:39:39Z</time>
      </trkpt>
      <trkpt lat="40.96634" lon="-8.52283">
        <ele>248.64</ele>
        <time>2019-05-26T08:39:56Z</time>
      </trkpt>
      <trkpt lat="40.96651" lon="-8.52302">
        <ele>248.16</ele>
        <time>2019-05-26T08:40:14Z</time>
      </trkpt>
      <trkpt lat="40.96655" lon="-8.52306">
        <ele>248.64</ele>
        <time>2019-05-26T08:40:19Z</time>
      </trkpt>
      <trkpt lat="40.96668" lon="-8.52315">
        <ele>249.12</ele>
        <time>2019-05-26T08:40:34Z</time>
      </trkpt>
      <trkpt lat="40.96676" lon="-8.52319">
        <ele>249.12</ele>
        <time>2019-05-26T08:40:47Z</time>
      </trkpt>
      <trkpt lat="40.96694" lon="-8.52327">
        <ele>248.64</ele>
        <time>2019-05-26T08:41:04Z</time>
      </trkpt>
      <trkpt lat="40.96714" lon="-8.52336">
        <ele>249.6</ele>
        <time>2019-05-26T08:41:21Z</time>
      </trkpt>
      <trkpt lat="40.9673" lon="-8.52343">
        <ele>250.08</ele>
        <time>2019-05-26T08:41:35Z</time>
      </trkpt>
      <trkpt lat="40.96741" lon="-8.52347">
        <ele>250.56</ele>
        <time>2019-05-26T08:41:44Z</time>
      </trkpt>
      <trkpt lat="40.96754" lon="-8.52359">
        <ele>251.04</ele>
        <time>2019-05-26T08:41:58Z</time>
      </trkpt>
      <trkpt lat="40.96771" lon="-8.52373">
        <ele>252.48</ele>
        <time>2019-05-26T08:42:15Z</time>
      </trkpt>
      <trkpt lat="40.96787" lon="-8.52387">
        <ele>253.44</ele>
        <time>2019-05-26T08:42:30Z</time>
      </trkpt>
      <trkpt lat="40.96801" lon="-8.52399">
        <ele>253.44</ele>
        <time>2019-05-26T08:42:45Z</time>
      </trkpt>
      <trkpt lat="40.96808" lon="-8.52404">
        <ele>252.96</ele>
        <time>2019-05-26T08:42:51Z</time>
      </trkpt>
      <trkpt lat="40.96821" lon="-8.52414">
        <ele>252.96</ele>
        <time>2019-05-26T08:43:04Z</time>
      </trkpt>
      <trkpt lat="40.96838" lon="-8.52423">
        <ele>251.52</ele>
        <time>2019-05-26T08:43:20Z</time>
      </trkpt>
      <trkpt lat="40.96839" lon="-8.52423">
        <ele>251.52</ele>
        <time>2019-05-26T08:43:21Z</time>
      </trkpt>
      <trkpt lat="40.96843" lon="-8.52423">
        <ele>251.52</ele>
        <time>2019-05-26T08:43:25Z</time>
      </trkpt>
      <trkpt lat="40.96862" lon="-8.52428">
        <ele>249.6</ele>
        <time>2019-05-26T08:43:40Z</time>
      </trkpt>
      <trkpt lat="40.96878" lon="-8.52435">
        <ele>248.16</ele>
        <time>2019-05-26T08:43:53Z</time>
      </trkpt>
      <trkpt lat="40.96896" lon="-8.52439">
        <ele>246.72</ele>
        <time>2019-05-26T08:44:08Z</time>
      </trkpt>
      <trkpt lat="40.96914" lon="-8.52448">
        <ele>244.79</ele>
        <time>2019-05-26T08:44:22Z</time>
      </trkpt>
      <trkpt lat="40.96921" lon="-8.52445">
        <ele>245.27</ele>
        <time>2019-05-26T08:44:37Z</time>
      </trkpt>
      <trkpt lat="40.96923" lon="-8.52448">
        <ele>244.79</ele>
        <time>2019-05-26T08:44:44Z</time>
      </trkpt>
      <trkpt lat="40.96932" lon="-8.52451">
        <ele>243.83</ele>
        <time>2019-05-26T08:44:51Z</time>
      </trkpt>
      <trkpt lat="40.96953" lon="-8.52459">
        <ele>241.43</ele>
        <time>2019-05-26T08:45:08Z</time>
      </trkpt>
      <trkpt lat="40.96974" lon="-8.52469">
        <ele>240.47</ele>
        <time>2019-05-26T08:45:24Z</time>
      </trkpt>
      <trkpt lat="40.96992" lon="-8.52477">
        <ele>239.51</ele>
        <time>2019-05-26T08:45:38Z</time>
      </trkpt>
      <trkpt lat="40.97009" lon="-8.52485">
        <ele>238.54</ele>
        <time>2019-05-26T08:45:53Z</time>
      </trkpt>
      <trkpt lat="40.97026" lon="-8.52491">
        <ele>236.14</ele>
        <time>2019-05-26T08:46:07Z</time>
      </trkpt>
      <trkpt lat="40.97044" lon="-8.52502">
        <ele>234.22</ele>
        <time>2019-05-26T08:46:22Z</time>
      </trkpt>
      <trkpt lat="40.9705" lon="-8.52506">
        <ele>234.22</ele>
        <time>2019-05-26T08:46:28Z</time>
      </trkpt>
      <trkpt lat="40.97069" lon="-8.52513">
        <ele>233.26</ele>
        <time>2019-05-26T08:46:43Z</time>
      </trkpt>
      <trkpt lat="40.97089" lon="-8.52522">
        <ele>231.81</ele>
        <time>2019-05-26T08:46:59Z</time>
      </trkpt>
      <trkpt lat="40.97106" lon="-8.52529">
        <ele>230.37</ele>
        <time>2019-05-26T08:47:14Z</time>
      </trkpt>
      <trkpt lat="40.97121" lon="-8.52535">
        <ele>229.41</ele>
        <time>2019-05-26T08:47:27Z</time>
      </trkpt>
      <trkpt lat="40.97139" lon="-8.52537">
        <ele>228.93</ele>
        <time>2019-05-26T08:47:44Z</time>
      </trkpt>
      <trkpt lat="40.97145" lon="-8.5254">
        <ele>228.93</ele>
        <time>2019-05-26T08:47:54Z</time>
      </trkpt>
      <trkpt lat="40.97162" lon="-8.52545">
        <ele>227.49</ele>
        <time>2019-05-26T08:48:07Z</time>
      </trkpt>
      <trkpt lat="40.97168" lon="-8.52545">
        <ele>227.49</ele>
        <time>2019-05-26T08:48:12Z</time>
      </trkpt>
      <trkpt lat="40.97184" lon="-8.52554">
        <ele>225.57</ele>
        <time>2019-05-26T08:48:28Z</time>
      </trkpt>
      <trkpt lat="40.97191" lon="-8.52556">
        <ele>224.61</ele>
        <time>2019-05-26T08:48:33Z</time>
      </trkpt>
      <trkpt lat="40.97201" lon="-8.52561">
        <ele>224.12</ele>
        <time>2019-05-26T08:48:41Z</time>
      </trkpt>
      <trkpt lat="40.97215" lon="-8.52571">
        <ele>223.16</ele>
        <time>2019-05-26T08:48:54Z</time>
      </trkpt>
      <trkpt lat="40.97216" lon="-8.52572">
        <ele>223.16</ele>
        <time>2019-05-26T08:48:55Z</time>
      </trkpt>
      <trkpt lat="40.97221" lon="-8.52573">
        <ele>223.16</ele>
        <time>2019-05-26T08:48:58Z</time>
      </trkpt>
      <trkpt lat="40.97233" lon="-8.5258">
        <ele>224.12</ele>
        <time>2019-05-26T08:49:14Z</time>
      </trkpt>
      <trkpt lat="40.97237" lon="-8.52584">
        <ele>223.16</ele>
        <time>2019-05-26T08:49:35Z</time>
      </trkpt>
      <trkpt lat="40.97239" lon="-8.52584">
        <ele>223.64</ele>
        <time>2019-05-26T08:49:52Z</time>
      </trkpt>
      <trkpt lat="40.97243" lon="-8.52585">
        <ele>223.64</ele>
        <time>2019-05-26T08:50:08Z</time>
      </trkpt>
      <trkpt lat="40.97261" lon="-8.52591">
        <ele>223.16</ele>
        <time>2019-05-26T08:50:22Z</time>
      </trkpt>
      <trkpt lat="40.97265" lon="-8.52593">
        <ele>222.68</ele>
        <time>2019-05-26T08:50:26Z</time>
      </trkpt>
      <trkpt lat="40.97274" lon="-8.52596">
        <ele>222.2</ele>
        <time>2019-05-26T08:50:33Z</time>
      </trkpt>
      <trkpt lat="40.97287" lon="-8.52599">
        <ele>221.24</ele>
        <time>2019-05-26T08:50:47Z</time>
      </trkpt>
      <trkpt lat="40.97292" lon="-8.52601">
        <ele>221.72</ele>
        <time>2019-05-26T08:50:59Z</time>
      </trkpt>
      <trkpt lat="40.97293" lon="-8.526">
        <ele>221.24</ele>
        <time>2019-05-26T08:51:19Z</time>
      </trkpt>
      <trkpt lat="40.9729" lon="-8.52602">
        <ele>221.72</ele>
        <time>2019-05-26T08:51:36Z</time>
      </trkpt>
      <trkpt lat="40.97305" lon="-8.52605">
        <ele>221.72</ele>
        <time>2019-05-26T08:51:50Z</time>
      </trkpt>
      <trkpt lat="40.97323" lon="-8.52607">
        <ele>220.28</ele>
        <time>2019-05-26T08:52:05Z</time>
      </trkpt>
      <trkpt lat="40.97341" lon="-8.52609">
        <ele>219.8</ele>
        <time>2019-05-26T08:52:20Z</time>
      </trkpt>
      <trkpt lat="40.97351" lon="-8.52612">
        <ele>217.88</ele>
        <time>2019-05-26T08:52:30Z</time>
      </trkpt>
      <trkpt lat="40.97357" lon="-8.52616">
        <ele>217.4</ele>
        <time>2019-05-26T08:52:35Z</time>
      </trkpt>
      <trkpt lat="40.97377" lon="-8.52621">
        <ele>216.91</ele>
        <time>2019-05-26T08:52:49Z</time>
      </trkpt>
      <trkpt lat="40.97389" lon="-8.52624">
        <ele>216.91</ele>
        <time>2019-05-26T08:52:56Z</time>
      </trkpt>
      <trkpt lat="40.97401" lon="-8.52629">
        <ele>216.43</ele>
        <time>2019-05-26T08:53:10Z</time>
      </trkpt>
      <trkpt lat="40.97419" lon="-8.52633">
        <ele>214.51</ele>
        <time>2019-05-26T08:53:25Z</time>
      </trkpt>
      <trkpt lat="40.97421" lon="-8.52634">
        <ele>214.51</ele>
        <time>2019-05-26T08:53:27Z</time>
      </trkpt>
      <trkpt lat="40.97445" lon="-8.52641">
        <ele>213.55</ele>
        <time>2019-05-26T08:53:43Z</time>
      </trkpt>
      <trkpt lat="40.97466" lon="-8.52647">
        <ele>213.07</ele>
        <time>2019-05-26T08:53:59Z</time>
      </trkpt>
      <trkpt lat="40.97467" lon="-8.52647">
        <ele>213.07</ele>
        <time>2019-05-26T08:54:00Z</time>
      </trkpt>
      <trkpt lat="40.97471" lon="-8.5265">
        <ele>212.11</ele>
        <time>2019-05-26T08:54:04Z</time>
      </trkpt>
      <trkpt lat="40.97473" lon="-8.5265">
        <ele>212.11</ele>
        <time>2019-05-26T08:54:06Z</time>
      </trkpt>
      <trkpt lat="40.97491" lon="-8.52656">
        <ele>211.63</ele>
        <time>2019-05-26T08:54:20Z</time>
      </trkpt>
      <trkpt lat="40.97504" lon="-8.5266">
        <ele>211.63</ele>
        <time>2019-05-26T08:54:32Z</time>
      </trkpt>
      <trkpt lat="40.97519" lon="-8.52663">
        <ele>211.63</ele>
        <time>2019-05-26T08:54:44Z</time>
      </trkpt>
      <trkpt lat="40.97537" lon="-8.52664">
        <ele>211.15</ele>
        <time>2019-05-26T08:54:59Z</time>
      </trkpt>
      <trkpt lat="40.97554" lon="-8.5267">
        <ele>211.15</ele>
        <time>2019-05-26T08:55:13Z</time>
      </trkpt>
      <trkpt lat="40.97576" lon="-8.52675">
        <ele>210.19</ele>
        <time>2019-05-26T08:55:29Z</time>
      </trkpt>
      <trkpt lat="40.97592" lon="-8.52679">
        <ele>210.19</ele>
        <time>2019-05-26T08:55:41Z</time>
      </trkpt>
      <trkpt lat="40.9761" lon="-8.52687">
        <ele>209.7</ele>
        <time>2019-05-26T08:55:56Z</time>
      </trkpt>
      <trkpt lat="40.97613" lon="-8.52688">
        <ele>209.7</ele>
        <time>2019-05-26T08:55:58Z</time>
      </trkpt>
      <trkpt lat="40.9763" lon="-8.52698">
        <ele>209.7</ele>
        <time>2019-05-26T08:56:13Z</time>
      </trkpt>
      <trkpt lat="40.9764" lon="-8.52704">
        <ele>209.22</ele>
        <time>2019-05-26T08:56:22Z</time>
      </trkpt>
      <trkpt lat="40.97658" lon="-8.52715">
        <ele>209.7</ele>
        <time>2019-05-26T08:56:38Z</time>
      </trkpt>
      <trkpt lat="40.97671" lon="-8.52722">
        <ele>209.22</ele>
        <time>2019-05-26T08:56:53Z</time>
      </trkpt>
      <trkpt lat="40.97682" lon="-8.52724">
        <ele>209.22</ele>
        <time>2019-05-26T08:57:05Z</time>
      </trkpt>
      <trkpt lat="40.97689" lon="-8.52726">
        <ele>208.26</ele>
        <time>2019-05-26T08:57:11Z</time>
      </trkpt>
      <trkpt lat="40.97706" lon="-8.52735">
        <ele>207.3</ele>
        <time>2019-05-26T08:57:25Z</time>
      </trkpt>
      <trkpt lat="40.97709" lon="-8.52739">
        <ele>207.3</ele>
        <time>2019-05-26T08:57:28Z</time>
      </trkpt>
      <trkpt lat="40.97724" lon="-8.52753">
        <ele>205.86</ele>
        <time>2019-05-26T08:57:43Z</time>
      </trkpt>
      <trkpt lat="40.97729" lon="-8.52758">
        <ele>205.38</ele>
        <time>2019-05-26T08:57:48Z</time>
      </trkpt>
      <trkpt lat="40.97737" lon="-8.52763">
        <ele>204.9</ele>
        <time>2019-05-26T08:57:55Z</time>
      </trkpt>
      <trkpt lat="40.97745" lon="-8.52775">
        <ele>203.94</ele>
        <time>2019-05-26T08:58:04Z</time>
      </trkpt>
      <trkpt lat="40.97751" lon="-8.52783">
        <ele>202.98</ele>
        <time>2019-05-26T08:58:10Z</time>
      </trkpt>
      <trkpt lat="40.97754" lon="-8.52787">
        <ele>202.98</ele>
        <time>2019-05-26T08:58:13Z</time>
      </trkpt>
      <trkpt lat="40.97769" lon="-8.52807">
        <ele>201.53</ele>
        <time>2019-05-26T08:58:29Z</time>
      </trkpt>
      <trkpt lat="40.97783" lon="-8.52825">
        <ele>200.57</ele>
        <time>2019-05-26T08:58:44Z</time>
      </trkpt>
      <trkpt lat="40.97795" lon="-8.52839">
        <ele>201.05</ele>
        <time>2019-05-26T08:58:56Z</time>
      </trkpt>
      <trkpt lat="40.97808" lon="-8.52854">
        <ele>200.57</ele>
        <time>2019-05-26T08:59:10Z</time>
      </trkpt>
      <trkpt lat="40.97822" lon="-8.5287">
        <ele>200.57</ele>
        <time>2019-05-26T08:59:23Z</time>
      </trkpt>
      <trkpt lat="40.97829" lon="-8.5288">
        <ele>200.57</ele>
        <time>2019-05-26T08:59:33Z</time>
      </trkpt>
      <trkpt lat="40.9784" lon="-8.52895">
        <ele>200.57</ele>
        <time>2019-05-26T08:59:46Z</time>
      </trkpt>
      <trkpt lat="40.97847" lon="-8.52908">
        <ele>201.05</ele>
        <time>2019-05-26T09:00:00Z</time>
      </trkpt>
      <trkpt lat="40.97848" lon="-8.5291">
        <ele>201.05</ele>
        <time>2019-05-26T09:00:19Z</time>
      </trkpt>
      <trkpt lat="40.97853" lon="-8.5292">
        <ele>201.05</ele>
        <time>2019-05-26T09:00:31Z</time>
      </trkpt>
      <trkpt lat="40.97858" lon="-8.52928">
        <ele>201.53</ele>
        <time>2019-05-26T09:00:45Z</time>
      </trkpt>
      <trkpt lat="40.97858" lon="-8.52932">
        <ele>201.53</ele>
        <time>2019-05-26T09:01:03Z</time>
      </trkpt>
      <trkpt lat="40.97857" lon="-8.52933">
        <ele>201.53</ele>
        <time>2019-05-26T09:01:34Z</time>
      </trkpt>
      <trkpt lat="40.97862" lon="-8.5294">
        <ele>202.01</ele>
        <time>2019-05-26T09:01:41Z</time>
      </trkpt>
      <trkpt lat="40.97867" lon="-8.52951">
        <ele>202.98</ele>
        <time>2019-05-26T09:01:50Z</time>
      </trkpt>
      <trkpt lat="40.97878" lon="-8.52976">
        <ele>203.94</ele>
        <time>2019-05-26T09:02:05Z</time>
      </trkpt>
      <trkpt lat="40.97879" lon="-8.52976">
        <ele>203.94</ele>
        <time>2019-05-26T09:02:06Z</time>
      </trkpt>
      <trkpt lat="40.97892" lon="-8.52985">
        <ele>204.9</ele>
        <time>2019-05-26T09:02:21Z</time>
      </trkpt>
      <trkpt lat="40.97904" lon="-8.52992">
        <ele>205.86</ele>
        <time>2019-05-26T09:02:33Z</time>
      </trkpt>
      <trkpt lat="40.97912" lon="-8.52997">
        <ele>206.82</ele>
        <time>2019-05-26T09:02:46Z</time>
      </trkpt>
      <trkpt lat="40.97915" lon="-8.52998">
        <ele>206.82</ele>
        <time>2019-05-26T09:02:49Z</time>
      </trkpt>
      <trkpt lat="40.9792" lon="-8.53009">
        <ele>206.82</ele>
        <time>2019-05-26T09:02:57Z</time>
      </trkpt>
      <trkpt lat="40.97928" lon="-8.53023">
        <ele>207.3</ele>
        <time>2019-05-26T09:03:09Z</time>
      </trkpt>
      <trkpt lat="40.97931" lon="-8.5303">
        <ele>207.3</ele>
        <time>2019-05-26T09:03:14Z</time>
      </trkpt>
      <trkpt lat="40.97942" lon="-8.5304">
        <ele>207.78</ele>
        <time>2019-05-26T09:03:29Z</time>
      </trkpt>
      <trkpt lat="40.97946" lon="-8.53044">
        <ele>208.26</ele>
        <time>2019-05-26T09:03:43Z</time>
      </trkpt>
      <trkpt lat="40.97947" lon="-8.53042">
        <ele>208.26</ele>
        <time>2019-05-26T09:04:03Z</time>
      </trkpt>
      <trkpt lat="40.97949" lon="-8.53045">
        <ele>208.26</ele>
        <time>2019-05-26T09:04:08Z</time>
      </trkpt>
      <trkpt lat="40.97959" lon="-8.53057">
        <ele>209.22</ele>
        <time>2019-05-26T09:04:22Z</time>
      </trkpt>
      <trkpt lat="40.97961" lon="-8.5306">
        <ele>208.74</ele>
        <time>2019-05-26T09:04:24Z</time>
      </trkpt>
      <trkpt lat="40.97966" lon="-8.53067">
        <ele>209.7</ele>
        <time>2019-05-26T09:04:30Z</time>
      </trkpt>
      <trkpt lat="40.97972" lon="-8.53071">
        <ele>209.7</ele>
        <time>2019-05-26T09:04:35Z</time>
      </trkpt>
      <trkpt lat="40.97979" lon="-8.53079">
        <ele>211.15</ele>
        <time>2019-05-26T09:04:43Z</time>
      </trkpt>
      <trkpt lat="40.97981" lon="-8.53083">
        <ele>211.15</ele>
        <time>2019-05-26T09:04:47Z</time>
      </trkpt>
      <trkpt lat="40.9799" lon="-8.53099">
        <ele>211.15</ele>
        <time>2019-05-26T09:04:59Z</time>
      </trkpt>
      <trkpt lat="40.97992" lon="-8.53103">
        <ele>211.63</ele>
        <time>2019-05-26T09:05:02Z</time>
      </trkpt>
      <trkpt lat="40.97996" lon="-8.53108">
        <ele>211.15</ele>
        <time>2019-05-26T09:05:07Z</time>
      </trkpt>
      <trkpt lat="40.98009" lon="-8.53119">
        <ele>212.59</ele>
        <time>2019-05-26T09:05:21Z</time>
      </trkpt>
      <trkpt lat="40.98022" lon="-8.5313">
        <ele>213.55</ele>
        <time>2019-05-26T09:05:33Z</time>
      </trkpt>
      <trkpt lat="40.98031" lon="-8.53143">
        <ele>214.51</ele>
        <time>2019-05-26T09:05:46Z</time>
      </trkpt>
      <trkpt lat="40.98036" lon="-8.53152">
        <ele>214.99</ele>
        <time>2019-05-26T09:05:59Z</time>
      </trkpt>
      <trkpt lat="40.98046" lon="-8.53163">
        <ele>215.95</ele>
        <time>2019-05-26T09:06:12Z</time>
      </trkpt>
      <trkpt lat="40.98061" lon="-8.53173">
        <ele>217.88</ele>
        <time>2019-05-26T09:06:27Z</time>
      </trkpt>
      <trkpt lat="40.98073" lon="-8.53185">
        <ele>219.32</ele>
        <time>2019-05-26T09:06:41Z</time>
      </trkpt>
      <trkpt lat="40.98078" lon="-8.53188">
        <ele>219.8</ele>
        <time>2019-05-26T09:06:45Z</time>
      </trkpt>
      <trkpt lat="40.98096" lon="-8.53201">
        <ele>220.76</ele>
        <time>2019-05-26T09:07:01Z</time>
      </trkpt>
      <trkpt lat="40.98107" lon="-8.53212">
        <ele>222.2</ele>
        <time>2019-05-26T09:07:13Z</time>
      </trkpt>
      <trkpt lat="40.98117" lon="-8.53223">
        <ele>222.68</ele>
        <time>2019-05-26T09:07:25Z</time>
      </trkpt>
      <trkpt lat="40.98127" lon="-8.53229">
        <ele>223.64</ele>
        <time>2019-05-26T09:07:34Z</time>
      </trkpt>
      <trkpt lat="40.98143" lon="-8.53241">
        <ele>225.57</ele>
        <time>2019-05-26T09:07:50Z</time>
      </trkpt>
      <trkpt lat="40.98145" lon="-8.53242">
        <ele>225.57</ele>
        <time>2019-05-26T09:07:52Z</time>
      </trkpt>
      <trkpt lat="40.98159" lon="-8.53254">
        <ele>226.05</ele>
        <time>2019-05-26T09:08:06Z</time>
      </trkpt>
      <trkpt lat="40.98171" lon="-8.53267">
        <ele>227.01</ele>
        <time>2019-05-26T09:08:19Z</time>
      </trkpt>
      <trkpt lat="40.9818" lon="-8.5328">
        <ele>227.49</ele>
        <time>2019-05-26T09:08:32Z</time>
      </trkpt>
      <trkpt lat="40.98191" lon="-8.53291">
        <ele>227.97</ele>
        <time>2019-05-26T09:08:41Z</time>
      </trkpt>
      <trkpt lat="40.98206" lon="-8.53303">
        <ele>227.49</ele>
        <time>2019-05-26T09:08:54Z</time>
      </trkpt>
      <trkpt lat="40.98212" lon="-8.53315">
        <ele>228.45</ele>
        <time>2019-05-26T09:09:01Z</time>
      </trkpt>
      <trkpt lat="40.98213" lon="-8.53317">
        <ele>228.45</ele>
        <time>2019-05-26T09:09:02Z</time>
      </trkpt>
      <trkpt lat="40.98214" lon="-8.53318">
        <ele>228.45</ele>
        <time>2019-05-26T09:09:03Z</time>
      </trkpt>
      <trkpt lat="40.98215" lon="-8.53319">
        <ele>228.93</ele>
        <time>2019-05-26T09:09:04Z</time>
      </trkpt>
      <trkpt lat="40.98216" lon="-8.53319">
        <ele>228.45</ele>
        <time>2019-05-26T09:09:05Z</time>
      </trkpt>
      <trkpt lat="40.98229" lon="-8.53327">
        <ele>228.93</ele>
        <time>2019-05-26T09:09:17Z</time>
      </trkpt>
      <trkpt lat="40.9823" lon="-8.53328">
        <ele>229.41</ele>
        <time>2019-05-26T09:09:18Z</time>
      </trkpt>
      <trkpt lat="40.98231" lon="-8.53329">
        <ele>229.41</ele>
        <time>2019-05-26T09:09:19Z</time>
      </trkpt>
      <trkpt lat="40.98238" lon="-8.53338">
        <ele>230.37</ele>
        <time>2019-05-26T09:09:29Z</time>
      </trkpt>
      <trkpt lat="40.98246" lon="-8.53341">
        <ele>229.89</ele>
        <time>2019-05-26T09:09:37Z</time>
      </trkpt>
      <trkpt lat="40.98247" lon="-8.53343">
        <ele>230.37</ele>
        <time>2019-05-26T09:09:38Z</time>
      </trkpt>
      <trkpt lat="40.98248" lon="-8.53344">
        <ele>230.37</ele>
        <time>2019-05-26T09:09:39Z</time>
      </trkpt>
      <trkpt lat="40.98254" lon="-8.53356">
        <ele>230.85</ele>
        <time>2019-05-26T09:09:48Z</time>
      </trkpt>
      <trkpt lat="40.98254" lon="-8.53358">
        <ele>230.85</ele>
        <time>2019-05-26T09:09:49Z</time>
      </trkpt>
      <trkpt lat="40.98262" lon="-8.5337">
        <ele>230.37</ele>
        <time>2019-05-26T09:09:58Z</time>
      </trkpt>
      <trkpt lat="40.98263" lon="-8.53371">
        <ele>230.37</ele>
        <time>2019-05-26T09:09:59Z</time>
      </trkpt>
      <trkpt lat="40.98273" lon="-8.5338">
        <ele>229.89</ele>
        <time>2019-05-26T09:10:09Z</time>
      </trkpt>
      <trkpt lat="40.98284" lon="-8.53389">
        <ele>230.85</ele>
        <time>2019-05-26T09:10:18Z</time>
      </trkpt>
      <trkpt lat="40.98286" lon="-8.53391">
        <ele>232.3</ele>
        <time>2019-05-26T09:10:21Z</time>
      </trkpt>
      <trkpt lat="40.98288" lon="-8.53392">
        <ele>231.81</ele>
        <time>2019-05-26T09:10:22Z</time>
      </trkpt>
      <trkpt lat="40.98289" lon="-8.53393">
        <ele>231.33</ele>
        <time>2019-05-26T09:10:23Z</time>
      </trkpt>
      <trkpt lat="40.98305" lon="-8.53403">
        <ele>231.81</ele>
        <time>2019-05-26T09:10:35Z</time>
      </trkpt>
      <trkpt lat="40.98317" lon="-8.5341">
        <ele>230.85</ele>
        <time>2019-05-26T09:10:43Z</time>
      </trkpt>
      <trkpt lat="40.98319" lon="-8.53411">
        <ele>231.33</ele>
        <time>2019-05-26T09:10:44Z</time>
      </trkpt>
      <trkpt lat="40.9832" lon="-8.53411">
        <ele>230.85</ele>
        <time>2019-05-26T09:10:45Z</time>
      </trkpt>
      <trkpt lat="40.98321" lon="-8.53412">
        <ele>230.85</ele>
        <time>2019-05-26T09:10:46Z</time>
      </trkpt>
      <trkpt lat="40.98324" lon="-8.53414">
        <ele>231.33</ele>
        <time>2019-05-26T09:10:49Z</time>
      </trkpt>
      <trkpt lat="40.98326" lon="-8.53415">
        <ele>230.85</ele>
        <time>2019-05-26T09:10:50Z</time>
      </trkpt>
      <trkpt lat="40.98329" lon="-8.53417">
        <ele>230.85</ele>
        <time>2019-05-26T09:10:53Z</time>
      </trkpt>
      <trkpt lat="40.9833" lon="-8.53418">
        <ele>231.33</ele>
        <time>2019-05-26T09:10:54Z</time>
      </trkpt>
      <trkpt lat="40.98331" lon="-8.53418">
        <ele>231.33</ele>
        <time>2019-05-26T09:10:55Z</time>
      </trkpt>
      <trkpt lat="40.98342" lon="-8.53426">
        <ele>230.37</ele>
        <time>2019-05-26T09:11:05Z</time>
      </trkpt>
      <trkpt lat="40.98354" lon="-8.53434">
        <ele>230.37</ele>
        <time>2019-05-26T09:11:17Z</time>
      </trkpt>
      <trkpt lat="40.98356" lon="-8.53434">
        <ele>230.37</ele>
        <time>2019-05-26T09:11:18Z</time>
      </trkpt>
      <trkpt lat="40.98357" lon="-8.53435">
        <ele>230.37</ele>
        <time>2019-05-26T09:11:19Z</time>
      </trkpt>
      <trkpt lat="40.9837" lon="-8.53443">
        <ele>229.41</ele>
        <time>2019-05-26T09:11:31Z</time>
      </trkpt>
      <trkpt lat="40.98389" lon="-8.53454">
        <ele>228.93</ele>
        <time>2019-05-26T09:11:45Z</time>
      </trkpt>
      <trkpt lat="40.98392" lon="-8.53457">
        <ele>228.93</ele>
        <time>2019-05-26T09:11:48Z</time>
      </trkpt>
      <trkpt lat="40.98394" lon="-8.53458">
        <ele>228.45</ele>
        <time>2019-05-26T09:11:49Z</time>
      </trkpt>
      <trkpt lat="40.98409" lon="-8.53469">
        <ele>227.97</ele>
        <time>2019-05-26T09:12:02Z</time>
      </trkpt>
      <trkpt lat="40.98427" lon="-8.53476">
        <ele>227.97</ele>
        <time>2019-05-26T09:12:16Z</time>
      </trkpt>
      <trkpt lat="40.98447" lon="-8.5348">
        <ele>227.97</ele>
        <time>2019-05-26T09:12:33Z</time>
      </trkpt>
      <trkpt lat="40.98465" lon="-8.53483">
        <ele>227.49</ele>
        <time>2019-05-26T09:12:47Z</time>
      </trkpt>
      <trkpt lat="40.98483" lon="-8.53489">
        <ele>227.49</ele>
        <time>2019-05-26T09:13:01Z</time>
      </trkpt>
      <trkpt lat="40.98488" lon="-8.5349">
        <ele>227.49</ele>
        <time>2019-05-26T09:13:06Z</time>
      </trkpt>
      <trkpt lat="40.98492" lon="-8.53492">
        <ele>227.01</ele>
        <time>2019-05-26T09:13:10Z</time>
      </trkpt>
      <trkpt lat="40.98494" lon="-8.53493">
        <ele>227.01</ele>
        <time>2019-05-26T09:13:11Z</time>
      </trkpt>
      <trkpt lat="40.98495" lon="-8.53494">
        <ele>227.01</ele>
        <time>2019-05-26T09:13:12Z</time>
      </trkpt>
      <trkpt lat="40.98496" lon="-8.53494">
        <ele>227.49</ele>
        <time>2019-05-26T09:13:13Z</time>
      </trkpt>
      <trkpt lat="40.98498" lon="-8.53495">
        <ele>227.01</ele>
        <time>2019-05-26T09:13:14Z</time>
      </trkpt>
      <trkpt lat="40.98499" lon="-8.53496">
        <ele>227.01</ele>
        <time>2019-05-26T09:13:15Z</time>
      </trkpt>
      <trkpt lat="40.985" lon="-8.53497">
        <ele>227.01</ele>
        <time>2019-05-26T09:13:16Z</time>
      </trkpt>
      <trkpt lat="40.98502" lon="-8.53498">
        <ele>227.49</ele>
        <time>2019-05-26T09:13:17Z</time>
      </trkpt>
      <trkpt lat="40.98503" lon="-8.53498">
        <ele>227.01</ele>
        <time>2019-05-26T09:13:18Z</time>
      </trkpt>
      <trkpt lat="40.98504" lon="-8.53499">
        <ele>227.01</ele>
        <time>2019-05-26T09:13:19Z</time>
      </trkpt>
      <trkpt lat="40.98506" lon="-8.535">
        <ele>227.49</ele>
        <time>2019-05-26T09:13:20Z</time>
      </trkpt>
      <trkpt lat="40.98512" lon="-8.53504">
        <ele>227.01</ele>
        <time>2019-05-26T09:13:25Z</time>
      </trkpt>
      <trkpt lat="40.98513" lon="-8.53504">
        <ele>227.01</ele>
        <time>2019-05-26T09:13:26Z</time>
      </trkpt>
      <trkpt lat="40.98515" lon="-8.53505">
        <ele>227.01</ele>
        <time>2019-05-26T09:13:27Z</time>
      </trkpt>
      <trkpt lat="40.98524" lon="-8.53509">
        <ele>227.01</ele>
        <time>2019-05-26T09:13:35Z</time>
      </trkpt>
      <trkpt lat="40.98525" lon="-8.5351">
        <ele>227.01</ele>
        <time>2019-05-26T09:13:36Z</time>
      </trkpt>
      <trkpt lat="40.98526" lon="-8.53511">
        <ele>226.53</ele>
        <time>2019-05-26T09:13:37Z</time>
      </trkpt>
      <trkpt lat="40.98527" lon="-8.53512">
        <ele>227.01</ele>
        <time>2019-05-26T09:13:38Z</time>
      </trkpt>
      <trkpt lat="40.98529" lon="-8.53512">
        <ele>227.01</ele>
        <time>2019-05-26T09:13:39Z</time>
      </trkpt>
      <trkpt lat="40.98541" lon="-8.53521">
        <ele>226.53</ele>
        <time>2019-05-26T09:13:50Z</time>
      </trkpt>
      <trkpt lat="40.98548" lon="-8.53523">
        <ele>227.01</ele>
        <time>2019-05-26T09:13:57Z</time>
      </trkpt>
      <trkpt lat="40.98549" lon="-8.53525">
        <ele>227.01</ele>
        <time>2019-05-26T09:13:59Z</time>
      </trkpt>
      <trkpt lat="40.98551" lon="-8.53525">
        <ele>227.01</ele>
        <time>2019-05-26T09:14:00Z</time>
      </trkpt>
      <trkpt lat="40.98552" lon="-8.53526">
        <ele>226.53</ele>
        <time>2019-05-26T09:14:13Z</time>
      </trkpt>
      <trkpt lat="40.9855" lon="-8.53526">
        <ele>226.53</ele>
        <time>2019-05-26T09:14:28Z</time>
      </trkpt>
      <trkpt lat="40.98546" lon="-8.53524">
        <ele>227.01</ele>
        <time>2019-05-26T09:14:41Z</time>
      </trkpt>
      <trkpt lat="40.98557" lon="-8.53527">
        <ele>226.53</ele>
        <time>2019-05-26T09:14:54Z</time>
      </trkpt>
      <trkpt lat="40.9856" lon="-8.53528">
        <ele>226.05</ele>
        <time>2019-05-26T09:14:56Z</time>
      </trkpt>
      <trkpt lat="40.98561" lon="-8.53529">
        <ele>226.05</ele>
        <time>2019-05-26T09:14:57Z</time>
      </trkpt>
      <trkpt lat="40.98579" lon="-8.53533">
        <ele>226.53</ele>
        <time>2019-05-26T09:15:10Z</time>
      </trkpt>
      <trkpt lat="40.98591" lon="-8.53537">
        <ele>225.09</ele>
        <time>2019-05-26T09:15:21Z</time>
      </trkpt>
      <trkpt lat="40.98604" lon="-8.53542">
        <ele>225.09</ele>
        <time>2019-05-26T09:15:32Z</time>
      </trkpt>
      <trkpt lat="40.98605" lon="-8.53543">
        <ele>224.61</ele>
        <time>2019-05-26T09:15:33Z</time>
      </trkpt>
      <trkpt lat="40.98607" lon="-8.53544">
        <ele>224.61</ele>
        <time>2019-05-26T09:15:34Z</time>
      </trkpt>
      <trkpt lat="40.98609" lon="-8.53544">
        <ele>224.61</ele>
        <time>2019-05-26T09:15:35Z</time>
      </trkpt>
      <trkpt lat="40.9861" lon="-8.53545">
        <ele>224.61</ele>
        <time>2019-05-26T09:15:36Z</time>
      </trkpt>
      <trkpt lat="40.98612" lon="-8.53545">
        <ele>224.61</ele>
        <time>2019-05-26T09:15:37Z</time>
      </trkpt>
      <trkpt lat="40.98613" lon="-8.53545">
        <ele>224.61</ele>
        <time>2019-05-26T09:15:38Z</time>
      </trkpt>
      <trkpt lat="40.98625" lon="-8.53549">
        <ele>224.12</ele>
        <time>2019-05-26T09:15:48Z</time>
      </trkpt>
      <trkpt lat="40.98637" lon="-8.53552">
        <ele>223.64</ele>
        <time>2019-05-26T09:16:00Z</time>
      </trkpt>
      <trkpt lat="40.98646" lon="-8.53555">
        <ele>223.64</ele>
        <time>2019-05-26T09:16:10Z</time>
      </trkpt>
      <trkpt lat="40.98656" lon="-8.53558">
        <ele>223.16</ele>
        <time>2019-05-26T09:16:20Z</time>
      </trkpt>
      <trkpt lat="40.98657" lon="-8.53559">
        <ele>223.16</ele>
        <time>2019-05-26T09:16:21Z</time>
      </trkpt>
      <trkpt lat="40.98658" lon="-8.5356">
        <ele>222.68</ele>
        <time>2019-05-26T09:16:22Z</time>
      </trkpt>
      <trkpt lat="40.9866" lon="-8.5356">
        <ele>222.68</ele>
        <time>2019-05-26T09:16:23Z</time>
      </trkpt>
      <trkpt lat="40.98664" lon="-8.53562">
        <ele>222.68</ele>
        <time>2019-05-26T09:16:27Z</time>
      </trkpt>
      <trkpt lat="40.98666" lon="-8.53562">
        <ele>221.72</ele>
        <time>2019-05-26T09:16:28Z</time>
      </trkpt>
      <trkpt lat="40.98674" lon="-8.53566">
        <ele>222.2</ele>
        <time>2019-05-26T09:16:35Z</time>
      </trkpt>
      <trkpt lat="40.98675" lon="-8.53567">
        <ele>222.68</ele>
        <time>2019-05-26T09:16:36Z</time>
      </trkpt>
      <trkpt lat="40.98692" lon="-8.53569">
        <ele>220.76</ele>
        <time>2019-05-26T09:16:49Z</time>
      </trkpt>
      <trkpt lat="40.98708" lon="-8.53574">
        <ele>221.72</ele>
        <time>2019-05-26T09:17:02Z</time>
      </trkpt>
      <trkpt lat="40.98722" lon="-8.53578">
        <ele>221.72</ele>
        <time>2019-05-26T09:17:12Z</time>
      </trkpt>
      <trkpt lat="40.98723" lon="-8.53578">
        <ele>221.72</ele>
        <time>2019-05-26T09:17:13Z</time>
      </trkpt>
      <trkpt lat="40.98735" lon="-8.53585">
        <ele>221.24</ele>
        <time>2019-05-26T09:17:23Z</time>
      </trkpt>
      <trkpt lat="40.98749" lon="-8.53591">
        <ele>220.76</ele>
        <time>2019-05-26T09:17:35Z</time>
      </trkpt>
      <trkpt lat="40.98754" lon="-8.53595">
        <ele>221.24</ele>
        <time>2019-05-26T09:17:45Z</time>
      </trkpt>
      <trkpt lat="40.98758" lon="-8.53598">
        <ele>221.24</ele>
        <time>2019-05-26T09:17:53Z</time>
      </trkpt>
      <trkpt lat="40.9876" lon="-8.53599">
        <ele>221.24</ele>
        <time>2019-05-26T09:17:55Z</time>
      </trkpt>
      <trkpt lat="40.98775" lon="-8.53604">
        <ele>221.24</ele>
        <time>2019-05-26T09:18:08Z</time>
      </trkpt>
      <trkpt lat="40.98777" lon="-8.53605">
        <ele>221.24</ele>
        <time>2019-05-26T09:18:09Z</time>
      </trkpt>
      <trkpt lat="40.98778" lon="-8.53605">
        <ele>220.76</ele>
        <time>2019-05-26T09:18:10Z</time>
      </trkpt>
      <trkpt lat="40.98789" lon="-8.53606">
        <ele>221.24</ele>
        <time>2019-05-26T09:18:23Z</time>
      </trkpt>
      <trkpt lat="40.98791" lon="-8.53607">
        <ele>220.76</ele>
        <time>2019-05-26T09:18:31Z</time>
      </trkpt>
      <trkpt lat="40.98794" lon="-8.53608">
        <ele>221.24</ele>
        <time>2019-05-26T09:18:34Z</time>
      </trkpt>
      <trkpt lat="40.98801" lon="-8.5361">
        <ele>221.24</ele>
        <time>2019-05-26T09:18:40Z</time>
      </trkpt>
      <trkpt lat="40.98809" lon="-8.53613">
        <ele>221.72</ele>
        <time>2019-05-26T09:18:51Z</time>
      </trkpt>
      <trkpt lat="40.98821" lon="-8.53617">
        <ele>221.24</ele>
        <time>2019-05-26T09:19:02Z</time>
      </trkpt>
      <trkpt lat="40.98832" lon="-8.5362">
        <ele>222.2</ele>
        <time>2019-05-26T09:19:14Z</time>
      </trkpt>
      <trkpt lat="40.98834" lon="-8.53619">
        <ele>222.2</ele>
        <time>2019-05-26T09:19:15Z</time>
      </trkpt>
      <trkpt lat="40.98837" lon="-8.53619">
        <ele>222.68</ele>
        <time>2019-05-26T09:19:17Z</time>
      </trkpt>
      <trkpt lat="40.98838" lon="-8.53619">
        <ele>222.68</ele>
        <time>2019-05-26T09:19:18Z</time>
      </trkpt>
      <trkpt lat="40.98851" lon="-8.53621">
        <ele>222.2</ele>
        <time>2019-05-26T09:19:30Z</time>
      </trkpt>
      <trkpt lat="40.98867" lon="-8.53628">
        <ele>222.68</ele>
        <time>2019-05-26T09:19:44Z</time>
      </trkpt>
      <trkpt lat="40.9888" lon="-8.53631">
        <ele>223.16</ele>
        <time>2019-05-26T09:19:55Z</time>
      </trkpt>
      <trkpt lat="40.98881" lon="-8.53632">
        <ele>222.68</ele>
        <time>2019-05-26T09:19:56Z</time>
      </trkpt>
      <trkpt lat="40.98883" lon="-8.53633">
        <ele>222.68</ele>
        <time>2019-05-26T09:19:57Z</time>
      </trkpt>
      <trkpt lat="40.98902" lon="-8.53639">
        <ele>222.2</ele>
        <time>2019-05-26T09:20:12Z</time>
      </trkpt>
      <trkpt lat="40.98908" lon="-8.5364">
        <ele>222.2</ele>
        <time>2019-05-26T09:20:17Z</time>
      </trkpt>
      <trkpt lat="40.98925" lon="-8.53646">
        <ele>222.68</ele>
        <time>2019-05-26T09:20:29Z</time>
      </trkpt>
      <trkpt lat="40.9893" lon="-8.53649">
        <ele>222.2</ele>
        <time>2019-05-26T09:20:35Z</time>
      </trkpt>
      <trkpt lat="40.98932" lon="-8.5365">
        <ele>222.68</ele>
        <time>2019-05-26T09:20:36Z</time>
      </trkpt>
      <trkpt lat="40.98933" lon="-8.5365">
        <ele>222.68</ele>
        <time>2019-05-26T09:20:37Z</time>
      </trkpt>
      <trkpt lat="40.98943" lon="-8.53655">
        <ele>223.16</ele>
        <time>2019-05-26T09:20:45Z</time>
      </trkpt>
      <trkpt lat="40.98944" lon="-8.53656">
        <ele>222.68</ele>
        <time>2019-05-26T09:20:46Z</time>
      </trkpt>
      <trkpt lat="40.98958" lon="-8.53663">
        <ele>222.68</ele>
        <time>2019-05-26T09:20:57Z</time>
      </trkpt>
      <trkpt lat="40.98966" lon="-8.53667">
        <ele>223.16</ele>
        <time>2019-05-26T09:21:03Z</time>
      </trkpt>
      <trkpt lat="40.98968" lon="-8.53668">
        <ele>222.68</ele>
        <time>2019-05-26T09:21:05Z</time>
      </trkpt>
      <trkpt lat="40.98971" lon="-8.5367">
        <ele>223.16</ele>
        <time>2019-05-26T09:21:08Z</time>
      </trkpt>
      <trkpt lat="40.98985" lon="-8.53675">
        <ele>223.16</ele>
        <time>2019-05-26T09:21:20Z</time>
      </trkpt>
      <trkpt lat="40.98997" lon="-8.53678">
        <ele>224.12</ele>
        <time>2019-05-26T09:21:29Z</time>
      </trkpt>
      <trkpt lat="40.99006" lon="-8.53682">
        <ele>224.61</ele>
        <time>2019-05-26T09:21:40Z</time>
      </trkpt>
      <trkpt lat="40.99016" lon="-8.53689">
        <ele>224.12</ele>
        <time>2019-05-26T09:21:53Z</time>
      </trkpt>
      <trkpt lat="40.99019" lon="-8.53692">
        <ele>224.12</ele>
        <time>2019-05-26T09:21:57Z</time>
      </trkpt>
      <trkpt lat="40.99023" lon="-8.53696">
        <ele>224.61</ele>
        <time>2019-05-26T09:22:06Z</time>
      </trkpt>
      <trkpt lat="40.99034" lon="-8.53709">
        <ele>225.57</ele>
        <time>2019-05-26T09:22:19Z</time>
      </trkpt>
      <trkpt lat="40.9904" lon="-8.53717">
        <ele>225.57</ele>
        <time>2019-05-26T09:22:32Z</time>
      </trkpt>
      <trkpt lat="40.99039" lon="-8.53715">
        <ele>225.09</ele>
        <time>2019-05-26T09:22:46Z</time>
      </trkpt>
      <trkpt lat="40.9904" lon="-8.53715">
        <ele>225.09</ele>
        <time>2019-05-26T09:23:02Z</time>
      </trkpt>
      <trkpt lat="40.9904" lon="-8.53714">
        <ele>224.61</ele>
        <time>2019-05-26T09:23:29Z</time>
      </trkpt>
      <trkpt lat="40.99038" lon="-8.53717">
        <ele>224.12</ele>
        <time>2019-05-26T09:24:02Z</time>
      </trkpt>
      <trkpt lat="40.99039" lon="-8.5372">
        <ele>225.09</ele>
        <time>2019-05-26T09:24:34Z</time>
      </trkpt>
      <trkpt lat="40.99038" lon="-8.53716">
        <ele>224.12</ele>
        <time>2019-05-26T09:25:14Z</time>
      </trkpt>
      <trkpt lat="40.99039" lon="-8.5372">
        <ele>224.61</ele>
        <time>2019-05-26T09:25:39Z</time>
      </trkpt>
      <trkpt lat="40.99039" lon="-8.53715">
        <ele>224.12</ele>
        <time>2019-05-26T09:26:13Z</time>
      </trkpt>
      <trkpt lat="40.99043" lon="-8.5372">
        <ele>224.61</ele>
        <time>2019-05-26T09:26:52Z</time>
      </trkpt>
      <trkpt lat="40.99043" lon="-8.53722">
        <ele>224.61</ele>
        <time>2019-05-26T09:27:22Z</time>
      </trkpt>
      <trkpt lat="40.9904" lon="-8.5372">
        <ele>224.12</ele>
        <time>2019-05-26T09:27:55Z</time>
      </trkpt>
      <trkpt lat="40.99039" lon="-8.53723">
        <ele>224.12</ele>
        <time>2019-05-26T09:28:29Z</time>
      </trkpt>
      <trkpt lat="40.99039" lon="-8.5372">
        <ele>224.12</ele>
        <time>2019-05-26T09:29:05Z</time>
      </trkpt>
      <trkpt lat="40.99041" lon="-8.53719">
        <ele>224.61</ele>
        <time>2019-05-26T09:29:34Z</time>
      </trkpt>
      <trkpt lat="40.99042" lon="-8.53717">
        <ele>224.61</ele>
        <time>2019-05-26T09:30:05Z</time>
      </trkpt>
      <trkpt lat="40.99042" lon="-8.53712">
        <ele>224.61</ele>
        <time>2019-05-26T09:30:35Z</time>
      </trkpt>
      <trkpt lat="40.99042" lon="-8.53717">
        <ele>224.12</ele>
        <time>2019-05-26T09:31:13Z</time>
      </trkpt>
      <trkpt lat="40.99039" lon="-8.5371">
        <ele>224.61</ele>
        <time>2019-05-26T09:31:48Z</time>
      </trkpt>
      <trkpt lat="40.99038" lon="-8.53705">
        <ele>224.61</ele>
        <time>2019-05-26T09:32:16Z</time>
      </trkpt>
      <trkpt lat="40.99034" lon="-8.53698">
        <ele>225.09</ele>
        <time>2019-05-26T09:32:49Z</time>
      </trkpt>
      <trkpt lat="40.99034" lon="-8.53698">
        <ele>225.57</ele>
        <time>2019-05-26T09:33:30Z</time>
      </trkpt>
      <trkpt lat="40.99037" lon="-8.537">
        <ele>226.05</ele>
        <time>2019-05-26T09:34:14Z</time>
      </trkpt>
      <trkpt lat="40.99036" lon="-8.53701">
        <ele>226.05</ele>
        <time>2019-05-26T09:34:55Z</time>
      </trkpt>
      <trkpt lat="40.9904" lon="-8.53707">
        <ele>226.53</ele>
        <time>2019-05-26T09:35:31Z</time>
      </trkpt>
      <trkpt lat="40.9904" lon="-8.53706">
        <ele>227.49</ele>
        <time>2019-05-26T09:36:05Z</time>
      </trkpt>
      <trkpt lat="40.9904" lon="-8.53704">
        <ele>227.01</ele>
        <time>2019-05-26T09:36:45Z</time>
      </trkpt>
      <trkpt lat="40.99039" lon="-8.53706">
        <ele>227.49</ele>
        <time>2019-05-26T09:37:19Z</time>
      </trkpt>
      <trkpt lat="40.99038" lon="-8.53706">
        <ele>227.49</ele>
        <time>2019-05-26T09:37:47Z</time>
      </trkpt>
      <trkpt lat="40.99043" lon="-8.53716">
        <ele>227.97</ele>
        <time>2019-05-26T09:38:30Z</time>
      </trkpt>
      <trkpt lat="40.99043" lon="-8.53718">
        <ele>227.97</ele>
        <time>2019-05-26T09:39:04Z</time>
      </trkpt>
      <trkpt lat="40.99044" lon="-8.53719">
        <ele>227.97</ele>
        <time>2019-05-26T09:39:44Z</time>
      </trkpt>
      <trkpt lat="40.99042" lon="-8.53711">
        <ele>228.45</ele>
        <time>2019-05-26T09:40:16Z</time>
      </trkpt>
      <trkpt lat="40.99039" lon="-8.53706">
        <ele>228.45</ele>
        <time>2019-05-26T09:41:01Z</time>
      </trkpt>
      <trkpt lat="40.99039" lon="-8.53706">
        <ele>228.93</ele>
        <time>2019-05-26T09:41:30Z</time>
      </trkpt>
      <trkpt lat="40.99039" lon="-8.53707">
        <ele>229.41</ele>
        <time>2019-05-26T09:42:03Z</time>
      </trkpt>
      <trkpt lat="40.99039" lon="-8.53703">
        <ele>229.41</ele>
        <time>2019-05-26T09:42:43Z</time>
      </trkpt>
      <trkpt lat="40.99038" lon="-8.53702">
        <ele>229.41</ele>
        <time>2019-05-26T09:43:16Z</time>
      </trkpt>
      <trkpt lat="40.99038" lon="-8.53701">
        <ele>229.41</ele>
        <time>2019-05-26T09:43:47Z</time>
      </trkpt>
      <trkpt lat="40.99039" lon="-8.53699">
        <ele>230.37</ele>
        <time>2019-05-26T09:44:31Z</time>
      </trkpt>
      <trkpt lat="40.99037" lon="-8.53698">
        <ele>230.37</ele>
        <time>2019-05-26T09:45:08Z</time>
      </trkpt>
      <trkpt lat="40.99039" lon="-8.537">
        <ele>230.37</ele>
        <time>2019-05-26T09:45:32Z</time>
      </trkpt>
      <trkpt lat="40.99039" lon="-8.53706">
        <ele>230.85</ele>
        <time>2019-05-26T09:45:49Z</time>
      </trkpt>
      <trkpt lat="40.99038" lon="-8.53702">
        <ele>230.85</ele>
        <time>2019-05-26T09:46:17Z</time>
      </trkpt>
      <trkpt lat="40.9904" lon="-8.53702">
        <ele>230.85</ele>
        <time>2019-05-26T09:46:51Z</time>
      </trkpt>
      <trkpt lat="40.99044" lon="-8.53703">
        <ele>231.33</ele>
        <time>2019-05-26T09:47:22Z</time>
      </trkpt>
      <trkpt lat="40.9904" lon="-8.53705">
        <ele>231.33</ele>
        <time>2019-05-26T09:47:50Z</time>
      </trkpt>
      <trkpt lat="40.99039" lon="-8.53701">
        <ele>231.81</ele>
        <time>2019-05-26T09:48:26Z</time>
      </trkpt>
      <trkpt lat="40.99042" lon="-8.537">
        <ele>232.3</ele>
        <time>2019-05-26T09:49:08Z</time>
      </trkpt>
      <trkpt lat="40.99042" lon="-8.53701">
        <ele>232.78</ele>
        <time>2019-05-26T09:49:52Z</time>
      </trkpt>
      <trkpt lat="40.99043" lon="-8.53697">
        <ele>232.3</ele>
        <time>2019-05-26T09:50:25Z</time>
      </trkpt>
      <trkpt lat="40.99042" lon="-8.53697">
        <ele>232.78</ele>
        <time>2019-05-26T09:50:51Z</time>
      </trkpt>
      <trkpt lat="40.99041" lon="-8.53697">
        <ele>232.78</ele>
        <time>2019-05-26T09:51:16Z</time>
      </trkpt>
      <trkpt lat="40.99043" lon="-8.53697">
        <ele>233.74</ele>
        <time>2019-05-26T09:51:55Z</time>
      </trkpt>
      <trkpt lat="40.99042" lon="-8.53699">
        <ele>234.22</ele>
        <time>2019-05-26T09:52:30Z</time>
      </trkpt>
      <trkpt lat="40.99042" lon="-8.53698">
        <ele>234.22</ele>
        <time>2019-05-26T09:52:56Z</time>
      </trkpt>
      <trkpt lat="40.99041" lon="-8.53697">
        <ele>234.7</ele>
        <time>2019-05-26T09:53:27Z</time>
      </trkpt>
      <trkpt lat="40.99039" lon="-8.537">
        <ele>234.7</ele>
        <time>2019-05-26T09:54:01Z</time>
      </trkpt>
      <trkpt lat="40.99039" lon="-8.53695">
        <ele>235.18</ele>
        <time>2019-05-26T09:54:25Z</time>
      </trkpt>
      <trkpt lat="40.99038" lon="-8.53693">
        <ele>235.66</ele>
        <time>2019-05-26T09:54:48Z</time>
      </trkpt>
      <trkpt lat="40.99036" lon="-8.53695">
        <ele>236.14</ele>
        <time>2019-05-26T09:54:57Z</time>
      </trkpt>
      <trkpt lat="40.99036" lon="-8.53698">
        <ele>236.62</ele>
        <time>2019-05-26T09:55:16Z</time>
      </trkpt>
      <trkpt lat="40.99049" lon="-8.53703">
        <ele>237.1</ele>
        <time>2019-05-26T09:55:35Z</time>
      </trkpt>
      <trkpt lat="40.99062" lon="-8.53713">
        <ele>237.1</ele>
        <time>2019-05-26T09:55:44Z</time>
      </trkpt>
      <trkpt lat="40.99069" lon="-8.53715">
        <ele>236.62</ele>
        <time>2019-05-26T09:55:49Z</time>
      </trkpt>
      <trkpt lat="40.99073" lon="-8.5372">
        <ele>237.1</ele>
        <time>2019-05-26T09:55:56Z</time>
      </trkpt>
      <trkpt lat="40.99089" lon="-8.53724">
        <ele>237.58</ele>
        <time>2019-05-26T09:56:09Z</time>
      </trkpt>
      <trkpt lat="40.99093" lon="-8.53726">
        <ele>237.58</ele>
        <time>2019-05-26T09:56:13Z</time>
      </trkpt>
      <trkpt lat="40.99097" lon="-8.53727">
        <ele>238.06</ele>
        <time>2019-05-26T09:56:17Z</time>
      </trkpt>
      <trkpt lat="40.99098" lon="-8.53728">
        <ele>238.06</ele>
        <time>2019-05-26T09:56:18Z</time>
      </trkpt>
      <trkpt lat="40.99099" lon="-8.53728">
        <ele>238.06</ele>
        <time>2019-05-26T09:56:19Z</time>
      </trkpt>
      <trkpt lat="40.99117" lon="-8.53737">
        <ele>238.54</ele>
        <time>2019-05-26T09:56:35Z</time>
      </trkpt>
      <trkpt lat="40.99132" lon="-8.53743">
        <ele>238.06</ele>
        <time>2019-05-26T09:56:48Z</time>
      </trkpt>
      <trkpt lat="40.99146" lon="-8.5375">
        <ele>238.54</ele>
        <time>2019-05-26T09:57:02Z</time>
      </trkpt>
      <trkpt lat="40.99157" lon="-8.53754">
        <ele>239.02</ele>
        <time>2019-05-26T09:57:14Z</time>
      </trkpt>
      <trkpt lat="40.99167" lon="-8.5376">
        <ele>239.02</ele>
        <time>2019-05-26T09:57:25Z</time>
      </trkpt>
      <trkpt lat="40.99183" lon="-8.53764">
        <ele>239.02</ele>
        <time>2019-05-26T09:57:40Z</time>
      </trkpt>
      <trkpt lat="40.99201" lon="-8.53772">
        <ele>239.51</ele>
        <time>2019-05-26T09:57:53Z</time>
      </trkpt>
      <trkpt lat="40.99207" lon="-8.53776">
        <ele>239.51</ele>
        <time>2019-05-26T09:57:59Z</time>
      </trkpt>
      <trkpt lat="40.99226" lon="-8.53781">
        <ele>239.99</ele>
        <time>2019-05-26T09:58:14Z</time>
      </trkpt>
      <trkpt lat="40.99241" lon="-8.53786">
        <ele>239.51</ele>
        <time>2019-05-26T09:58:29Z</time>
      </trkpt>
      <trkpt lat="40.99251" lon="-8.53789">
        <ele>239.51</ele>
        <time>2019-05-26T09:58:41Z</time>
      </trkpt>
      <trkpt lat="40.99265" lon="-8.53798">
        <ele>239.51</ele>
        <time>2019-05-26T09:58:55Z</time>
      </trkpt>
      <trkpt lat="40.99267" lon="-8.53799">
        <ele>239.99</ele>
        <time>2019-05-26T09:58:57Z</time>
      </trkpt>
      <trkpt lat="40.99268" lon="-8.538">
        <ele>239.51</ele>
        <time>2019-05-26T09:58:58Z</time>
      </trkpt>
      <trkpt lat="40.99289" lon="-8.53807">
        <ele>239.99</ele>
        <time>2019-05-26T09:59:15Z</time>
      </trkpt>
      <trkpt lat="40.99297" lon="-8.53812">
        <ele>239.99</ele>
        <time>2019-05-26T09:59:26Z</time>
      </trkpt>
      <trkpt lat="40.99307" lon="-8.53817">
        <ele>240.47</ele>
        <time>2019-05-26T09:59:36Z</time>
      </trkpt>
      <trkpt lat="40.99321" lon="-8.53824">
        <ele>239.99</ele>
        <time>2019-05-26T09:59:51Z</time>
      </trkpt>
      <trkpt lat="40.99334" lon="-8.53831">
        <ele>239.99</ele>
        <time>2019-05-26T10:00:05Z</time>
      </trkpt>
      <trkpt lat="40.99352" lon="-8.53839">
        <ele>240.47</ele>
        <time>2019-05-26T10:00:20Z</time>
      </trkpt>
      <trkpt lat="40.99371" lon="-8.5385">
        <ele>240.47</ele>
        <time>2019-05-26T10:00:34Z</time>
      </trkpt>
      <trkpt lat="40.99373" lon="-8.5385">
        <ele>240.47</ele>
        <time>2019-05-26T10:00:36Z</time>
      </trkpt>
      <trkpt lat="40.99374" lon="-8.53851">
        <ele>240.47</ele>
        <time>2019-05-26T10:00:37Z</time>
      </trkpt>
      <trkpt lat="40.99394" lon="-8.53861">
        <ele>240.95</ele>
        <time>2019-05-26T10:00:53Z</time>
      </trkpt>
      <trkpt lat="40.99411" lon="-8.53869">
        <ele>240.95</ele>
        <time>2019-05-26T10:01:07Z</time>
      </trkpt>
      <trkpt lat="40.99424" lon="-8.53875">
        <ele>241.43</ele>
        <time>2019-05-26T10:01:19Z</time>
      </trkpt>
      <trkpt lat="40.99439" lon="-8.53884">
        <ele>240.95</ele>
        <time>2019-05-26T10:01:31Z</time>
      </trkpt>
      <trkpt lat="40.99451" lon="-8.5389">
        <ele>241.43</ele>
        <time>2019-05-26T10:01:42Z</time>
      </trkpt>
      <trkpt lat="40.99461" lon="-8.53894">
        <ele>241.91</ele>
        <time>2019-05-26T10:01:50Z</time>
      </trkpt>
      <trkpt lat="40.99479" lon="-8.53902">
        <ele>241.43</ele>
        <time>2019-05-26T10:02:07Z</time>
      </trkpt>
      <trkpt lat="40.99499" lon="-8.53915">
        <ele>241.43</ele>
        <time>2019-05-26T10:02:23Z</time>
      </trkpt>
      <trkpt lat="40.99501" lon="-8.53918">
        <ele>241.43</ele>
        <time>2019-05-26T10:02:25Z</time>
      </trkpt>
      <trkpt lat="40.99506" lon="-8.53924">
        <ele>241.91</ele>
        <time>2019-05-26T10:02:32Z</time>
      </trkpt>
      <trkpt lat="40.99516" lon="-8.53931">
        <ele>241.43</ele>
        <time>2019-05-26T10:02:46Z</time>
      </trkpt>
      <trkpt lat="40.99516" lon="-8.53933">
        <ele>240.95</ele>
        <time>2019-05-26T10:02:49Z</time>
      </trkpt>
      <trkpt lat="40.99519" lon="-8.53943">
        <ele>241.43</ele>
        <time>2019-05-26T10:02:57Z</time>
      </trkpt>
      <trkpt lat="40.99526" lon="-8.53955">
        <ele>241.91</ele>
        <time>2019-05-26T10:03:08Z</time>
      </trkpt>
      <trkpt lat="40.99531" lon="-8.5396">
        <ele>241.91</ele>
        <time>2019-05-26T10:03:13Z</time>
      </trkpt>
      <trkpt lat="40.99541" lon="-8.53959">
        <ele>241.91</ele>
        <time>2019-05-26T10:03:23Z</time>
      </trkpt>
      <trkpt lat="40.99556" lon="-8.53965">
        <ele>241.91</ele>
        <time>2019-05-26T10:03:36Z</time>
      </trkpt>
      <trkpt lat="40.99562" lon="-8.53968">
        <ele>241.91</ele>
        <time>2019-05-26T10:03:46Z</time>
      </trkpt>
      <trkpt lat="40.99564" lon="-8.5397">
        <ele>241.43</ele>
        <time>2019-05-26T10:03:48Z</time>
      </trkpt>
      <trkpt lat="40.9958" lon="-8.53973">
        <ele>241.91</ele>
        <time>2019-05-26T10:04:01Z</time>
      </trkpt>
      <trkpt lat="40.99596" lon="-8.53979">
        <ele>242.39</ele>
        <time>2019-05-26T10:04:15Z</time>
      </trkpt>
      <trkpt lat="40.99613" lon="-8.53983">
        <ele>241.91</ele>
        <time>2019-05-26T10:04:30Z</time>
      </trkpt>
      <trkpt lat="40.99632" lon="-8.53988">
        <ele>242.39</ele>
        <time>2019-05-26T10:04:46Z</time>
      </trkpt>
      <trkpt lat="40.99651" lon="-8.53993">
        <ele>242.87</ele>
        <time>2019-05-26T10:05:03Z</time>
      </trkpt>
      <trkpt lat="40.99668" lon="-8.53997">
        <ele>243.35</ele>
        <time>2019-05-26T10:05:18Z</time>
      </trkpt>
      <trkpt lat="40.99684" lon="-8.54004">
        <ele>243.83</ele>
        <time>2019-05-26T10:05:33Z</time>
      </trkpt>
      <trkpt lat="40.99696" lon="-8.54009">
        <ele>243.35</ele>
        <time>2019-05-26T10:05:47Z</time>
      </trkpt>
      <trkpt lat="40.99715" lon="-8.54017">
        <ele>244.31</ele>
        <time>2019-05-26T10:06:03Z</time>
      </trkpt>
      <trkpt lat="40.99725" lon="-8.54021">
        <ele>243.35</ele>
        <time>2019-05-26T10:06:12Z</time>
      </trkpt>
      <trkpt lat="40.99741" lon="-8.54028">
        <ele>244.31</ele>
        <time>2019-05-26T10:06:26Z</time>
      </trkpt>
      <trkpt lat="40.99742" lon="-8.5403">
        <ele>244.31</ele>
        <time>2019-05-26T10:06:28Z</time>
      </trkpt>
      <trkpt lat="40.99745" lon="-8.54032">
        <ele>244.31</ele>
        <time>2019-05-26T10:06:31Z</time>
      </trkpt>
      <trkpt lat="40.99759" lon="-8.5404">
        <ele>244.79</ele>
        <time>2019-05-26T10:06:45Z</time>
      </trkpt>
      <trkpt lat="40.99769" lon="-8.54045">
        <ele>244.79</ele>
        <time>2019-05-26T10:06:59Z</time>
      </trkpt>
      <trkpt lat="40.99773" lon="-8.54047">
        <ele>244.79</ele>
        <time>2019-05-26T10:07:11Z</time>
      </trkpt>
      <trkpt lat="40.99773" lon="-8.54048">
        <ele>244.79</ele>
        <time>2019-05-26T10:07:27Z</time>
      </trkpt>
      <trkpt lat="40.99772" lon="-8.54049">
        <ele>244.79</ele>
        <time>2019-05-26T10:07:45Z</time>
      </trkpt>
      <trkpt lat="40.99773" lon="-8.54047">
        <ele>244.79</ele>
        <time>2019-05-26T10:08:04Z</time>
      </trkpt>
      <trkpt lat="40.99779" lon="-8.5405">
        <ele>244.79</ele>
        <time>2019-05-26T10:08:17Z</time>
      </trkpt>
      <trkpt lat="40.9978" lon="-8.54051">
        <ele>244.79</ele>
        <time>2019-05-26T10:08:18Z</time>
      </trkpt>
      <trkpt lat="40.99794" lon="-8.54058">
        <ele>245.27</ele>
        <time>2019-05-26T10:08:31Z</time>
      </trkpt>
      <trkpt lat="40.99808" lon="-8.54065">
        <ele>245.27</ele>
        <time>2019-05-26T10:08:44Z</time>
      </trkpt>
      <trkpt lat="40.99823" lon="-8.54073">
        <ele>245.27</ele>
        <time>2019-05-26T10:08:57Z</time>
      </trkpt>
      <trkpt lat="40.99841" lon="-8.54082">
        <ele>245.75</ele>
        <time>2019-05-26T10:09:13Z</time>
      </trkpt>
      <trkpt lat="40.99857" lon="-8.54089">
        <ele>245.75</ele>
        <time>2019-05-26T10:09:27Z</time>
      </trkpt>
      <trkpt lat="40.99874" lon="-8.54099">
        <ele>245.75</ele>
        <time>2019-05-26T10:09:43Z</time>
      </trkpt>
      <trkpt lat="40.99876" lon="-8.54101">
        <ele>246.23</ele>
        <time>2019-05-26T10:09:45Z</time>
      </trkpt>
      <trkpt lat="40.99894" lon="-8.5411">
        <ele>245.75</ele>
        <time>2019-05-26T10:10:00Z</time>
      </trkpt>
      <trkpt lat="40.99911" lon="-8.54118">
        <ele>246.72</ele>
        <time>2019-05-26T10:10:15Z</time>
      </trkpt>
      <trkpt lat="40.99931" lon="-8.54127">
        <ele>246.23</ele>
        <time>2019-05-26T10:10:31Z</time>
      </trkpt>
      <trkpt lat="40.99937" lon="-8.54131">
        <ele>246.72</ele>
        <time>2019-05-26T10:10:37Z</time>
      </trkpt>
      <trkpt lat="40.99955" lon="-8.54141">
        <ele>246.72</ele>
        <time>2019-05-26T10:10:54Z</time>
      </trkpt>
      <trkpt lat="40.9997" lon="-8.5415">
        <ele>246.72</ele>
        <time>2019-05-26T10:11:09Z</time>
      </trkpt>
      <trkpt lat="40.99985" lon="-8.5416">
        <ele>247.2</ele>
        <time>2019-05-26T10:11:23Z</time>
      </trkpt>
      <trkpt lat="41.00007" lon="-8.54171">
        <ele>247.2</ele>
        <time>2019-05-26T10:11:42Z</time>
      </trkpt>
      <trkpt lat="41.0002" lon="-8.54179">
        <ele>247.68</ele>
        <time>2019-05-26T10:11:55Z</time>
      </trkpt>
      <trkpt lat="41.00022" lon="-8.54179">
        <ele>247.2</ele>
        <time>2019-05-26T10:11:57Z</time>
      </trkpt>
      <trkpt lat="41.00039" lon="-8.5419">
        <ele>248.16</ele>
        <time>2019-05-26T10:12:14Z</time>
      </trkpt>
      <trkpt lat="41.00047" lon="-8.54192">
        <ele>248.16</ele>
        <time>2019-05-26T10:12:25Z</time>
      </trkpt>
      <trkpt lat="41.0005" lon="-8.54199">
        <ele>247.68</ele>
        <time>2019-05-26T10:12:39Z</time>
      </trkpt>
      <trkpt lat="41.00058" lon="-8.54201">
        <ele>248.16</ele>
        <time>2019-05-26T10:12:49Z</time>
      </trkpt>
      <trkpt lat="41.00062" lon="-8.54203">
        <ele>247.68</ele>
        <time>2019-05-26T10:12:53Z</time>
      </trkpt>
      <trkpt lat="41.00068" lon="-8.54207">
        <ele>247.68</ele>
        <time>2019-05-26T10:12:59Z</time>
      </trkpt>
      <trkpt lat="41.00073" lon="-8.5421">
        <ele>247.2</ele>
        <time>2019-05-26T10:13:04Z</time>
      </trkpt>
      <trkpt lat="41.00087" lon="-8.54214">
        <ele>247.68</ele>
        <time>2019-05-26T10:13:18Z</time>
      </trkpt>
      <trkpt lat="41.00089" lon="-8.54216">
        <ele>248.16</ele>
        <time>2019-05-26T10:13:20Z</time>
      </trkpt>
      <trkpt lat="41.00103" lon="-8.5422">
        <ele>248.64</ele>
        <time>2019-05-26T10:13:34Z</time>
      </trkpt>
      <trkpt lat="41.00111" lon="-8.54223">
        <ele>248.64</ele>
        <time>2019-05-26T10:13:42Z</time>
      </trkpt>
      <trkpt lat="41.00123" lon="-8.54236">
        <ele>248.16</ele>
        <time>2019-05-26T10:13:52Z</time>
      </trkpt>
      <trkpt lat="41.00132" lon="-8.54243">
        <ele>249.12</ele>
        <time>2019-05-26T10:14:00Z</time>
      </trkpt>
      <trkpt lat="41.00135" lon="-8.54247">
        <ele>248.64</ele>
        <time>2019-05-26T10:14:03Z</time>
      </trkpt>
      <trkpt lat="41.00137" lon="-8.54252">
        <ele>248.64</ele>
        <time>2019-05-26T10:14:07Z</time>
      </trkpt>
      <trkpt lat="41.00147" lon="-8.54264">
        <ele>248.64</ele>
        <time>2019-05-26T10:14:17Z</time>
      </trkpt>
      <trkpt lat="41.00159" lon="-8.54281">
        <ele>248.64</ele>
        <time>2019-05-26T10:14:31Z</time>
      </trkpt>
      <trkpt lat="41.0016" lon="-8.54285">
        <ele>248.64</ele>
        <time>2019-05-26T10:14:39Z</time>
      </trkpt>
      <trkpt lat="41.00159" lon="-8.54293">
        <ele>248.64</ele>
        <time>2019-05-26T10:14:54Z</time>
      </trkpt>
      <trkpt lat="41.00162" lon="-8.54296">
        <ele>248.64</ele>
        <time>2019-05-26T10:15:00Z</time>
      </trkpt>
      <trkpt lat="41.00163" lon="-8.54299">
        <ele>248.64</ele>
        <time>2019-05-26T10:15:02Z</time>
      </trkpt>
      <trkpt lat="41.00171" lon="-8.54314">
        <ele>248.16</ele>
        <time>2019-05-26T10:15:14Z</time>
      </trkpt>
      <trkpt lat="41.00176" lon="-8.54322">
        <ele>248.16</ele>
        <time>2019-05-26T10:15:20Z</time>
      </trkpt>
      <trkpt lat="41.00185" lon="-8.54343">
        <ele>247.68</ele>
        <time>2019-05-26T10:15:35Z</time>
      </trkpt>
      <trkpt lat="41.00185" lon="-8.54344">
        <ele>247.2</ele>
        <time>2019-05-26T10:15:36Z</time>
      </trkpt>
      <trkpt lat="41.00197" lon="-8.54363">
        <ele>247.2</ele>
        <time>2019-05-26T10:15:52Z</time>
      </trkpt>
      <trkpt lat="41.00202" lon="-8.54376">
        <ele>245.75</ele>
        <time>2019-05-26T10:16:01Z</time>
      </trkpt>
      <trkpt lat="41.00203" lon="-8.54379">
        <ele>246.23</ele>
        <time>2019-05-26T10:16:03Z</time>
      </trkpt>
      <trkpt lat="41.00204" lon="-8.54387">
        <ele>246.23</ele>
        <time>2019-05-26T10:16:09Z</time>
      </trkpt>
      <trkpt lat="41.00209" lon="-8.54392">
        <ele>245.75</ele>
        <time>2019-05-26T10:16:13Z</time>
      </trkpt>
      <trkpt lat="41.00213" lon="-8.54396">
        <ele>246.23</ele>
        <time>2019-05-26T10:16:16Z</time>
      </trkpt>
      <trkpt lat="41.00233" lon="-8.54415">
        <ele>245.75</ele>
        <time>2019-05-26T10:16:30Z</time>
      </trkpt>
      <trkpt lat="41.00233" lon="-8.54428">
        <ele>245.27</ele>
        <time>2019-05-26T10:16:38Z</time>
      </trkpt>
      <trkpt lat="41.00236" lon="-8.54438">
        <ele>244.79</ele>
        <time>2019-05-26T10:16:46Z</time>
      </trkpt>
      <trkpt lat="41.00243" lon="-8.54458">
        <ele>244.79</ele>
        <time>2019-05-26T10:16:59Z</time>
      </trkpt>
      <trkpt lat="41.00252" lon="-8.54481">
        <ele>244.79</ele>
        <time>2019-05-26T10:17:14Z</time>
      </trkpt>
      <trkpt lat="41.0026" lon="-8.54497">
        <ele>244.31</ele>
        <time>2019-05-26T10:17:26Z</time>
      </trkpt>
      <trkpt lat="41.00264" lon="-8.54503">
        <ele>244.31</ele>
        <time>2019-05-26T10:17:31Z</time>
      </trkpt>
      <trkpt lat="41.00268" lon="-8.54508">
        <ele>244.31</ele>
        <time>2019-05-26T10:17:35Z</time>
      </trkpt>
      <trkpt lat="41.00273" lon="-8.54517">
        <ele>243.83</ele>
        <time>2019-05-26T10:17:46Z</time>
      </trkpt>
      <trkpt lat="41.00278" lon="-8.5452">
        <ele>243.83</ele>
        <time>2019-05-26T10:17:58Z</time>
      </trkpt>
      <trkpt lat="41.00283" lon="-8.54521">
        <ele>243.83</ele>
        <time>2019-05-26T10:18:30Z</time>
      </trkpt>
      <trkpt lat="41.00291" lon="-8.54537">
        <ele>242.87</ele>
        <time>2019-05-26T10:18:43Z</time>
      </trkpt>
      <trkpt lat="41.00292" lon="-8.54541">
        <ele>242.87</ele>
        <time>2019-05-26T10:18:46Z</time>
      </trkpt>
      <trkpt lat="41.00301" lon="-8.54568">
        <ele>242.39</ele>
        <time>2019-05-26T10:19:06Z</time>
      </trkpt>
      <trkpt lat="41.00311" lon="-8.54588">
        <ele>241.91</ele>
        <time>2019-05-26T10:19:19Z</time>
      </trkpt>
      <trkpt lat="41.00321" lon="-8.54606">
        <ele>240.47</ele>
        <time>2019-05-26T10:19:32Z</time>
      </trkpt>
      <trkpt lat="41.00324" lon="-8.54608">
        <ele>241.43</ele>
        <time>2019-05-26T10:19:35Z</time>
      </trkpt>
      <trkpt lat="41.00333" lon="-8.5463">
        <ele>240.47</ele>
        <time>2019-05-26T10:19:50Z</time>
      </trkpt>
      <trkpt lat="41.00337" lon="-8.54635">
        <ele>240.95</ele>
        <time>2019-05-26T10:19:55Z</time>
      </trkpt>
      <trkpt lat="41.00347" lon="-8.5465">
        <ele>240.47</ele>
        <time>2019-05-26T10:20:07Z</time>
      </trkpt>
      <trkpt lat="41.00358" lon="-8.54667">
        <ele>239.99</ele>
        <time>2019-05-26T10:20:22Z</time>
      </trkpt>
      <trkpt lat="41.00369" lon="-8.54684">
        <ele>239.99</ele>
        <time>2019-05-26T10:20:36Z</time>
      </trkpt>
      <trkpt lat="41.00377" lon="-8.54701">
        <ele>239.99</ele>
        <time>2019-05-26T10:20:50Z</time>
      </trkpt>
      <trkpt lat="41.00382" lon="-8.54709">
        <ele>239.02</ele>
        <time>2019-05-26T10:20:56Z</time>
      </trkpt>
      <trkpt lat="41.00389" lon="-8.54716">
        <ele>238.54</ele>
        <time>2019-05-26T10:21:03Z</time>
      </trkpt>
      <trkpt lat="41.00392" lon="-8.54719">
        <ele>238.54</ele>
        <time>2019-05-26T10:21:05Z</time>
      </trkpt>
      <trkpt lat="41.00394" lon="-8.54723">
        <ele>239.51</ele>
        <time>2019-05-26T10:21:08Z</time>
      </trkpt>
      <trkpt lat="41.00399" lon="-8.54735">
        <ele>238.54</ele>
        <time>2019-05-26T10:21:19Z</time>
      </trkpt>
      <trkpt lat="41.004" lon="-8.54738">
        <ele>239.02</ele>
        <time>2019-05-26T10:21:21Z</time>
      </trkpt>
      <trkpt lat="41.00411" lon="-8.54755">
        <ele>238.06</ele>
        <time>2019-05-26T10:21:35Z</time>
      </trkpt>
      <trkpt lat="41.00421" lon="-8.5477">
        <ele>238.06</ele>
        <time>2019-05-26T10:21:47Z</time>
      </trkpt>
      <trkpt lat="41.00431" lon="-8.54785">
        <ele>237.58</ele>
        <time>2019-05-26T10:21:59Z</time>
      </trkpt>
      <trkpt lat="41.00434" lon="-8.54789">
        <ele>237.1</ele>
        <time>2019-05-26T10:22:03Z</time>
      </trkpt>
      <trkpt lat="41.00448" lon="-8.54808">
        <ele>235.66</ele>
        <time>2019-05-26T10:22:18Z</time>
      </trkpt>
      <trkpt lat="41.0046" lon="-8.54824">
        <ele>235.66</ele>
        <time>2019-05-26T10:22:31Z</time>
      </trkpt>
      <trkpt lat="41.00474" lon="-8.54846">
        <ele>234.7</ele>
        <time>2019-05-26T10:22:47Z</time>
      </trkpt>
      <trkpt lat="41.00485" lon="-8.54865">
        <ele>233.74</ele>
        <time>2019-05-26T10:23:02Z</time>
      </trkpt>
      <trkpt lat="41.00498" lon="-8.54882">
        <ele>233.74</ele>
        <time>2019-05-26T10:23:16Z</time>
      </trkpt>
      <trkpt lat="41.0051" lon="-8.549">
        <ele>232.3</ele>
        <time>2019-05-26T10:23:31Z</time>
      </trkpt>
      <trkpt lat="41.00514" lon="-8.54905">
        <ele>231.81</ele>
        <time>2019-05-26T10:23:35Z</time>
      </trkpt>
      <trkpt lat="41.00524" lon="-8.54922">
        <ele>231.81</ele>
        <time>2019-05-26T10:23:49Z</time>
      </trkpt>
      <trkpt lat="41.00526" lon="-8.54925">
        <ele>231.33</ele>
        <time>2019-05-26T10:23:51Z</time>
      </trkpt>
      <trkpt lat="41.00529" lon="-8.5493">
        <ele>230.85</ele>
        <time>2019-05-26T10:23:55Z</time>
      </trkpt>
      <trkpt lat="41.00537" lon="-8.54946">
        <ele>230.85</ele>
        <time>2019-05-26T10:24:06Z</time>
      </trkpt>
      <trkpt lat="41.0055" lon="-8.54962">
        <ele>229.89</ele>
        <time>2019-05-26T10:24:22Z</time>
      </trkpt>
      <trkpt lat="41.00552" lon="-8.54964">
        <ele>229.89</ele>
        <time>2019-05-26T10:24:24Z</time>
      </trkpt>
      <trkpt lat="41.00555" lon="-8.5497">
        <ele>230.37</ele>
        <time>2019-05-26T10:24:28Z</time>
      </trkpt>
      <trkpt lat="41.0057" lon="-8.54991">
        <ele>229.89</ele>
        <time>2019-05-26T10:24:45Z</time>
      </trkpt>
      <trkpt lat="41.00571" lon="-8.54992">
        <ele>229.41</ele>
        <time>2019-05-26T10:24:46Z</time>
      </trkpt>
      <trkpt lat="41.00575" lon="-8.54997">
        <ele>229.41</ele>
        <time>2019-05-26T10:24:50Z</time>
      </trkpt>
      <trkpt lat="41.00588" lon="-8.55017">
        <ele>229.41</ele>
        <time>2019-05-26T10:25:06Z</time>
      </trkpt>
      <trkpt lat="41.00592" lon="-8.55022">
        <ele>229.41</ele>
        <time>2019-05-26T10:25:11Z</time>
      </trkpt>
      <trkpt lat="41.00596" lon="-8.55027">
        <ele>228.45</ele>
        <time>2019-05-26T10:25:15Z</time>
      </trkpt>
      <trkpt lat="41.00598" lon="-8.55029">
        <ele>228.93</ele>
        <time>2019-05-26T10:25:17Z</time>
      </trkpt>
      <trkpt lat="41.00608" lon="-8.55045">
        <ele>227.97</ele>
        <time>2019-05-26T10:25:31Z</time>
      </trkpt>
      <trkpt lat="41.00627" lon="-8.55062">
        <ele>227.49</ele>
        <time>2019-05-26T10:25:47Z</time>
      </trkpt>
      <trkpt lat="41.00633" lon="-8.55068">
        <ele>227.01</ele>
        <time>2019-05-26T10:25:56Z</time>
      </trkpt>
      <trkpt lat="41.00646" lon="-8.55085">
        <ele>226.53</ele>
        <time>2019-05-26T10:26:12Z</time>
      </trkpt>
      <trkpt lat="41.00659" lon="-8.55102">
        <ele>227.49</ele>
        <time>2019-05-26T10:26:27Z</time>
      </trkpt>
      <trkpt lat="41.00672" lon="-8.55118">
        <ele>226.53</ele>
        <time>2019-05-26T10:26:42Z</time>
      </trkpt>
      <trkpt lat="41.00684" lon="-8.55135">
        <ele>226.05</ele>
        <time>2019-05-26T10:26:57Z</time>
      </trkpt>
      <trkpt lat="41.00696" lon="-8.55157">
        <ele>225.57</ele>
        <time>2019-05-26T10:27:13Z</time>
      </trkpt>
      <trkpt lat="41.00713" lon="-8.55182">
        <ele>225.57</ele>
        <time>2019-05-26T10:27:31Z</time>
      </trkpt>
      <trkpt lat="41.0072" lon="-8.55197">
        <ele>226.05</ele>
        <time>2019-05-26T10:27:44Z</time>
      </trkpt>
      <trkpt lat="41.00722" lon="-8.55196">
        <ele>226.53</ele>
        <time>2019-05-26T10:28:03Z</time>
      </trkpt>
      <trkpt lat="41.00725" lon="-8.55196">
        <ele>226.05</ele>
        <time>2019-05-26T10:28:26Z</time>
      </trkpt>
      <trkpt lat="41.00731" lon="-8.55211">
        <ele>226.05</ele>
        <time>2019-05-26T10:28:44Z</time>
      </trkpt>
      <trkpt lat="41.0074" lon="-8.5523">
        <ele>226.05</ele>
        <time>2019-05-26T10:28:58Z</time>
      </trkpt>
      <trkpt lat="41.00751" lon="-8.55248">
        <ele>226.05</ele>
        <time>2019-05-26T10:29:13Z</time>
      </trkpt>
      <trkpt lat="41.00763" lon="-8.55267">
        <ele>226.05</ele>
        <time>2019-05-26T10:29:29Z</time>
      </trkpt>
      <trkpt lat="41.00772" lon="-8.55286">
        <ele>225.57</ele>
        <time>2019-05-26T10:29:42Z</time>
      </trkpt>
      <trkpt lat="41.00766" lon="-8.55301">
        <ele>225.57</ele>
        <time>2019-05-26T10:29:52Z</time>
      </trkpt>
      <trkpt lat="41.00753" lon="-8.55323">
        <ele>224.12</ele>
        <time>2019-05-26T10:30:08Z</time>
      </trkpt>
      <trkpt lat="41.00748" lon="-8.55332">
        <ele>222.68</ele>
        <time>2019-05-26T10:30:22Z</time>
      </trkpt>
      <trkpt lat="41.00748" lon="-8.55332">
        <ele>222.68</ele>
        <time>2019-05-26T10:30:27Z</time>
      </trkpt>
      <trkpt lat="41.00747" lon="-8.55335">
        <ele>223.16</ele>
        <time>2019-05-26T10:30:29Z</time>
      </trkpt>
      <trkpt lat="41.00738" lon="-8.55352">
        <ele>221.72</ele>
        <time>2019-05-26T10:30:42Z</time>
      </trkpt>
      <trkpt lat="41.00747" lon="-8.55361">
        <ele>222.68</ele>
        <time>2019-05-26T10:30:54Z</time>
      </trkpt>
      <trkpt lat="41.00747" lon="-8.55369">
        <ele>222.68</ele>
        <time>2019-05-26T10:31:02Z</time>
      </trkpt>
      <trkpt lat="41.00743" lon="-8.55371">
        <ele>221.72</ele>
        <time>2019-05-26T10:31:07Z</time>
      </trkpt>
      <trkpt lat="41.00732" lon="-8.55371">
        <ele>220.76</ele>
        <time>2019-05-26T10:31:20Z</time>
      </trkpt>
      <trkpt lat="41.00731" lon="-8.55373">
        <ele>219.8</ele>
        <time>2019-05-26T10:31:22Z</time>
      </trkpt>
      <trkpt lat="41.00726" lon="-8.55381">
        <ele>218.36</ele>
        <time>2019-05-26T10:31:29Z</time>
      </trkpt>
      <trkpt lat="41.00717" lon="-8.55392">
        <ele>216.43</ele>
        <time>2019-05-26T10:31:39Z</time>
      </trkpt>
      <trkpt lat="41.00708" lon="-8.55404">
        <ele>214.99</ele>
        <time>2019-05-26T10:31:49Z</time>
      </trkpt>
      <trkpt lat="41.00707" lon="-8.55415">
        <ele>214.03</ele>
        <time>2019-05-26T10:32:02Z</time>
      </trkpt>
      <trkpt lat="41.00709" lon="-8.55418">
        <ele>214.03</ele>
        <time>2019-05-26T10:32:05Z</time>
      </trkpt>
      <trkpt lat="41.00715" lon="-8.55429">
        <ele>214.99</ele>
        <time>2019-05-26T10:32:13Z</time>
      </trkpt>
      <trkpt lat="41.00726" lon="-8.5545">
        <ele>214.51</ele>
        <time>2019-05-26T10:32:27Z</time>
      </trkpt>
      <trkpt lat="41.00728" lon="-8.55454">
        <ele>214.03</ele>
        <time>2019-05-26T10:32:31Z</time>
      </trkpt>
      <trkpt lat="41.00729" lon="-8.55455">
        <ele>214.03</ele>
        <time>2019-05-26T10:32:33Z</time>
      </trkpt>
      <trkpt lat="41.0073" lon="-8.55459">
        <ele>214.03</ele>
        <time>2019-05-26T10:32:36Z</time>
      </trkpt>
      <trkpt lat="41.0073" lon="-8.55478">
        <ele>211.63</ele>
        <time>2019-05-26T10:32:51Z</time>
      </trkpt>
      <trkpt lat="41.00732" lon="-8.55495">
        <ele>211.15</ele>
        <time>2019-05-26T10:33:00Z</time>
      </trkpt>
      <trkpt lat="41.0074" lon="-8.55518">
        <ele>209.7</ele>
        <time>2019-05-26T10:33:15Z</time>
      </trkpt>
      <trkpt lat="41.00748" lon="-8.55534">
        <ele>208.74</ele>
        <time>2019-05-26T10:33:27Z</time>
      </trkpt>
      <trkpt lat="41.00756" lon="-8.5556">
        <ele>207.78</ele>
        <time>2019-05-26T10:33:43Z</time>
      </trkpt>
      <trkpt lat="41.00758" lon="-8.55564">
        <ele>207.3</ele>
        <time>2019-05-26T10:33:46Z</time>
      </trkpt>
      <trkpt lat="41.00761" lon="-8.5559">
        <ele>205.86</ele>
        <time>2019-05-26T10:34:02Z</time>
      </trkpt>
      <trkpt lat="41.00763" lon="-8.55615">
        <ele>204.42</ele>
        <time>2019-05-26T10:34:17Z</time>
      </trkpt>
      <trkpt lat="41.00766" lon="-8.55636">
        <ele>203.94</ele>
        <time>2019-05-26T10:34:30Z</time>
      </trkpt>
      <trkpt lat="41.0077" lon="-8.55641">
        <ele>204.42</ele>
        <time>2019-05-26T10:34:35Z</time>
      </trkpt>
      <trkpt lat="41.00779" lon="-8.55666">
        <ele>202.01</ele>
        <time>2019-05-26T10:34:52Z</time>
      </trkpt>
      <trkpt lat="41.00788" lon="-8.55681">
        <ele>201.53</ele>
        <time>2019-05-26T10:35:04Z</time>
      </trkpt>
      <trkpt lat="41.00794" lon="-8.55698">
        <ele>201.05</ele>
        <time>2019-05-26T10:35:16Z</time>
      </trkpt>
      <trkpt lat="41.00798" lon="-8.55717">
        <ele>201.05</ele>
        <time>2019-05-26T10:35:28Z</time>
      </trkpt>
      <trkpt lat="41.0081" lon="-8.55747">
        <ele>200.57</ele>
        <time>2019-05-26T10:35:47Z</time>
      </trkpt>
      <trkpt lat="41.00813" lon="-8.55755">
        <ele>200.57</ele>
        <time>2019-05-26T10:35:52Z</time>
      </trkpt>
      <trkpt lat="41.00815" lon="-8.55759">
        <ele>201.05</ele>
        <time>2019-05-26T10:35:55Z</time>
      </trkpt>
      <trkpt lat="41.00821" lon="-8.55776">
        <ele>201.53</ele>
        <time>2019-05-26T10:36:11Z</time>
      </trkpt>
      <trkpt lat="41.00826" lon="-8.55787">
        <ele>201.53</ele>
        <time>2019-05-26T10:36:29Z</time>
      </trkpt>
      <trkpt lat="41.00833" lon="-8.55804">
        <ele>200.57</ele>
        <time>2019-05-26T10:36:44Z</time>
      </trkpt>
      <trkpt lat="41.00844" lon="-8.55827">
        <ele>201.05</ele>
        <time>2019-05-26T10:37:03Z</time>
      </trkpt>
      <trkpt lat="41.00847" lon="-8.5584">
        <ele>201.53</ele>
        <time>2019-05-26T10:37:12Z</time>
      </trkpt>
      <trkpt lat="41.00849" lon="-8.55861">
        <ele>202.01</ele>
        <time>2019-05-26T10:37:27Z</time>
      </trkpt>
      <trkpt lat="41.00845" lon="-8.55876">
        <ele>202.01</ele>
        <time>2019-05-26T10:37:37Z</time>
      </trkpt>
      <trkpt lat="41.00832" lon="-8.55887">
        <ele>202.01</ele>
        <time>2019-05-26T10:37:51Z</time>
      </trkpt>
      <trkpt lat="41.00827" lon="-8.55896">
        <ele>201.05</ele>
        <time>2019-05-26T10:37:57Z</time>
      </trkpt>
      <trkpt lat="41.00813" lon="-8.5591">
        <ele>200.57</ele>
        <time>2019-05-26T10:38:12Z</time>
      </trkpt>
      <trkpt lat="41.00798" lon="-8.55923">
        <ele>198.65</ele>
        <time>2019-05-26T10:38:27Z</time>
      </trkpt>
      <trkpt lat="41.00778" lon="-8.55932">
        <ele>196.25</ele>
        <time>2019-05-26T10:38:44Z</time>
      </trkpt>
      <trkpt lat="41.00777" lon="-8.55932">
        <ele>195.77</ele>
        <time>2019-05-26T10:38:45Z</time>
      </trkpt>
      <trkpt lat="41.00762" lon="-8.55942">
        <ele>195.28</ele>
        <time>2019-05-26T10:38:58Z</time>
      </trkpt>
      <trkpt lat="41.00762" lon="-8.55945">
        <ele>195.28</ele>
        <time>2019-05-26T10:39:14Z</time>
      </trkpt>
      <trkpt lat="41.00757" lon="-8.55949">
        <ele>195.77</ele>
        <time>2019-05-26T10:39:35Z</time>
      </trkpt>
      <trkpt lat="41.00745" lon="-8.55962">
        <ele>194.8</ele>
        <time>2019-05-26T10:39:49Z</time>
      </trkpt>
      <trkpt lat="41.00729" lon="-8.55976">
        <ele>194.32</ele>
        <time>2019-05-26T10:40:04Z</time>
      </trkpt>
      <trkpt lat="41.00718" lon="-8.55985">
        <ele>192.4</ele>
        <time>2019-05-26T10:40:14Z</time>
      </trkpt>
      <trkpt lat="41.00704" lon="-8.55993">
        <ele>193.84</ele>
        <time>2019-05-26T10:40:28Z</time>
      </trkpt>
      <trkpt lat="41.00684" lon="-8.56001">
        <ele>192.4</ele>
        <time>2019-05-26T10:40:45Z</time>
      </trkpt>
      <trkpt lat="41.00679" lon="-8.56006">
        <ele>192.4</ele>
        <time>2019-05-26T10:40:51Z</time>
      </trkpt>
      <trkpt lat="41.00673" lon="-8.56021">
        <ele>193.36</ele>
        <time>2019-05-26T10:41:06Z</time>
      </trkpt>
      <trkpt lat="41.00674" lon="-8.56026">
        <ele>192.88</ele>
        <time>2019-05-26T10:41:10Z</time>
      </trkpt>
      <trkpt lat="41.0068" lon="-8.56043">
        <ele>194.32</ele>
        <time>2019-05-26T10:41:23Z</time>
      </trkpt>
      <trkpt lat="41.00686" lon="-8.56064">
        <ele>195.28</ele>
        <time>2019-05-26T10:41:39Z</time>
      </trkpt>
      <trkpt lat="41.00692" lon="-8.56086">
        <ele>195.77</ele>
        <time>2019-05-26T10:41:53Z</time>
      </trkpt>
      <trkpt lat="41.00697" lon="-8.56098">
        <ele>196.25</ele>
        <time>2019-05-26T10:42:06Z</time>
      </trkpt>
      <trkpt lat="41.00701" lon="-8.56111">
        <ele>199.13</ele>
        <time>2019-05-26T10:42:18Z</time>
      </trkpt>
      <trkpt lat="41.00699" lon="-8.56116">
        <ele>199.61</ele>
        <time>2019-05-26T10:42:27Z</time>
      </trkpt>
      <trkpt lat="41.007" lon="-8.56118">
        <ele>199.61</ele>
        <time>2019-05-26T10:42:29Z</time>
      </trkpt>
      <trkpt lat="41.00702" lon="-8.56135">
        <ele>200.57</ele>
        <time>2019-05-26T10:42:42Z</time>
      </trkpt>
      <trkpt lat="41.00703" lon="-8.56152">
        <ele>200.57</ele>
        <time>2019-05-26T10:42:54Z</time>
      </trkpt>
      <trkpt lat="41.00702" lon="-8.56168">
        <ele>201.53</ele>
        <time>2019-05-26T10:43:05Z</time>
      </trkpt>
      <trkpt lat="41.00699" lon="-8.56189">
        <ele>202.98</ele>
        <time>2019-05-26T10:43:19Z</time>
      </trkpt>
      <trkpt lat="41.00697" lon="-8.56199">
        <ele>203.94</ele>
        <time>2019-05-26T10:43:25Z</time>
      </trkpt>
      <trkpt lat="41.00691" lon="-8.56217">
        <ele>204.42</ele>
        <time>2019-05-26T10:43:39Z</time>
      </trkpt>
      <trkpt lat="41.00683" lon="-8.56232">
        <ele>206.34</ele>
        <time>2019-05-26T10:43:52Z</time>
      </trkpt>
      <trkpt lat="41.00672" lon="-8.56253">
        <ele>206.82</ele>
        <time>2019-05-26T10:44:08Z</time>
      </trkpt>
      <trkpt lat="41.00672" lon="-8.56256">
        <ele>207.3</ele>
        <time>2019-05-26T10:44:10Z</time>
      </trkpt>
      <trkpt lat="41.00669" lon="-8.56264">
        <ele>206.82</ele>
        <time>2019-05-26T10:44:16Z</time>
      </trkpt>
      <trkpt lat="41.00666" lon="-8.56271">
        <ele>207.3</ele>
        <time>2019-05-26T10:44:21Z</time>
      </trkpt>
      <trkpt lat="41.00663" lon="-8.56278">
        <ele>209.7</ele>
        <time>2019-05-26T10:44:29Z</time>
      </trkpt>
      <trkpt lat="41.00661" lon="-8.56293">
        <ele>209.22</ele>
        <time>2019-05-26T10:44:43Z</time>
      </trkpt>
      <trkpt lat="41.00659" lon="-8.56302">
        <ele>210.19</ele>
        <time>2019-05-26T10:44:55Z</time>
      </trkpt>
      <trkpt lat="41.0066" lon="-8.56306">
        <ele>210.19</ele>
        <time>2019-05-26T10:44:58Z</time>
      </trkpt>
      <trkpt lat="41.00665" lon="-8.56326">
        <ele>210.67</ele>
        <time>2019-05-26T10:45:12Z</time>
      </trkpt>
      <trkpt lat="41.00668" lon="-8.56336">
        <ele>210.19</ele>
        <time>2019-05-26T10:45:19Z</time>
      </trkpt>
      <trkpt lat="41.00671" lon="-8.56347">
        <ele>210.19</ele>
        <time>2019-05-26T10:45:32Z</time>
      </trkpt>
      <trkpt lat="41.00675" lon="-8.56358">
        <ele>209.7</ele>
        <time>2019-05-26T10:45:40Z</time>
      </trkpt>
      <trkpt lat="41.00679" lon="-8.56371">
        <ele>208.74</ele>
        <time>2019-05-26T10:45:48Z</time>
      </trkpt>
      <trkpt lat="41.00683" lon="-8.56386">
        <ele>208.26</ele>
        <time>2019-05-26T10:46:03Z</time>
      </trkpt>
      <trkpt lat="41.0069" lon="-8.56409">
        <ele>206.34</ele>
        <time>2019-05-26T10:46:18Z</time>
      </trkpt>
      <trkpt lat="41.00691" lon="-8.56417">
        <ele>205.38</ele>
        <time>2019-05-26T10:46:23Z</time>
      </trkpt>
      <trkpt lat="41.00692" lon="-8.56429">
        <ele>205.38</ele>
        <time>2019-05-26T10:46:40Z</time>
      </trkpt>
      <trkpt lat="41.0069" lon="-8.56435">
        <ele>203.94</ele>
        <time>2019-05-26T10:46:56Z</time>
      </trkpt>
      <trkpt lat="41.00688" lon="-8.56437">
        <ele>204.42</ele>
        <time>2019-05-26T10:47:16Z</time>
      </trkpt>
      <trkpt lat="41.00691" lon="-8.56439">
        <ele>203.94</ele>
        <time>2019-05-26T10:47:27Z</time>
      </trkpt>
      <trkpt lat="41.00692" lon="-8.56439">
        <ele>203.94</ele>
        <time>2019-05-26T10:47:58Z</time>
      </trkpt>
      <trkpt lat="41.00694" lon="-8.56453">
        <ele>202.98</ele>
        <time>2019-05-26T10:48:12Z</time>
      </trkpt>
      <trkpt lat="41.00691" lon="-8.56458">
        <ele>202.01</ele>
        <time>2019-05-26T10:48:21Z</time>
      </trkpt>
      <trkpt lat="41.00694" lon="-8.56465">
        <ele>201.53</ele>
        <time>2019-05-26T10:48:34Z</time>
      </trkpt>
      <trkpt lat="41.00694" lon="-8.56468">
        <ele>201.05</ele>
        <time>2019-05-26T10:48:36Z</time>
      </trkpt>
      <trkpt lat="41.00694" lon="-8.56494">
        <ele>197.69</ele>
        <time>2019-05-26T10:48:52Z</time>
      </trkpt>
      <trkpt lat="41.00693" lon="-8.56503">
        <ele>196.25</ele>
        <time>2019-05-26T10:49:04Z</time>
      </trkpt>
      <trkpt lat="41.00694" lon="-8.56527">
        <ele>194.32</ele>
        <time>2019-05-26T10:49:19Z</time>
      </trkpt>
      <trkpt lat="41.00695" lon="-8.56548">
        <ele>191.92</ele>
        <time>2019-05-26T10:49:31Z</time>
      </trkpt>
      <trkpt lat="41.00694" lon="-8.56557">
        <ele>190.48</ele>
        <time>2019-05-26T10:49:36Z</time>
      </trkpt>
      <trkpt lat="41.00695" lon="-8.56564">
        <ele>190.48</ele>
        <time>2019-05-26T10:49:40Z</time>
      </trkpt>
      <trkpt lat="41.00699" lon="-8.56566">
        <ele>190.48</ele>
        <time>2019-05-26T10:49:44Z</time>
      </trkpt>
      <trkpt lat="41.00712" lon="-8.56567">
        <ele>190.96</ele>
        <time>2019-05-26T10:49:56Z</time>
      </trkpt>
      <trkpt lat="41.00729" lon="-8.56574">
        <ele>190.48</ele>
        <time>2019-05-26T10:50:09Z</time>
      </trkpt>
      <trkpt lat="41.00745" lon="-8.5658">
        <ele>190</ele>
        <time>2019-05-26T10:50:22Z</time>
      </trkpt>
      <trkpt lat="41.00765" lon="-8.56592">
        <ele>189.52</ele>
        <time>2019-05-26T10:50:39Z</time>
      </trkpt>
      <trkpt lat="41.0077" lon="-8.56609">
        <ele>188.08</ele>
        <time>2019-05-26T10:50:50Z</time>
      </trkpt>
      <trkpt lat="41.00774" lon="-8.56618">
        <ele>186.63</ele>
        <time>2019-05-26T10:50:57Z</time>
      </trkpt>
      <trkpt lat="41.00793" lon="-8.56635">
        <ele>185.19</ele>
        <time>2019-05-26T10:51:17Z</time>
      </trkpt>
      <trkpt lat="41.00801" lon="-8.56641">
        <ele>184.23</ele>
        <time>2019-05-26T10:51:30Z</time>
      </trkpt>
      <trkpt lat="41.00813" lon="-8.56651">
        <ele>183.75</ele>
        <time>2019-05-26T10:51:42Z</time>
      </trkpt>
      <trkpt lat="41.00826" lon="-8.56664">
        <ele>182.79</ele>
        <time>2019-05-26T10:51:56Z</time>
      </trkpt>
      <trkpt lat="41.00825" lon="-8.56666">
        <ele>182.79</ele>
        <time>2019-05-26T10:52:17Z</time>
      </trkpt>
      <trkpt lat="41.00837" lon="-8.56685">
        <ele>181.35</ele>
        <time>2019-05-26T10:52:32Z</time>
      </trkpt>
      <trkpt lat="41.00846" lon="-8.56705">
        <ele>178.46</ele>
        <time>2019-05-26T10:52:48Z</time>
      </trkpt>
      <trkpt lat="41.00851" lon="-8.56722">
        <ele>176.06</ele>
        <time>2019-05-26T10:52:59Z</time>
      </trkpt>
      <trkpt lat="41.00854" lon="-8.56728">
        <ele>176.06</ele>
        <time>2019-05-26T10:53:04Z</time>
      </trkpt>
      <trkpt lat="41.00862" lon="-8.56726">
        <ele>174.62</ele>
        <time>2019-05-26T10:53:13Z</time>
      </trkpt>
      <trkpt lat="41.00878" lon="-8.56723">
        <ele>174.14</ele>
        <time>2019-05-26T10:53:27Z</time>
      </trkpt>
      <trkpt lat="41.00887" lon="-8.56726">
        <ele>174.62</ele>
        <time>2019-05-26T10:53:38Z</time>
      </trkpt>
      <trkpt lat="41.00891" lon="-8.56725">
        <ele>174.14</ele>
        <time>2019-05-26T10:53:47Z</time>
      </trkpt>
      <trkpt lat="41.00909" lon="-8.56728">
        <ele>173.17</ele>
        <time>2019-05-26T10:54:01Z</time>
      </trkpt>
      <trkpt lat="41.00922" lon="-8.56732">
        <ele>172.69</ele>
        <time>2019-05-26T10:54:15Z</time>
      </trkpt>
      <trkpt lat="41.00938" lon="-8.56733">
        <ele>172.21</ele>
        <time>2019-05-26T10:54:29Z</time>
      </trkpt>
      <trkpt lat="41.00957" lon="-8.56736">
        <ele>171.25</ele>
        <time>2019-05-26T10:54:44Z</time>
      </trkpt>
      <trkpt lat="41.00978" lon="-8.56739">
        <ele>169.81</ele>
        <time>2019-05-26T10:55:00Z</time>
      </trkpt>
      <trkpt lat="41.00997" lon="-8.56742">
        <ele>169.33</ele>
        <time>2019-05-26T10:55:16Z</time>
      </trkpt>
      <trkpt lat="41.01015" lon="-8.56747">
        <ele>167.89</ele>
        <time>2019-05-26T10:55:30Z</time>
      </trkpt>
      <trkpt lat="41.0103" lon="-8.5675">
        <ele>166.45</ele>
        <time>2019-05-26T10:55:43Z</time>
      </trkpt>
      <trkpt lat="41.01035" lon="-8.56749">
        <ele>166.45</ele>
        <time>2019-05-26T10:55:48Z</time>
      </trkpt>
      <trkpt lat="41.01039" lon="-8.56749">
        <ele>166.45</ele>
        <time>2019-05-26T10:56:01Z</time>
      </trkpt>
      <trkpt lat="41.01038" lon="-8.5675">
        <ele>166.45</ele>
        <time>2019-05-26T10:56:03Z</time>
      </trkpt>
      <trkpt lat="41.01026" lon="-8.56748">
        <ele>167.41</ele>
        <time>2019-05-26T10:56:17Z</time>
      </trkpt>
      <trkpt lat="41.01045" lon="-8.56751">
        <ele>165.96</ele>
        <time>2019-05-26T10:56:32Z</time>
      </trkpt>
      <trkpt lat="41.01068" lon="-8.56755">
        <ele>163.56</ele>
        <time>2019-05-26T10:56:50Z</time>
      </trkpt>
      <trkpt lat="41.01089" lon="-8.56757">
        <ele>162.12</ele>
        <time>2019-05-26T10:57:03Z</time>
      </trkpt>
      <trkpt lat="41.01096" lon="-8.56755">
        <ele>161.16</ele>
        <time>2019-05-26T10:57:10Z</time>
      </trkpt>
      <trkpt lat="41.01113" lon="-8.56758">
        <ele>159.24</ele>
        <time>2019-05-26T10:57:24Z</time>
      </trkpt>
      <trkpt lat="41.0113" lon="-8.56758">
        <ele>157.31</ele>
        <time>2019-05-26T10:57:37Z</time>
      </trkpt>
      <trkpt lat="41.01143" lon="-8.56756">
        <ele>156.83</ele>
        <time>2019-05-26T10:57:47Z</time>
      </trkpt>
      <trkpt lat="41.0116" lon="-8.56747">
        <ele>155.39</ele>
        <time>2019-05-26T10:58:01Z</time>
      </trkpt>
      <trkpt lat="41.01178" lon="-8.56737">
        <ele>154.91</ele>
        <time>2019-05-26T10:58:15Z</time>
      </trkpt>
      <trkpt lat="41.01179" lon="-8.56727">
        <ele>154.91</ele>
        <time>2019-05-26T10:58:27Z</time>
      </trkpt>
      <trkpt lat="41.01177" lon="-8.56724">
        <ele>155.39</ele>
        <time>2019-05-26T10:58:42Z</time>
      </trkpt>
      <trkpt lat="41.01177" lon="-8.56725">
        <ele>155.39</ele>
        <time>2019-05-26T10:58:52Z</time>
      </trkpt>
      <trkpt lat="41.01176" lon="-8.56731">
        <ele>154.91</ele>
        <time>2019-05-26T10:59:26Z</time>
      </trkpt>
      <trkpt lat="41.01173" lon="-8.56726">
        <ele>154.91</ele>
        <time>2019-05-26T10:59:57Z</time>
      </trkpt>
      <trkpt lat="41.01175" lon="-8.56724">
        <ele>154.91</ele>
        <time>2019-05-26T11:00:38Z</time>
      </trkpt>
      <trkpt lat="41.01173" lon="-8.56725">
        <ele>154.91</ele>
        <time>2019-05-26T11:01:16Z</time>
      </trkpt>
      <trkpt lat="41.01172" lon="-8.56721">
        <ele>154.91</ele>
        <time>2019-05-26T11:01:50Z</time>
      </trkpt>
      <trkpt lat="41.01174" lon="-8.56729">
        <ele>154.43</ele>
        <time>2019-05-26T11:02:19Z</time>
      </trkpt>
      <trkpt lat="41.01175" lon="-8.56729">
        <ele>154.43</ele>
        <time>2019-05-26T11:02:42Z</time>
      </trkpt>
      <trkpt lat="41.01178" lon="-8.56728">
        <ele>154.43</ele>
        <time>2019-05-26T11:03:08Z</time>
      </trkpt>
      <trkpt lat="41.01176" lon="-8.56723">
        <ele>155.39</ele>
        <time>2019-05-26T11:03:23Z</time>
      </trkpt>
      <trkpt lat="41.01177" lon="-8.56723">
        <ele>155.39</ele>
        <time>2019-05-26T11:03:44Z</time>
      </trkpt>
      <trkpt lat="41.01179" lon="-8.56725">
        <ele>155.39</ele>
        <time>2019-05-26T11:04:07Z</time>
      </trkpt>
      <trkpt lat="41.01177" lon="-8.56723">
        <ele>154.91</ele>
        <time>2019-05-26T11:04:26Z</time>
      </trkpt>
      <trkpt lat="41.0118" lon="-8.56728">
        <ele>155.39</ele>
        <time>2019-05-26T11:04:46Z</time>
      </trkpt>
      <trkpt lat="41.01179" lon="-8.56729">
        <ele>154.43</ele>
        <time>2019-05-26T11:05:06Z</time>
      </trkpt>
      <trkpt lat="41.01177" lon="-8.56733">
        <ele>154.91</ele>
        <time>2019-05-26T11:05:28Z</time>
      </trkpt>
      <trkpt lat="41.0118" lon="-8.56735">
        <ele>155.39</ele>
        <time>2019-05-26T11:05:50Z</time>
      </trkpt>
      <trkpt lat="41.01182" lon="-8.56732">
        <ele>157.79</ele>
        <time>2019-05-26T11:06:01Z</time>
      </trkpt>
      <trkpt lat="41.01183" lon="-8.56732">
        <ele>154.91</ele>
        <time>2019-05-26T11:06:02Z</time>
      </trkpt>
      <trkpt lat="41.01182" lon="-8.56731">
        <ele>155.39</ele>
        <time>2019-05-26T11:06:03Z</time>
      </trkpt>
      <trkpt lat="41.01179" lon="-8.56725">
        <ele>154.91</ele>
        <time>2019-05-26T11:06:17Z</time>
      </trkpt>
      <trkpt lat="41.0118" lon="-8.56724">
        <ele>155.87</ele>
        <time>2019-05-26T11:06:29Z</time>
      </trkpt>
      <trkpt lat="41.0118" lon="-8.56725">
        <ele>156.35</ele>
        <time>2019-05-26T11:06:38Z</time>
      </trkpt>
      <trkpt lat="41.01181" lon="-8.56724">
        <ele>154.91</ele>
        <time>2019-05-26T11:06:40Z</time>
      </trkpt>
      <trkpt lat="41.0118" lon="-8.56723">
        <ele>155.39</ele>
        <time>2019-05-26T11:06:56Z</time>
      </trkpt>
      <trkpt lat="41.01184" lon="-8.56724">
        <ele>155.39</ele>
        <time>2019-05-26T11:07:17Z</time>
      </trkpt>
      <trkpt lat="41.0118" lon="-8.56727">
        <ele>155.39</ele>
        <time>2019-05-26T11:07:30Z</time>
      </trkpt>
      <trkpt lat="41.0118" lon="-8.56729">
        <ele>155.39</ele>
        <time>2019-05-26T11:07:32Z</time>
      </trkpt>
      <trkpt lat="41.0118" lon="-8.56735">
        <ele>154.91</ele>
        <time>2019-05-26T11:07:36Z</time>
      </trkpt>
      <trkpt lat="41.01195" lon="-8.56743">
        <ele>154.43</ele>
        <time>2019-05-26T11:07:51Z</time>
      </trkpt>
      <trkpt lat="41.01199" lon="-8.56745">
        <ele>154.43</ele>
        <time>2019-05-26T11:08:06Z</time>
      </trkpt>
      <trkpt lat="41.01203" lon="-8.56749">
        <ele>153.47</ele>
        <time>2019-05-26T11:08:17Z</time>
      </trkpt>
      <trkpt lat="41.01204" lon="-8.56752">
        <ele>154.43</ele>
        <time>2019-05-26T11:08:30Z</time>
      </trkpt>
      <trkpt lat="41.01212" lon="-8.56765">
        <ele>153.95</ele>
        <time>2019-05-26T11:08:43Z</time>
      </trkpt>
      <trkpt lat="41.01225" lon="-8.5678">
        <ele>153.95</ele>
        <time>2019-05-26T11:08:57Z</time>
      </trkpt>
      <trkpt lat="41.01239" lon="-8.56782">
        <ele>154.43</ele>
        <time>2019-05-26T11:09:11Z</time>
      </trkpt>
      <trkpt lat="41.01255" lon="-8.56783">
        <ele>155.39</ele>
        <time>2019-05-26T11:09:25Z</time>
      </trkpt>
      <trkpt lat="41.01275" lon="-8.5679">
        <ele>155.39</ele>
        <time>2019-05-26T11:09:41Z</time>
      </trkpt>
      <trkpt lat="41.01292" lon="-8.56792">
        <ele>156.83</ele>
        <time>2019-05-26T11:09:56Z</time>
      </trkpt>
      <trkpt lat="41.01301" lon="-8.56792">
        <ele>156.35</ele>
        <time>2019-05-26T11:10:04Z</time>
      </trkpt>
      <trkpt lat="41.01318" lon="-8.56791">
        <ele>157.31</ele>
        <time>2019-05-26T11:10:19Z</time>
      </trkpt>
      <trkpt lat="41.01336" lon="-8.56793">
        <ele>157.79</ele>
        <time>2019-05-26T11:10:34Z</time>
      </trkpt>
      <trkpt lat="41.01359" lon="-8.5679">
        <ele>158.27</ele>
        <time>2019-05-26T11:10:50Z</time>
      </trkpt>
      <trkpt lat="41.01377" lon="-8.56792">
        <ele>158.75</ele>
        <time>2019-05-26T11:11:07Z</time>
      </trkpt>
      <trkpt lat="41.01384" lon="-8.56794">
        <ele>159.24</ele>
        <time>2019-05-26T11:11:22Z</time>
      </trkpt>
      <trkpt lat="41.01385" lon="-8.56792">
        <ele>158.75</ele>
        <time>2019-05-26T11:11:41Z</time>
      </trkpt>
      <trkpt lat="41.01384" lon="-8.56791">
        <ele>159.24</ele>
        <time>2019-05-26T11:12:09Z</time>
      </trkpt>
      <trkpt lat="41.01385" lon="-8.56792">
        <ele>158.75</ele>
        <time>2019-05-26T11:12:38Z</time>
      </trkpt>
      <trkpt lat="41.01384" lon="-8.56792">
        <ele>158.75</ele>
        <time>2019-05-26T11:13:01Z</time>
      </trkpt>
      <trkpt lat="41.01397" lon="-8.56793">
        <ele>159.72</ele>
        <time>2019-05-26T11:13:25Z</time>
      </trkpt>
      <trkpt lat="41.01415" lon="-8.56794">
        <ele>158.75</ele>
        <time>2019-05-26T11:13:39Z</time>
      </trkpt>
      <trkpt lat="41.01432" lon="-8.56795">
        <ele>159.72</ele>
        <time>2019-05-26T11:13:55Z</time>
      </trkpt>
      <trkpt lat="41.01443" lon="-8.56797">
        <ele>159.72</ele>
        <time>2019-05-26T11:14:05Z</time>
      </trkpt>
      <trkpt lat="41.01462" lon="-8.568">
        <ele>159.24</ele>
        <time>2019-05-26T11:14:22Z</time>
      </trkpt>
      <trkpt lat="41.01477" lon="-8.56802">
        <ele>157.79</ele>
        <time>2019-05-26T11:14:36Z</time>
      </trkpt>
      <trkpt lat="41.01488" lon="-8.56803">
        <ele>157.31</ele>
        <time>2019-05-26T11:14:49Z</time>
      </trkpt>
      <trkpt lat="41.01509" lon="-8.56804">
        <ele>154.43</ele>
        <time>2019-05-26T11:15:06Z</time>
      </trkpt>
      <trkpt lat="41.01524" lon="-8.56807">
        <ele>152.99</ele>
        <time>2019-05-26T11:15:19Z</time>
      </trkpt>
      <trkpt lat="41.0153" lon="-8.56818">
        <ele>151.06</ele>
        <time>2019-05-26T11:15:28Z</time>
      </trkpt>
      <trkpt lat="41.01536" lon="-8.5684">
        <ele>148.66</ele>
        <time>2019-05-26T11:15:44Z</time>
      </trkpt>
      <trkpt lat="41.01545" lon="-8.56856">
        <ele>146.74</ele>
        <time>2019-05-26T11:15:57Z</time>
      </trkpt>
      <trkpt lat="41.01554" lon="-8.56875">
        <ele>144.34</ele>
        <time>2019-05-26T11:16:10Z</time>
      </trkpt>
      <trkpt lat="41.01562" lon="-8.5689">
        <ele>142.41</ele>
        <time>2019-05-26T11:16:23Z</time>
      </trkpt>
      <trkpt lat="41.01569" lon="-8.56901">
        <ele>142.41</ele>
        <time>2019-05-26T11:16:38Z</time>
      </trkpt>
      <trkpt lat="41.01572" lon="-8.569">
        <ele>142.89</ele>
        <time>2019-05-26T11:16:56Z</time>
      </trkpt>
      <trkpt lat="41.01575" lon="-8.56901">
        <ele>141.45</ele>
        <time>2019-05-26T11:17:03Z</time>
      </trkpt>
      <trkpt lat="41.01578" lon="-8.56904">
        <ele>141.93</ele>
        <time>2019-05-26T11:17:06Z</time>
      </trkpt>
      <trkpt lat="41.01583" lon="-8.56911">
        <ele>141.93</ele>
        <time>2019-05-26T11:17:11Z</time>
      </trkpt>
      <trkpt lat="41.01597" lon="-8.56929">
        <ele>141.45</ele>
        <time>2019-05-26T11:17:26Z</time>
      </trkpt>
      <trkpt lat="41.01612" lon="-8.56944">
        <ele>140.97</ele>
        <time>2019-05-26T11:17:41Z</time>
      </trkpt>
      <trkpt lat="41.01627" lon="-8.56957">
        <ele>141.45</ele>
        <time>2019-05-26T11:17:55Z</time>
      </trkpt>
      <trkpt lat="41.01641" lon="-8.56974">
        <ele>141.93</ele>
        <time>2019-05-26T11:18:12Z</time>
      </trkpt>
      <trkpt lat="41.01645" lon="-8.56981">
        <ele>141.93</ele>
        <time>2019-05-26T11:18:24Z</time>
      </trkpt>
      <trkpt lat="41.01658" lon="-8.56999">
        <ele>141.93</ele>
        <time>2019-05-26T11:18:39Z</time>
      </trkpt>
      <trkpt lat="41.01668" lon="-8.57021">
        <ele>141.93</ele>
        <time>2019-05-26T11:18:56Z</time>
      </trkpt>
      <trkpt lat="41.0167" lon="-8.57029">
        <ele>142.89</ele>
        <time>2019-05-26T11:19:05Z</time>
      </trkpt>
      <trkpt lat="41.01675" lon="-8.57032">
        <ele>141.93</ele>
        <time>2019-05-26T11:19:10Z</time>
      </trkpt>
      <trkpt lat="41.01678" lon="-8.57036">
        <ele>141.93</ele>
        <time>2019-05-26T11:19:13Z</time>
      </trkpt>
      <trkpt lat="41.01679" lon="-8.57037">
        <ele>142.89</ele>
        <time>2019-05-26T11:19:14Z</time>
      </trkpt>
      <trkpt lat="41.01687" lon="-8.57055">
        <ele>142.89</ele>
        <time>2019-05-26T11:19:28Z</time>
      </trkpt>
      <trkpt lat="41.01689" lon="-8.57064">
        <ele>141.93</ele>
        <time>2019-05-26T11:19:38Z</time>
      </trkpt>
      <trkpt lat="41.01691" lon="-8.57067">
        <ele>142.41</ele>
        <time>2019-05-26T11:19:41Z</time>
      </trkpt>
      <trkpt lat="41.01693" lon="-8.57072">
        <ele>142.89</ele>
        <time>2019-05-26T11:19:47Z</time>
      </trkpt>
      <trkpt lat="41.01695" lon="-8.57073">
        <ele>142.41</ele>
        <time>2019-05-26T11:19:48Z</time>
      </trkpt>
      <trkpt lat="41.01707" lon="-8.57087">
        <ele>143.37</ele>
        <time>2019-05-26T11:20:02Z</time>
      </trkpt>
      <trkpt lat="41.01719" lon="-8.57101">
        <ele>143.85</ele>
        <time>2019-05-26T11:20:17Z</time>
      </trkpt>
      <trkpt lat="41.01725" lon="-8.5711">
        <ele>143.37</ele>
        <time>2019-05-26T11:20:27Z</time>
      </trkpt>
      <trkpt lat="41.01729" lon="-8.57114">
        <ele>143.37</ele>
        <time>2019-05-26T11:20:32Z</time>
      </trkpt>
      <trkpt lat="41.01735" lon="-8.57119">
        <ele>142.89</ele>
        <time>2019-05-26T11:20:40Z</time>
      </trkpt>
      <trkpt lat="41.01746" lon="-8.57133">
        <ele>142.41</ele>
        <time>2019-05-26T11:20:54Z</time>
      </trkpt>
      <trkpt lat="41.01758" lon="-8.57146">
        <ele>142.41</ele>
        <time>2019-05-26T11:21:06Z</time>
      </trkpt>
      <trkpt lat="41.01774" lon="-8.5716">
        <ele>142.41</ele>
        <time>2019-05-26T11:21:20Z</time>
      </trkpt>
      <trkpt lat="41.01788" lon="-8.57177">
        <ele>142.41</ele>
        <time>2019-05-26T11:21:34Z</time>
      </trkpt>
      <trkpt lat="41.01797" lon="-8.57189">
        <ele>142.89</ele>
        <time>2019-05-26T11:21:47Z</time>
      </trkpt>
      <trkpt lat="41.01802" lon="-8.57201">
        <ele>142.89</ele>
        <time>2019-05-26T11:21:56Z</time>
      </trkpt>
      <trkpt lat="41.01814" lon="-8.57223">
        <ele>142.41</ele>
        <time>2019-05-26T11:22:11Z</time>
      </trkpt>
      <trkpt lat="41.01816" lon="-8.57225">
        <ele>142.41</ele>
        <time>2019-05-26T11:22:13Z</time>
      </trkpt>
      <trkpt lat="41.01818" lon="-8.57226">
        <ele>142.89</ele>
        <time>2019-05-26T11:22:14Z</time>
      </trkpt>
      <trkpt lat="41.01819" lon="-8.57227">
        <ele>142.41</ele>
        <time>2019-05-26T11:22:15Z</time>
      </trkpt>
      <trkpt lat="41.01829" lon="-8.57245">
        <ele>142.41</ele>
        <time>2019-05-26T11:22:30Z</time>
      </trkpt>
      <trkpt lat="41.01841" lon="-8.57263">
        <ele>142.89</ele>
        <time>2019-05-26T11:22:45Z</time>
      </trkpt>
      <trkpt lat="41.01842" lon="-8.57268">
        <ele>142.41</ele>
        <time>2019-05-26T11:22:50Z</time>
      </trkpt>
      <trkpt lat="41.01847" lon="-8.57285">
        <ele>142.89</ele>
        <time>2019-05-26T11:23:01Z</time>
      </trkpt>
      <trkpt lat="41.01851" lon="-8.57306">
        <ele>142.41</ele>
        <time>2019-05-26T11:23:15Z</time>
      </trkpt>
      <trkpt lat="41.01855" lon="-8.57326">
        <ele>142.41</ele>
        <time>2019-05-26T11:23:30Z</time>
      </trkpt>
      <trkpt lat="41.0186" lon="-8.57351">
        <ele>140.97</ele>
        <time>2019-05-26T11:23:45Z</time>
      </trkpt>
      <trkpt lat="41.01865" lon="-8.57369">
        <ele>140.49</ele>
        <time>2019-05-26T11:23:59Z</time>
      </trkpt>
      <trkpt lat="41.01867" lon="-8.5737">
        <ele>140.01</ele>
        <time>2019-05-26T11:24:02Z</time>
      </trkpt>
      <trkpt lat="41.01873" lon="-8.57374">
        <ele>140.01</ele>
        <time>2019-05-26T11:24:09Z</time>
      </trkpt>
      <trkpt lat="41.01879" lon="-8.57387">
        <ele>139.53</ele>
        <time>2019-05-26T11:24:21Z</time>
      </trkpt>
      <trkpt lat="41.01892" lon="-8.57403">
        <ele>139.53</ele>
        <time>2019-05-26T11:24:34Z</time>
      </trkpt>
      <trkpt lat="41.01895" lon="-8.57406">
        <ele>139.53</ele>
        <time>2019-05-26T11:24:37Z</time>
      </trkpt>
      <trkpt lat="41.01903" lon="-8.57416">
        <ele>139.53</ele>
        <time>2019-05-26T11:24:46Z</time>
      </trkpt>
      <trkpt lat="41.01909" lon="-8.57429">
        <ele>140.49</ele>
        <time>2019-05-26T11:24:55Z</time>
      </trkpt>
      <trkpt lat="41.0191" lon="-8.5743">
        <ele>140.49</ele>
        <time>2019-05-26T11:24:56Z</time>
      </trkpt>
      <trkpt lat="41.01911" lon="-8.57431">
        <ele>140.49</ele>
        <time>2019-05-26T11:24:57Z</time>
      </trkpt>
      <trkpt lat="41.01912" lon="-8.57432">
        <ele>140.49</ele>
        <time>2019-05-26T11:24:58Z</time>
      </trkpt>
      <trkpt lat="41.01913" lon="-8.57433">
        <ele>140.49</ele>
        <time>2019-05-26T11:24:59Z</time>
      </trkpt>
      <trkpt lat="41.0192" lon="-8.57453">
        <ele>140.97</ele>
        <time>2019-05-26T11:25:14Z</time>
      </trkpt>
      <trkpt lat="41.01924" lon="-8.57477">
        <ele>140.97</ele>
        <time>2019-05-26T11:25:29Z</time>
      </trkpt>
      <trkpt lat="41.01928" lon="-8.57488">
        <ele>139.53</ele>
        <time>2019-05-26T11:25:36Z</time>
      </trkpt>
      <trkpt lat="41.01929" lon="-8.57489">
        <ele>140.49</ele>
        <time>2019-05-26T11:25:37Z</time>
      </trkpt>
      <trkpt lat="41.01935" lon="-8.57513">
        <ele>140.01</ele>
        <time>2019-05-26T11:25:53Z</time>
      </trkpt>
      <trkpt lat="41.01946" lon="-8.57527">
        <ele>138.57</ele>
        <time>2019-05-26T11:26:06Z</time>
      </trkpt>
      <trkpt lat="41.01957" lon="-8.57538">
        <ele>139.53</ele>
        <time>2019-05-26T11:26:19Z</time>
      </trkpt>
      <trkpt lat="41.01971" lon="-8.57548">
        <ele>138.57</ele>
        <time>2019-05-26T11:26:33Z</time>
      </trkpt>
      <trkpt lat="41.01973" lon="-8.57549">
        <ele>139.05</ele>
        <time>2019-05-26T11:26:35Z</time>
      </trkpt>
      <trkpt lat="41.01975" lon="-8.57551">
        <ele>138.57</ele>
        <time>2019-05-26T11:26:37Z</time>
      </trkpt>
      <trkpt lat="41.01988" lon="-8.57564">
        <ele>138.57</ele>
        <time>2019-05-26T11:26:49Z</time>
      </trkpt>
      <trkpt lat="41.02001" lon="-8.5758">
        <ele>139.53</ele>
        <time>2019-05-26T11:27:05Z</time>
      </trkpt>
      <trkpt lat="41.02016" lon="-8.57593">
        <ele>139.05</ele>
        <time>2019-05-26T11:27:20Z</time>
      </trkpt>
      <trkpt lat="41.02025" lon="-8.57605">
        <ele>140.01</ele>
        <time>2019-05-26T11:27:31Z</time>
      </trkpt>
      <trkpt lat="41.02031" lon="-8.57621">
        <ele>139.53</ele>
        <time>2019-05-26T11:27:45Z</time>
      </trkpt>
      <trkpt lat="41.02036" lon="-8.57635">
        <ele>140.01</ele>
        <time>2019-05-26T11:27:59Z</time>
      </trkpt>
      <trkpt lat="41.02033" lon="-8.57634">
        <ele>140.01</ele>
        <time>2019-05-26T11:28:19Z</time>
      </trkpt>
      <trkpt lat="41.02032" lon="-8.57635">
        <ele>140.01</ele>
        <time>2019-05-26T11:28:37Z</time>
      </trkpt>
      <trkpt lat="41.02033" lon="-8.57629">
        <ele>140.49</ele>
        <time>2019-05-26T11:28:58Z</time>
      </trkpt>
      <trkpt lat="41.02033" lon="-8.57629">
        <ele>140.01</ele>
        <time>2019-05-26T11:29:13Z</time>
      </trkpt>
      <trkpt lat="41.02029" lon="-8.5762">
        <ele>140.01</ele>
        <time>2019-05-26T11:29:24Z</time>
      </trkpt>
      <trkpt lat="41.02032" lon="-8.57614">
        <ele>140.49</ele>
        <time>2019-05-26T11:29:38Z</time>
      </trkpt>
      <trkpt lat="41.02037" lon="-8.57608">
        <ele>140.01</ele>
        <time>2019-05-26T11:30:00Z</time>
      </trkpt>
      <trkpt lat="41.02035" lon="-8.57606">
        <ele>140.49</ele>
        <time>2019-05-26T11:30:26Z</time>
      </trkpt>
      <trkpt lat="41.02036" lon="-8.57609">
        <ele>140.01</ele>
        <time>2019-05-26T11:30:45Z</time>
      </trkpt>
      <trkpt lat="41.0203" lon="-8.57628">
        <ele>140.01</ele>
        <time>2019-05-26T11:31:03Z</time>
      </trkpt>
      <trkpt lat="41.02036" lon="-8.57632">
        <ele>139.53</ele>
        <time>2019-05-26T11:31:10Z</time>
      </trkpt>
      <trkpt lat="41.0204" lon="-8.5764">
        <ele>139.53</ele>
        <time>2019-05-26T11:31:23Z</time>
      </trkpt>
      <trkpt lat="41.02046" lon="-8.57645">
        <ele>139.05</ele>
        <time>2019-05-26T11:31:36Z</time>
      </trkpt>
      <trkpt lat="41.0205" lon="-8.5765">
        <ele>138.57</ele>
        <time>2019-05-26T11:31:42Z</time>
      </trkpt>
      <trkpt lat="41.02063" lon="-8.57662">
        <ele>138.09</ele>
        <time>2019-05-26T11:31:56Z</time>
      </trkpt>
      <trkpt lat="41.02065" lon="-8.57663">
        <ele>137.61</ele>
        <time>2019-05-26T11:31:59Z</time>
      </trkpt>
      <trkpt lat="41.02067" lon="-8.57663">
        <ele>137.61</ele>
        <time>2019-05-26T11:32:00Z</time>
      </trkpt>
      <trkpt lat="41.0208" lon="-8.57667">
        <ele>136.64</ele>
        <time>2019-05-26T11:32:14Z</time>
      </trkpt>
      <trkpt lat="41.02089" lon="-8.57669">
        <ele>136.16</ele>
        <time>2019-05-26T11:32:27Z</time>
      </trkpt>
      <trkpt lat="41.02105" lon="-8.57674">
        <ele>133.76</ele>
        <time>2019-05-26T11:32:42Z</time>
      </trkpt>
      <trkpt lat="41.02118" lon="-8.57677">
        <ele>132.8</ele>
        <time>2019-05-26T11:32:57Z</time>
      </trkpt>
      <trkpt lat="41.02125" lon="-8.57679">
        <ele>132.32</ele>
        <time>2019-05-26T11:33:03Z</time>
      </trkpt>
      <trkpt lat="41.02141" lon="-8.57686">
        <ele>131.36</ele>
        <time>2019-05-26T11:33:16Z</time>
      </trkpt>
      <trkpt lat="41.02159" lon="-8.57694">
        <ele>130.88</ele>
        <time>2019-05-26T11:33:28Z</time>
      </trkpt>
      <trkpt lat="41.02177" lon="-8.57699">
        <ele>127.99</ele>
        <time>2019-05-26T11:33:42Z</time>
      </trkpt>
      <trkpt lat="41.02193" lon="-8.577">
        <ele>127.03</ele>
        <time>2019-05-26T11:33:58Z</time>
      </trkpt>
      <trkpt lat="41.02213" lon="-8.577">
        <ele>125.11</ele>
        <time>2019-05-26T11:34:11Z</time>
      </trkpt>
      <trkpt lat="41.02231" lon="-8.57703">
        <ele>123.67</ele>
        <time>2019-05-26T11:34:24Z</time>
      </trkpt>
      <trkpt lat="41.02243" lon="-8.57704">
        <ele>121.74</ele>
        <time>2019-05-26T11:34:37Z</time>
      </trkpt>
      <trkpt lat="41.02264" lon="-8.57704">
        <ele>120.78</ele>
        <time>2019-05-26T11:34:51Z</time>
      </trkpt>
      <trkpt lat="41.02286" lon="-8.57703">
        <ele>119.34</ele>
        <time>2019-05-26T11:35:00Z</time>
      </trkpt>
      <trkpt lat="41.02294" lon="-8.57702">
        <ele>118.86</ele>
        <time>2019-05-26T11:35:13Z</time>
      </trkpt>
      <trkpt lat="41.02295" lon="-8.57704">
        <ele>118.86</ele>
        <time>2019-05-26T11:35:15Z</time>
      </trkpt>
      <trkpt lat="41.02296" lon="-8.57705">
        <ele>118.38</ele>
        <time>2019-05-26T11:35:16Z</time>
      </trkpt>
      <trkpt lat="41.02313" lon="-8.57724">
        <ele>117.42</ele>
        <time>2019-05-26T11:35:37Z</time>
      </trkpt>
      <trkpt lat="41.02343" lon="-8.57722">
        <ele>117.42</ele>
        <time>2019-05-26T11:35:52Z</time>
      </trkpt>
      <trkpt lat="41.02345" lon="-8.5772">
        <ele>116.94</ele>
        <time>2019-05-26T11:35:53Z</time>
      </trkpt>
      <trkpt lat="41.02363" lon="-8.57705">
        <ele>116.94</ele>
        <time>2019-05-26T11:36:01Z</time>
      </trkpt>
      <trkpt lat="41.02368" lon="-8.57704">
        <ele>117.9</ele>
        <time>2019-05-26T11:36:06Z</time>
      </trkpt>
      <trkpt lat="41.02376" lon="-8.57705">
        <ele>117.9</ele>
        <time>2019-05-26T11:36:18Z</time>
      </trkpt>
      <trkpt lat="41.02382" lon="-8.57704">
        <ele>118.86</ele>
        <time>2019-05-26T11:36:25Z</time>
      </trkpt>
      <trkpt lat="41.02384" lon="-8.57704">
        <ele>117.42</ele>
        <time>2019-05-26T11:36:26Z</time>
      </trkpt>
      <trkpt lat="41.02387" lon="-8.57704">
        <ele>118.38</ele>
        <time>2019-05-26T11:36:28Z</time>
      </trkpt>
      <trkpt lat="41.02391" lon="-8.57703">
        <ele>118.86</ele>
        <time>2019-05-26T11:36:30Z</time>
      </trkpt>
      <trkpt lat="41.02397" lon="-8.57704">
        <ele>118.38</ele>
        <time>2019-05-26T11:36:34Z</time>
      </trkpt>
      <trkpt lat="41.02412" lon="-8.5771">
        <ele>118.86</ele>
        <time>2019-05-26T11:36:46Z</time>
      </trkpt>
      <trkpt lat="41.02414" lon="-8.57711">
        <ele>118.86</ele>
        <time>2019-05-26T11:36:48Z</time>
      </trkpt>
      <trkpt lat="41.0243" lon="-8.57707">
        <ele>120.3</ele>
        <time>2019-05-26T11:37:02Z</time>
      </trkpt>
      <trkpt lat="41.0245" lon="-8.57707">
        <ele>121.26</ele>
        <time>2019-05-26T11:37:17Z</time>
      </trkpt>
      <trkpt lat="41.02457" lon="-8.57709">
        <ele>121.74</ele>
        <time>2019-05-26T11:37:26Z</time>
      </trkpt>
      <trkpt lat="41.02473" lon="-8.57711">
        <ele>121.74</ele>
        <time>2019-05-26T11:37:39Z</time>
      </trkpt>
      <trkpt lat="41.02478" lon="-8.57711">
        <ele>121.74</ele>
        <time>2019-05-26T11:37:44Z</time>
      </trkpt>
      <trkpt lat="41.02479" lon="-8.57712">
        <ele>122.22</ele>
        <time>2019-05-26T11:37:45Z</time>
      </trkpt>
      <trkpt lat="41.0248" lon="-8.57712">
        <ele>122.22</ele>
        <time>2019-05-26T11:37:46Z</time>
      </trkpt>
      <trkpt lat="41.02495" lon="-8.57716">
        <ele>122.71</ele>
        <time>2019-05-26T11:38:00Z</time>
      </trkpt>
      <trkpt lat="41.02512" lon="-8.57724">
        <ele>124.15</ele>
        <time>2019-05-26T11:38:14Z</time>
      </trkpt>
      <trkpt lat="41.02523" lon="-8.57733">
        <ele>124.15</ele>
        <time>2019-05-26T11:38:27Z</time>
      </trkpt>
      <trkpt lat="41.02534" lon="-8.57755">
        <ele>124.63</ele>
        <time>2019-05-26T11:38:44Z</time>
      </trkpt>
      <trkpt lat="41.0255" lon="-8.57768">
        <ele>124.63</ele>
        <time>2019-05-26T11:38:59Z</time>
      </trkpt>
      <trkpt lat="41.02564" lon="-8.57777">
        <ele>125.59</ele>
        <time>2019-05-26T11:39:12Z</time>
      </trkpt>
      <trkpt lat="41.02575" lon="-8.57781">
        <ele>125.59</ele>
        <time>2019-05-26T11:39:23Z</time>
      </trkpt>
      <trkpt lat="41.02577" lon="-8.57781">
        <ele>125.59</ele>
        <time>2019-05-26T11:39:24Z</time>
      </trkpt>
      <trkpt lat="41.02591" lon="-8.57779">
        <ele>126.07</ele>
        <time>2019-05-26T11:39:37Z</time>
      </trkpt>
      <trkpt lat="41.02607" lon="-8.57781">
        <ele>126.55</ele>
        <time>2019-05-26T11:39:52Z</time>
      </trkpt>
      <trkpt lat="41.02614" lon="-8.57785">
        <ele>127.03</ele>
        <time>2019-05-26T11:40:00Z</time>
      </trkpt>
      <trkpt lat="41.02622" lon="-8.57801">
        <ele>127.03</ele>
        <time>2019-05-26T11:40:14Z</time>
      </trkpt>
      <trkpt lat="41.02624" lon="-8.57809">
        <ele>127.03</ele>
        <time>2019-05-26T11:40:19Z</time>
      </trkpt>
      <trkpt lat="41.02626" lon="-8.57815">
        <ele>127.03</ele>
        <time>2019-05-26T11:40:32Z</time>
      </trkpt>
      <trkpt lat="41.02629" lon="-8.57821">
        <ele>127.51</ele>
        <time>2019-05-26T11:40:48Z</time>
      </trkpt>
      <trkpt lat="41.02635" lon="-8.5782">
        <ele>127.03</ele>
        <time>2019-05-26T11:41:02Z</time>
      </trkpt>
      <trkpt lat="41.02635" lon="-8.57818">
        <ele>126.55</ele>
        <time>2019-05-26T11:41:16Z</time>
      </trkpt>
      <trkpt lat="41.02633" lon="-8.57812">
        <ele>127.03</ele>
        <time>2019-05-26T11:41:50Z</time>
      </trkpt>
      <trkpt lat="41.02633" lon="-8.57815">
        <ele>127.03</ele>
        <time>2019-05-26T11:42:12Z</time>
      </trkpt>
      <trkpt lat="41.02633" lon="-8.57821">
        <ele>127.51</ele>
        <time>2019-05-26T11:42:38Z</time>
      </trkpt>
      <trkpt lat="41.02634" lon="-8.57821">
        <ele>127.51</ele>
        <time>2019-05-26T11:43:05Z</time>
      </trkpt>
      <trkpt lat="41.02633" lon="-8.57822">
        <ele>127.51</ele>
        <time>2019-05-26T11:43:19Z</time>
      </trkpt>
      <trkpt lat="41.02635" lon="-8.57823">
        <ele>127.03</ele>
        <time>2019-05-26T11:43:39Z</time>
      </trkpt>
      <trkpt lat="41.02636" lon="-8.57823">
        <ele>127.03</ele>
        <time>2019-05-26T11:43:51Z</time>
      </trkpt>
      <trkpt lat="41.02634" lon="-8.57821">
        <ele>127.99</ele>
        <time>2019-05-26T11:44:07Z</time>
      </trkpt>
      <trkpt lat="41.02633" lon="-8.57822">
        <ele>127.51</ele>
        <time>2019-05-26T11:44:08Z</time>
      </trkpt>
      <trkpt lat="41.02632" lon="-8.57823">
        <ele>126.55</ele>
        <time>2019-05-26T11:44:09Z</time>
      </trkpt>
      <trkpt lat="41.0263" lon="-8.57826">
        <ele>126.07</ele>
        <time>2019-05-26T11:44:14Z</time>
      </trkpt>
      <trkpt lat="41.02628" lon="-8.57826">
        <ele>127.03</ele>
        <time>2019-05-26T11:44:16Z</time>
      </trkpt>
      <trkpt lat="41.02627" lon="-8.57827">
        <ele>126.55</ele>
        <time>2019-05-26T11:44:17Z</time>
      </trkpt>
      <trkpt lat="41.02626" lon="-8.57828">
        <ele>126.55</ele>
        <time>2019-05-26T11:44:18Z</time>
      </trkpt>
      <trkpt lat="41.02625" lon="-8.5783">
        <ele>126.55</ele>
        <time>2019-05-26T11:44:19Z</time>
      </trkpt>
      <trkpt lat="41.02625" lon="-8.57831">
        <ele>126.55</ele>
        <time>2019-05-26T11:44:20Z</time>
      </trkpt>
      <trkpt lat="41.02625" lon="-8.57832">
        <ele>127.03</ele>
        <time>2019-05-26T11:44:21Z</time>
      </trkpt>
      <trkpt lat="41.02624" lon="-8.57834">
        <ele>127.03</ele>
        <time>2019-05-26T11:44:22Z</time>
      </trkpt>
      <trkpt lat="41.02624" lon="-8.57835">
        <ele>127.03</ele>
        <time>2019-05-26T11:44:23Z</time>
      </trkpt>
      <trkpt lat="41.02624" lon="-8.57837">
        <ele>126.55</ele>
        <time>2019-05-26T11:44:24Z</time>
      </trkpt>
      <trkpt lat="41.02624" lon="-8.57838">
        <ele>126.07</ele>
        <time>2019-05-26T11:44:25Z</time>
      </trkpt>
      <trkpt lat="41.02624" lon="-8.5784">
        <ele>126.55</ele>
        <time>2019-05-26T11:44:26Z</time>
      </trkpt>
      <trkpt lat="41.02622" lon="-8.57847">
        <ele>127.03</ele>
        <time>2019-05-26T11:44:31Z</time>
      </trkpt>
      <trkpt lat="41.02622" lon="-8.57848">
        <ele>126.07</ele>
        <time>2019-05-26T11:44:32Z</time>
      </trkpt>
      <trkpt lat="41.02621" lon="-8.5785">
        <ele>127.03</ele>
        <time>2019-05-26T11:44:33Z</time>
      </trkpt>
      <trkpt lat="41.02621" lon="-8.57853">
        <ele>126.55</ele>
        <time>2019-05-26T11:44:34Z</time>
      </trkpt>
      <trkpt lat="41.02621" lon="-8.57855">
        <ele>126.55</ele>
        <time>2019-05-26T11:44:35Z</time>
      </trkpt>
      <trkpt lat="41.0262" lon="-8.57857">
        <ele>126.07</ele>
        <time>2019-05-26T11:44:36Z</time>
      </trkpt>
      <trkpt lat="41.02617" lon="-8.5788">
        <ele>126.07</ele>
        <time>2019-05-26T11:44:48Z</time>
      </trkpt>
      <trkpt lat="41.02616" lon="-8.57882">
        <ele>126.07</ele>
        <time>2019-05-26T11:44:49Z</time>
      </trkpt>
      <trkpt lat="41.02612" lon="-8.57894">
        <ele>127.03</ele>
        <time>2019-05-26T11:44:55Z</time>
      </trkpt>
      <trkpt lat="41.02612" lon="-8.57895">
        <ele>126.07</ele>
        <time>2019-05-26T11:44:56Z</time>
      </trkpt>
      <trkpt lat="41.02607" lon="-8.57913">
        <ele>126.07</ele>
        <time>2019-05-26T11:45:08Z</time>
      </trkpt>
      <trkpt lat="41.02607" lon="-8.57915">
        <ele>126.55</ele>
        <time>2019-05-26T11:45:09Z</time>
      </trkpt>
      <trkpt lat="41.02607" lon="-8.57917">
        <ele>126.55</ele>
        <time>2019-05-26T11:45:10Z</time>
      </trkpt>
      <trkpt lat="41.02606" lon="-8.57918">
        <ele>125.11</ele>
        <time>2019-05-26T11:45:11Z</time>
      </trkpt>
      <trkpt lat="41.02606" lon="-8.5792">
        <ele>126.07</ele>
        <time>2019-05-26T11:45:12Z</time>
      </trkpt>
      <trkpt lat="41.02605" lon="-8.57922">
        <ele>126.07</ele>
        <time>2019-05-26T11:45:13Z</time>
      </trkpt>
      <trkpt lat="41.02605" lon="-8.57924">
        <ele>126.07</ele>
        <time>2019-05-26T11:45:14Z</time>
      </trkpt>
      <trkpt lat="41.02605" lon="-8.57925">
        <ele>126.07</ele>
        <time>2019-05-26T11:45:15Z</time>
      </trkpt>
      <trkpt lat="41.02605" lon="-8.57927">
        <ele>126.07</ele>
        <time>2019-05-26T11:45:16Z</time>
      </trkpt>
      <trkpt lat="41.02604" lon="-8.57929">
        <ele>126.07</ele>
        <time>2019-05-26T11:45:17Z</time>
      </trkpt>
      <trkpt lat="41.02603" lon="-8.57936">
        <ele>126.07</ele>
        <time>2019-05-26T11:45:21Z</time>
      </trkpt>
      <trkpt lat="41.02603" lon="-8.57939">
        <ele>126.07</ele>
        <time>2019-05-26T11:45:23Z</time>
      </trkpt>
      <trkpt lat="41.02603" lon="-8.5794">
        <ele>126.55</ele>
        <time>2019-05-26T11:45:24Z</time>
      </trkpt>
      <trkpt lat="41.02603" lon="-8.57942">
        <ele>126.07</ele>
        <time>2019-05-26T11:45:25Z</time>
      </trkpt>
      <trkpt lat="41.02603" lon="-8.57943">
        <ele>126.07</ele>
        <time>2019-05-26T11:45:26Z</time>
      </trkpt>
      <trkpt lat="41.02603" lon="-8.57945">
        <ele>126.55</ele>
        <time>2019-05-26T11:45:27Z</time>
      </trkpt>
      <trkpt lat="41.02603" lon="-8.57947">
        <ele>126.55</ele>
        <time>2019-05-26T11:45:28Z</time>
      </trkpt>
      <trkpt lat="41.02603" lon="-8.57948">
        <ele>126.07</ele>
        <time>2019-05-26T11:45:29Z</time>
      </trkpt>
      <trkpt lat="41.02604" lon="-8.57969">
        <ele>125.59</ele>
        <time>2019-05-26T11:45:42Z</time>
      </trkpt>
      <trkpt lat="41.02605" lon="-8.57991">
        <ele>125.59</ele>
        <time>2019-05-26T11:45:56Z</time>
      </trkpt>
      <trkpt lat="41.02607" lon="-8.58007">
        <ele>126.07</ele>
        <time>2019-05-26T11:46:10Z</time>
      </trkpt>
      <trkpt lat="41.02608" lon="-8.58008">
        <ele>125.59</ele>
        <time>2019-05-26T11:46:11Z</time>
      </trkpt>
      <trkpt lat="41.02608" lon="-8.5801">
        <ele>125.59</ele>
        <time>2019-05-26T11:46:12Z</time>
      </trkpt>
      <trkpt lat="41.0261" lon="-8.58031">
        <ele>126.07</ele>
        <time>2019-05-26T11:46:26Z</time>
      </trkpt>
      <trkpt lat="41.0261" lon="-8.58033">
        <ele>125.11</ele>
        <time>2019-05-26T11:46:27Z</time>
      </trkpt>
      <trkpt lat="41.0261" lon="-8.5804">
        <ele>125.59</ele>
        <time>2019-05-26T11:46:32Z</time>
      </trkpt>
      <trkpt lat="41.02611" lon="-8.58045">
        <ele>125.59</ele>
        <time>2019-05-26T11:46:35Z</time>
      </trkpt>
      <trkpt lat="41.02613" lon="-8.58048">
        <ele>125.59</ele>
        <time>2019-05-26T11:46:42Z</time>
      </trkpt>
      <trkpt lat="41.02613" lon="-8.58049">
        <ele>125.11</ele>
        <time>2019-05-26T11:46:43Z</time>
      </trkpt>
      <trkpt lat="41.02619" lon="-8.58064">
        <ele>125.59</ele>
        <time>2019-05-26T11:46:56Z</time>
      </trkpt>
      <trkpt lat="41.02623" lon="-8.58075">
        <ele>125.11</ele>
        <time>2019-05-26T11:47:04Z</time>
      </trkpt>
      <trkpt lat="41.02625" lon="-8.58077">
        <ele>126.07</ele>
        <time>2019-05-26T11:47:06Z</time>
      </trkpt>
      <trkpt lat="41.02626" lon="-8.58078">
        <ele>125.59</ele>
        <time>2019-05-26T11:47:07Z</time>
      </trkpt>
      <trkpt lat="41.02632" lon="-8.58091">
        <ele>125.11</ele>
        <time>2019-05-26T11:47:18Z</time>
      </trkpt>
      <trkpt lat="41.02634" lon="-8.58098">
        <ele>124.63</ele>
        <time>2019-05-26T11:47:23Z</time>
      </trkpt>
      <trkpt lat="41.02635" lon="-8.58105">
        <ele>125.59</ele>
        <time>2019-05-26T11:47:29Z</time>
      </trkpt>
      <trkpt lat="41.02636" lon="-8.58108">
        <ele>125.11</ele>
        <time>2019-05-26T11:47:31Z</time>
      </trkpt>
      <trkpt lat="41.02636" lon="-8.58109">
        <ele>125.11</ele>
        <time>2019-05-26T11:47:44Z</time>
      </trkpt>
      <trkpt lat="41.02638" lon="-8.58111">
        <ele>125.59</ele>
        <time>2019-05-26T11:48:03Z</time>
      </trkpt>
      <trkpt lat="41.02639" lon="-8.58114">
        <ele>125.59</ele>
        <time>2019-05-26T11:48:19Z</time>
      </trkpt>
      <trkpt lat="41.02637" lon="-8.58113">
        <ele>126.07</ele>
        <time>2019-05-26T11:48:37Z</time>
      </trkpt>
      <trkpt lat="41.02639" lon="-8.58114">
        <ele>126.07</ele>
        <time>2019-05-26T11:48:54Z</time>
      </trkpt>
      <trkpt lat="41.02639" lon="-8.58117">
        <ele>126.07</ele>
        <time>2019-05-26T11:49:14Z</time>
      </trkpt>
      <trkpt lat="41.02638" lon="-8.58117">
        <ele>125.59</ele>
        <time>2019-05-26T11:49:29Z</time>
      </trkpt>
      <trkpt lat="41.02644" lon="-8.58128">
        <ele>125.11</ele>
        <time>2019-05-26T11:49:44Z</time>
      </trkpt>
      <trkpt lat="41.02644" lon="-8.58123">
        <ele>125.11</ele>
        <time>2019-05-26T11:50:06Z</time>
      </trkpt>
      <trkpt lat="41.02641" lon="-8.58116">
        <ele>125.59</ele>
        <time>2019-05-26T11:50:18Z</time>
      </trkpt>
      <trkpt lat="41.02638" lon="-8.58107">
        <ele>125.59</ele>
        <time>2019-05-26T11:50:28Z</time>
      </trkpt>
      <trkpt lat="41.02632" lon="-8.5809">
        <ele>125.59</ele>
        <time>2019-05-26T11:50:41Z</time>
      </trkpt>
      <trkpt lat="41.02627" lon="-8.58076">
        <ele>125.59</ele>
        <time>2019-05-26T11:50:53Z</time>
      </trkpt>
      <trkpt lat="41.02621" lon="-8.58079">
        <ele>125.11</ele>
        <time>2019-05-26T11:51:11Z</time>
      </trkpt>
      <trkpt lat="41.02618" lon="-8.58081">
        <ele>128.47</ele>
        <time>2019-05-26T11:51:19Z</time>
      </trkpt>
      <trkpt lat="41.02612" lon="-8.5808">
        <ele>127.03</ele>
        <time>2019-05-26T11:51:39Z</time>
      </trkpt>
      <trkpt lat="41.02611" lon="-8.58082">
        <ele>127.03</ele>
        <time>2019-05-26T11:52:03Z</time>
      </trkpt>
      <trkpt lat="41.02613" lon="-8.58082">
        <ele>127.51</ele>
        <time>2019-05-26T11:52:28Z</time>
      </trkpt>
      <trkpt lat="41.02615" lon="-8.58082">
        <ele>124.63</ele>
        <time>2019-05-26T11:52:40Z</time>
      </trkpt>
      <trkpt lat="41.02614" lon="-8.58084">
        <ele>124.63</ele>
        <time>2019-05-26T11:52:51Z</time>
      </trkpt>
      <trkpt lat="41.02612" lon="-8.58091">
        <ele>124.63</ele>
        <time>2019-05-26T11:53:15Z</time>
      </trkpt>
      <trkpt lat="41.02611" lon="-8.58087">
        <ele>125.11</ele>
        <time>2019-05-26T11:53:37Z</time>
      </trkpt>
      <trkpt lat="41.0261" lon="-8.58084">
        <ele>125.11</ele>
        <time>2019-05-26T11:54:04Z</time>
      </trkpt>
      <trkpt lat="41.02615" lon="-8.58082">
        <ele>123.67</ele>
        <time>2019-05-26T11:54:26Z</time>
      </trkpt>
      <trkpt lat="41.02613" lon="-8.58077">
        <ele>123.19</ele>
        <time>2019-05-26T11:55:05Z</time>
      </trkpt>
      <trkpt lat="41.02614" lon="-8.58086">
        <ele>123.19</ele>
        <time>2019-05-26T11:55:42Z</time>
      </trkpt>
      <trkpt lat="41.02614" lon="-8.58085">
        <ele>123.67</ele>
        <time>2019-05-26T11:56:18Z</time>
      </trkpt>
      <trkpt lat="41.02613" lon="-8.58081">
        <ele>123.19</ele>
        <time>2019-05-26T11:56:47Z</time>
      </trkpt>
      <trkpt lat="41.02617" lon="-8.58083">
        <ele>123.19</ele>
        <time>2019-05-26T11:57:22Z</time>
      </trkpt>
      <trkpt lat="41.0262" lon="-8.58087">
        <ele>122.71</ele>
        <time>2019-05-26T11:57:47Z</time>
      </trkpt>
      <trkpt lat="41.02617" lon="-8.58084">
        <ele>122.71</ele>
        <time>2019-05-26T11:58:16Z</time>
      </trkpt>
      <trkpt lat="41.02617" lon="-8.58086">
        <ele>123.19</ele>
        <time>2019-05-26T11:58:49Z</time>
      </trkpt>
      <trkpt lat="41.02614" lon="-8.58085">
        <ele>122.71</ele>
        <time>2019-05-26T11:59:29Z</time>
      </trkpt>
      <trkpt lat="41.02614" lon="-8.58083">
        <ele>122.71</ele>
        <time>2019-05-26T12:00:06Z</time>
      </trkpt>
      <trkpt lat="41.02617" lon="-8.58088">
        <ele>123.19</ele>
        <time>2019-05-26T12:00:40Z</time>
      </trkpt>
      <trkpt lat="41.02619" lon="-8.5809">
        <ele>122.71</ele>
        <time>2019-05-26T12:00:45Z</time>
      </trkpt>
      <trkpt lat="41.02626" lon="-8.58103">
        <ele>123.19</ele>
        <time>2019-05-26T12:01:03Z</time>
      </trkpt>
    </trkseg>
  </trk>
</gpx>